[[{"header":{"parameterUnit":"m.s-1","parameterCategory":1,"la1":31.0,"la2":29.5877,"lo1":-88.7671,"lo2":-86.6584,"dy":0.0162,"dx":0.0185,"nx":115,"ny":88,"refTime":"2023-03-31T06:00:00:Z","depth":0,"parameterNumber":2,"parameterNumberName":"U-component_of_WINDS"},"data":[0.0,0.0,0.0,0.0,0.0,0.0,0.0,0.0,0.0,0.0,0.0,0.0,0.0,0.0,0.0,0.0,0.0,0.0,0.0,0.0,0.0,0.0,0.0,0.0,0.0,0.0,0.0,0.0,0.0,0.0,0.0,0.0,0.0,0.0,0.0,0.0,0.0,0.0,0.0,0.0,0.0,0.0,0.0,0.0,0.0,0.0,0.0,0.0,0.0,0.0,0.0,0.0,0.0,0.0,0.0,0.0,0.0,0.0,0.0,0.0,0.0,0.0,0.0,0.0,0.0,0.0,0.0,0.0,0.0,0.0,0.0,0.0,0.0,0.0,0.0,0.0,0.0,0.0,0.0,0.0,0.0,0.0,0.0,0.0,0.0,0.0,0.0,0.0,0.0,0.0,0.0,0.0,0.0,0.0,0.0,0.0,0.0,0.0,0.0,0.0,0.0,0.0,0.0,0.0,0.0,0.0,0.0,0.0,0.0,0.0,0.0,0.0,0.0,0.0,0.0,0.0,0.0,0.0,0.0,0.0,0.0,0.0,0.0,0.0,0.0,0.0,0.0,0.0,0.0,0.0,0.0,0.0,0.0,0.0,0.0,0.0,0.0,0.0,0.0,0.0,0.0,0.0,0.0,0.0,0.0,0.0,0.0,0.0,0.0,0.0,0.0,0.0,0.0,0.0,0.0,0.0,0.0,0.0,0.0,0.0,0.0,0.0,0.0,0.0,0.0,0.0,0.0,0.0,0.0,0.0,0.0,0.0,0.0,0.0,0.0,0.0,0.0,0.0,0.0,0.0,0.0,0.0,0.0,0.0,0.0,0.0,0.0,0.0,0.0,0.0,0.0,0.0,0.0,0.0,0.0,0.0,0.0,0.0,0.0,0.0,0.0,0.0,0.0,0.0,0.0,0.0,0.0,0.0,0.0,0.0,0.0,0.0,0.0,0.0,0.0,0.0,0.0,0.0,0.0,0.0,0.0,0.0,0.0,0.0,0.0,0.0,0.0,0.0,0.0,0.0,0.0,0.0,0.0,0.0,0.0,0.0,0.0,0.0,0.0,0.0,0.0,0.0,0.0,0.0,0.0,0.0,0.0,0.0,0.0,0.0,0.0,0.0,0.0,0.0,0.0,0.0,0.0,0.0,0.0,0.0,0.0,0.0,0.0,0.0,0.0,0.0,0.0,0.0,0.0,0.0,0.0,0.0,0.0,0.0,0.0,0.0,0.0,0.0,0.0,0.0,0.0,0.0,0.0,0.0,0.0,0.0,0.0,0.0,0.0,0.0,0.0,0.0,0.0,0.0,0.0,0.0,0.0,0.0,0.0,0.0,0.0,0.0,0.0,0.0,0.0,0.0,0.0,0.0,0.0,0.0,0.0,0.0,0.0,0.0,0.0,0.0,0.0,0.0,0.0,0.0,0.0,0.0,0.0,0.0,0.0,0.0,0.0,0.0,0.0,0.0,0.0,0.0,0.0,0.0,0.0,0.0,0.0,0.0,0.0,0.0,0.0,0.0,0.0,0.0,0.0,0.0,0.0,0.0,0.0,0.0,0.0,0.0,0.0,0.0,0.0,0.0,0.0,0.0,0.0,0.0,0.0,0.0,0.0,0.0,0.0,0.0,0.0,0.0,0.0,0.0,0.0,0.0,0.0,0.0,0.0,0.0,0.0,0.0,0.0,0.0,0.0,0.0,0.0,0.0,0.0,0.0,0.0,0.0,0.0,0.0,0.0,0.0,0.0,0.0,0.0,0.0,0.0,0.0,0.0,0.0,0.0,0.0,0.0,0.0,0.0,0.0,0.0,0.0,0.0,0.0,0.0,0.0,0.0,0.0,0.0,0.0,0.0,0.0,0.0,0.0,0.0,0.0,0.0,0.0,0.0,0.0,0.0,0.0,0.0,0.0,0.0,0.0,0.0,0.0,0.0,0.0,0.0,0.0,0.0,0.0,0.0,0.0,0.0,0.0,0.0,0.0,0.0,0.0,0.0,0.0,0.0,0.0,0.0,0.0,0.0,0.0,0.0,0.0,0.0,0.0,0.0,0.0,0.0,0.0,0.0,0.0,0.0,0.0,0.0,0.0,0.0,0.0,0.0,0.0,0.0,0.0,0.0,0.0,0.0,0.0,0.0,0.0,0.0,0.0,0.0,0.0,0.0,0.0,0.0,0.0,0.0,0.0,0.0,0.0,0.0,0.0,0.0,0.0,0.0,0.0,0.0,0.0,0.0,0.0,0.0,0.0,0.0,0.0,0.0,0.0,0.0,0.0,0.0,0.0,0.0,0.0,0.0,0.0,0.0,0.0,0.0,0.0,0.0,0.0,0.0,0.0,0.0,0.0,0.0,0.0,0.0,0.0,0.0,0.0,0.0,0.0,0.0,0.0,0.0,0.0,0.0,0.0,0.0,0.0,0.0,0.0,0.0,0.0,0.0,0.0,0.0,0.0,0.0,0.0,0.0,0.0,0.0,0.0,0.0,0.0,0.0,0.0,0.0,0.0,0.0,0.0,0.0,0.0,0.0,0.0,0.0,0.0,0.0,0.0,0.0,0.0,0.0,0.0,0.0,0.0,0.0,0.0,0.0,0.0,0.0,0.0,0.0,0.0,0.0,0.0,0.0,0.0,0.0,0.0,0.0,0.0,0.0,0.0,0.0,0.0,0.0,0.0,0.0,0.0,0.0,0.0,0.0,0.0,0.0,0.0,0.0,0.0,0.0,0.0,0.0,0.0,0.0,0.0,0.0,0.0,0.0,0.0,0.0,0.0,0.0,0.0,0.0,0.0,0.0,0.0,0.0,0.0,0.0,0.0,0.0,0.0,0.0,0.0,0.0,0.0,0.0,0.0,0.0,0.0,0.0,0.0,0.0,0.0,0.0,0.0,0.0,0.0,0.0,0.0,0.0,0.0,0.0,0.0,0.0,0.0,0.0,0.0,0.0,0.0,0.0,0.0,0.0,0.0,0.0,0.0,0.0,0.0,0.0,0.0,0.0,0.0,0.0,0.0,0.0,0.0,0.0,0.0,0.0,0.0,0.0,0.0,0.0,0.0,0.0,0.0,0.0,0.0,0.0,0.0,0.0,0.0,0.0,0.0,0.0,0.0,0.0,0.0,0.0,0.0,0.0,0.0,0.0,0.0,0.0,0.0,0.0,0.0,0.0,0.0,0.0,0.0,0.0,0.0,0.0,0.0,0.0,0.0,0.0,0.0,0.0,0.0,0.0,0.0,0.0,0.0,0.0,0.0,0.0,0.0,0.0,0.0,0.0,0.0,0.0,0.0,0.0,0.0,0.0,0.0,0.0,0.0,0.0,0.0,0.0,0.0,0.0,0.0,0.0,0.0,0.0,0.0,0.0,0.0,0.0,0.0,0.0,0.0,0.0,0.0,0.0,0.0,0.0,0.0,0.0,0.0,0.0,0.0,0.0,0.0,0.0,0.0,0.0,0.0,0.0,0.0,0.0,0.0,0.0,0.0,0.0,0.0,0.0,0.0,0.0,0.0,0.0,0.0,0.0,0.0,0.0,0.0,0.0,0.0,0.0,0.0,0.0,0.0,0.0,0.0,0.0,0.0,0.0,0.0,0.0,0.0,0.0,0.0,0.0,0.0,0.0,0.0,0.0,0.0,0.0,0.0,0.0,0.0,0.0,0.0,0.0,0.0,0.0,0.0,0.0,0.0,0.0,0.0,0.0,0.0,0.0,0.0,0.0,0.0,0.0,0.0,0.0,0.0,0.0,0.0,0.0,0.0,0.0,0.0,0.0,0.0,0.0,0.0,0.0,0.0,0.0,0.0,0.0,0.0,0.0,0.0,0.0,0.0,0.0,0.0,0.0,0.0,0.0,0.0,0.0,0.0,0.0,0.0,0.0,0.0,0.0,0.0,0.0,0.0,0.0,0.0,0.0,0.0,0.0,0.0,0.0,0.0,0.0,0.0,0.0,0.0,0.0,0.0,0.0,0.0,0.0,0.0,0.0,0.0,0.0,0.0,0.0,0.0,0.0,0.0,0.0,0.0,0.0,0.0,0.0,0.0,0.0,0.0,0.0,0.0,0.0,0.0,0.0,0.0,0.0,0.0,0.0,0.0,0.0,0.0,0.0,0.0,0.0,0.0,0.0,0.0,0.0,0.0,0.0,0.0,0.0,0.0,0.0,0.0,0.0,0.0,0.0,0.0,0.0,0.0,0.0,0.0,0.0,0.0,0.0,0.0,0.0,0.0,0.0,0.0,0.0,0.0,0.0,0.0,0.0,0.0,0.0,0.0,0.0,0.0,0.0,0.0,-5.0153,0.0,0.0,0.0,0.0,0.0,0.0,0.0,0.0,0.0,0.0,0.0,0.0,0.0,0.0,0.0,0.0,0.0,0.0,0.0,0.0,0.0,0.0,0.0,0.0,0.0,0.0,0.0,0.0,0.0,0.0,0.0,0.0,0.0,0.0,0.0,0.0,0.0,0.0,0.0,0.0,0.0,0.0,0.0,0.0,0.0,0.0,0.0,0.0,0.0,0.0,0.0,0.0,0.0,0.0,0.0,0.0,0.0,0.0,0.0,0.0,0.0,0.0,0.0,0.0,0.0,0.0,0.0,0.0,0.0,0.0,0.0,0.0,0.0,0.0,0.0,0.0,0.0,0.0,0.0,0.0,0.0,0.0,0.0,0.0,0.0,0.0,0.0,0.0,0.0,0.0,0.0,0.0,0.0,0.0,0.0,0.0,0.0,0.0,0.0,0.0,0.0,0.0,0.0,0.0,0.0,0.0,0.0,0.0,0.0,0.0,-5.0302,-5.0302,-5.0302,-5.0302,-5.0302,0.0,0.0,0.0,0.0,0.0,0.0,0.0,0.0,0.0,0.0,0.0,0.0,0.0,0.0,0.0,0.0,0.0,0.0,0.0,0.0,0.0,0.0,0.0,0.0,0.0,0.0,0.0,0.0,0.0,0.0,0.0,0.0,0.0,0.0,0.0,0.0,0.0,0.0,0.0,0.0,0.0,0.0,0.0,0.0,0.0,0.0,0.0,0.0,0.0,0.0,0.0,0.0,0.0,0.0,0.0,0.0,0.0,0.0,0.0,0.0,0.0,0.0,0.0,0.0,0.0,0.0,0.0,0.0,0.0,0.0,0.0,0.0,0.0,0.0,0.0,0.0,0.0,0.0,0.0,0.0,0.0,0.0,0.0,0.0,0.0,0.0,0.0,0.0,0.0,0.0,0.0,0.0,0.0,0.0,0.0,0.0,0.0,0.0,0.0,0.0,0.0,0.0,0.0,0.0,0.0,0.0,0.0,0.0,0.0,0.0,0.0,0.0,-5.0302,-5.0302,-5.0302,0.0,0.0,0.0,0.0,0.0,0.0,0.0,0.0,0.0,0.0,0.0,0.0,0.0,0.0,0.0,0.0,0.0,0.0,0.0,0.0,0.0,0.0,0.0,0.0,0.0,0.0,0.0,0.0,0.0,0.0,0.0,0.0,0.0,0.0,0.0,0.0,0.0,0.0,0.0,0.0,0.0,0.0,0.0,0.0,0.0,0.0,0.0,0.0,0.0,0.0,0.0,0.0,0.0,0.0,0.0,0.0,0.0,0.0,0.0,0.0,0.0,0.0,0.0,0.0,0.0,0.0,0.0,0.0,0.0,0.0,0.0,0.0,0.0,0.0,0.0,0.0,0.0,0.0,0.0,0.0,0.0,0.0,0.0,0.0,0.0,0.0,0.0,0.0,0.0,0.0,0.0,0.0,0.0,0.0,0.0,0.0,0.0,0.0,0.0,0.0,0.0,0.0,0.0,0.0,0.0,0.0,0.0,0.0,0.0,0.0,-5.0302,-5.0302,-5.0302,0.0,-5.0302,0.0,0.0,0.0,0.0,0.0,0.0,0.0,0.0,0.0,0.0,0.0,0.0,0.0,0.0,0.0,0.0,0.0,0.0,0.0,0.0,0.0,0.0,0.0,0.0,0.0,0.0,0.0,0.0,0.0,0.0,0.0,0.0,0.0,0.0,0.0,0.0,0.0,0.0,0.0,0.0,0.0,0.0,0.0,0.0,0.0,0.0,0.0,0.0,0.0,0.0,0.0,0.0,0.0,0.0,0.0,0.0,0.0,0.0,0.0,0.0,0.0,0.0,0.0,0.0,0.0,0.0,0.0,0.0,0.0,0.0,0.0,0.0,0.0,0.0,0.0,0.0,0.0,0.0,0.0,0.0,0.0,0.0,0.0,0.0,0.0,0.0,0.0,0.0,0.0,0.0,0.0,0.0,0.0,0.0,0.0,0.0,0.0,0.0,0.0,0.0,0.0,0.0,0.0,0.0,0.0,0.0,0.0,0.0,0.0,0.0,-5.0267,-5.0302,-5.0302,-5.0302,0.0,0.0,0.0,0.0,0.0,0.0,0.0,0.0,0.0,0.0,0.0,0.0,0.0,0.0,0.0,0.0,0.0,0.0,0.0,0.0,0.0,0.0,0.0,0.0,0.0,0.0,0.0,0.0,0.0,0.0,0.0,0.0,0.0,0.0,0.0,0.0,0.0,0.0,0.0,0.0,0.0,0.0,0.0,0.0,0.0,0.0,0.0,0.0,0.0,0.0,0.0,0.0,0.0,0.0,0.0,0.0,0.0,0.0,0.0,0.0,0.0,0.0,0.0,0.0,0.0,0.0,0.0,0.0,0.0,0.0,0.0,0.0,0.0,0.0,0.0,0.0,0.0,0.0,0.0,0.0,0.0,0.0,0.0,0.0,0.0,0.0,0.0,0.0,0.0,0.0,0.0,0.0,0.0,0.0,0.0,0.0,0.0,0.0,0.0,0.0,0.0,0.0,0.0,0.0,0.0,0.0,0.0,0.0,0.0,0.0,-5.0151,-5.0243,-5.029,-5.0302,-5.0302,-5.0302,0.0,0.0,0.0,0.0,0.0,0.0,0.0,0.0,0.0,0.0,0.0,0.0,0.0,0.0,0.0,0.0,0.0,0.0,0.0,0.0,0.0,0.0,0.0,0.0,0.0,0.0,0.0,0.0,0.0,0.0,0.0,0.0,0.0,0.0,0.0,0.0,0.0,0.0,0.0,0.0,0.0,0.0,0.0,0.0,0.0,0.0,0.0,0.0,0.0,0.0,0.0,0.0,0.0,0.0,0.0,0.0,0.0,0.0,0.0,0.0,0.0,0.0,0.0,0.0,0.0,0.0,0.0,0.0,0.0,0.0,0.0,0.0,0.0,0.0,0.0,0.0,0.0,0.0,0.0,0.0,0.0,0.0,0.0,0.0,0.0,0.0,0.0,0.0,0.0,0.0,0.0,0.0,0.0,0.0,0.0,0.0,0.0,0.0,0.0,0.0,0.0,0.0,0.0,0.0,0.0,0.0,0.0,0.0,-5.0095,-5.017,-5.0243,-5.029,-5.0302,-5.0302,0.0,0.0,0.0,0.0,0.0,0.0,0.0,0.0,0.0,0.0,0.0,0.0,0.0,0.0,0.0,0.0,0.0,0.0,0.0,0.0,0.0,0.0,0.0,0.0,0.0,0.0,0.0,0.0,0.0,0.0,0.0,0.0,0.0,0.0,0.0,0.0,0.0,0.0,0.0,0.0,0.0,0.0,0.0,0.0,0.0,0.0,0.0,0.0,0.0,0.0,0.0,0.0,0.0,0.0,0.0,0.0,0.0,0.0,0.0,0.0,0.0,0.0,0.0,0.0,0.0,0.0,0.0,0.0,0.0,0.0,0.0,0.0,0.0,0.0,0.0,0.0,0.0,0.0,0.0,0.0,0.0,0.0,0.0,0.0,0.0,0.0,0.0,0.0,0.0,0.0,0.0,0.0,0.0,0.0,0.0,0.0,0.0,0.0,0.0,0.0,0.0,0.0,0.0,0.0,0.0,0.0,0.0,0.0,0.0,-5.0095,-5.0219,-5.0278,-5.0302,-5.0302,-5.0302,0.0,0.0,0.0,0.0,0.0,0.0,0.0,0.0,0.0,0.0,0.0,0.0,0.0,0.0,0.0,0.0,0.0,0.0,0.0,0.0,0.0,0.0,0.0,0.0,0.0,0.0,0.0,0.0,0.0,0.0,0.0,0.0,0.0,0.0,0.0,0.0,0.0,0.0,0.0,0.0,0.0,0.0,0.0,0.0,0.0,0.0,0.0,0.0,0.0,0.0,0.0,0.0,0.0,0.0,0.0,0.0,0.0,0.0,0.0,0.0,0.0,0.0,0.0,0.0,0.0,0.0,0.0,0.0,0.0,0.0,0.0,0.0,0.0,0.0,0.0,0.0,0.0,0.0,0.0,0.0,0.0,0.0,0.0,0.0,0.0,0.0,0.0,0.0,0.0,0.0,0.0,0.0,0.0,0.0,0.0,0.0,0.0,0.0,0.0,0.0,0.0,0.0,0.0,0.0,0.0,0.0,0.0,0.0,0.0,-5.0095,0.0,-5.0259,-5.0302,-5.0302,-5.0302,0.0,0.0,0.0,0.0,0.0,0.0,0.0,0.0,0.0,0.0,0.0,0.0,0.0,0.0,0.0,0.0,0.0,0.0,0.0,0.0,0.0,0.0,0.0,0.0,0.0,0.0,0.0,0.0,0.0,0.0,0.0,0.0,0.0,0.0,0.0,0.0,0.0,0.0,0.0,0.0,0.0,0.0,0.0,0.0,0.0,0.0,0.0,0.0,0.0,0.0,0.0,0.0,0.0,0.0,0.0,0.0,0.0,0.0,0.0,0.0,0.0,0.0,0.0,0.0,0.0,0.0,0.0,0.0,0.0,0.0,0.0,0.0,0.0,0.0,0.0,0.0,0.0,0.0,0.0,0.0,0.0,0.0,0.0,0.0,0.0,0.0,0.0,0.0,0.0,0.0,0.0,0.0,0.0,0.0,0.0,0.0,0.0,0.0,0.0,0.0,0.0,0.0,0.0,0.0,0.0,0.0,0.0,0.0,-4.9867,-5.0095,-5.017,-5.0224,-5.029,-5.0302,-5.0302,0.0,0.0,0.0,0.0,0.0,0.0,0.0,0.0,0.0,0.0,0.0,0.0,0.0,0.0,0.0,0.0,0.0,0.0,0.0,0.0,0.0,0.0,0.0,0.0,0.0,0.0,0.0,0.0,0.0,0.0,0.0,0.0,0.0,0.0,0.0,0.0,0.0,0.0,0.0,0.0,0.0,0.0,0.0,0.0,0.0,0.0,0.0,0.0,0.0,0.0,0.0,0.0,0.0,0.0,0.0,0.0,0.0,0.0,0.0,0.0,0.0,0.0,0.0,0.0,0.0,0.0,0.0,0.0,0.0,0.0,0.0,0.0,0.0,0.0,0.0,0.0,0.0,0.0,0.0,0.0,0.0,0.0,0.0,0.0,0.0,0.0,0.0,0.0,0.0,0.0,0.0,0.0,0.0,0.0,0.0,0.0,0.0,0.0,0.0,0.0,0.0,0.0,0.0,0.0,0.0,0.0,0.0,0.0,0.0,-5.0114,-5.0151,-5.0243,-5.029,-5.0302,-5.0302,0.0,0.0,0.0,0.0,0.0,0.0,0.0,0.0,0.0,0.0,0.0,0.0,0.0,0.0,0.0,0.0,0.0,0.0,0.0,0.0,0.0,0.0,0.0,0.0,0.0,0.0,0.0,0.0,0.0,0.0,0.0,0.0,0.0,0.0,0.0,0.0,0.0,0.0,0.0,0.0,0.0,0.0,0.0,0.0,0.0,0.0,0.0,0.0,0.0,0.0,0.0,0.0,0.0,0.0,0.0,0.0,0.0,0.0,0.0,0.0,0.0,0.0,0.0,0.0,0.0,0.0,0.0,0.0,0.0,0.0,0.0,0.0,0.0,0.0,0.0,0.0,0.0,0.0,0.0,0.0,0.0,0.0,0.0,0.0,0.0,0.0,0.0,0.0,0.0,0.0,0.0,0.0,0.0,0.0,0.0,0.0,0.0,0.0,0.0,0.0,0.0,0.0,0.0,0.0,0.0,0.0,0.0,0.0,0.0,-5.1059,-5.1072,-5.1134,-5.1238,-5.1238,-5.1104,-5.0799,0.0,0.0,0.0,0.0,0.0,0.0,0.0,0.0,0.0,0.0,0.0,0.0,0.0,0.0,0.0,0.0,0.0,0.0,0.0,0.0,0.0,0.0,0.0,0.0,0.0,0.0,0.0,0.0,0.0,0.0,0.0,0.0,0.0,0.0,0.0,0.0,0.0,0.0,0.0,0.0,0.0,0.0,0.0,0.0,0.0,0.0,0.0,0.0,0.0,0.0,0.0,0.0,0.0,0.0,0.0,0.0,0.0,0.0,0.0,0.0,0.0,0.0,0.0,0.0,0.0,0.0,0.0,0.0,0.0,0.0,0.0,0.0,0.0,0.0,0.0,0.0,0.0,0.0,0.0,0.0,0.0,0.0,0.0,0.0,0.0,0.0,0.0,0.0,0.0,0.0,0.0,0.0,0.0,0.0,0.0,0.0,0.0,0.0,0.0,0.0,0.0,0.0,0.0,0.0,0.0,0.0,0.0,0.0,-5.269,-5.2709,-5.2755,-5.2766,-5.2766,-5.2442,0.0,0.0,0.0,0.0,0.0,0.0,0.0,0.0,0.0,0.0,0.0,0.0,0.0,0.0,0.0,0.0,0.0,0.0,0.0,0.0,0.0,0.0,0.0,0.0,0.0,0.0,0.0,0.0,0.0,0.0,0.0,0.0,0.0,0.0,0.0,0.0,0.0,0.0,0.0,0.0,0.0,0.0,0.0,0.0,0.0,0.0,0.0,0.0,0.0,0.0,0.0,0.0,0.0,0.0,0.0,0.0,0.0,0.0,0.0,0.0,0.0,0.0,0.0,0.0,0.0,0.0,0.0,0.0,0.0,0.0,0.0,0.0,0.0,0.0,0.0,0.0,0.0,0.0,0.0,0.0,0.0,0.0,0.0,0.0,0.0,0.0,0.0,0.0,0.0,0.0,0.0,0.0,0.0,0.0,0.0,0.0,0.0,0.0,0.0,0.0,0.0,0.0,0.0,0.0,0.0,0.0,0.0,0.0,0.0,-5.3604,-5.419,-5.397,-5.2843,-5.2785,-5.269,0.0,0.0,0.0,0.0,0.0,0.0,0.0,0.0,0.0,0.0,0.0,0.0,0.0,0.0,0.0,0.0,0.0,0.0,0.0,0.0,0.0,0.0,0.0,0.0,0.0,0.0,0.0,0.0,0.0,0.0,0.0,0.0,0.0,0.0,0.0,0.0,0.0,0.0,0.0,0.0,0.0,0.0,0.0,0.0,0.0,0.0,0.0,0.0,0.0,0.0,0.0,0.0,0.0,0.0,0.0,0.0,0.0,0.0,0.0,0.0,0.0,0.0,0.0,0.0,0.0,0.0,0.0,0.0,0.0,0.0,0.0,0.0,0.0,0.0,0.0,0.0,0.0,0.0,0.0,0.0,0.0,0.0,0.0,0.0,0.0,0.0,0.0,0.0,0.0,0.0,0.0,0.0,0.0,0.0,0.0,0.0,0.0,0.0,0.0,0.0,0.0,0.0,0.0,0.0,0.0,0.0,0.0,0.0,-5.4557,-5.4955,-5.5508,-5.5517,-5.4944,-5.4256,-5.3709,0.0,0.0,0.0,0.0,0.0,0.0,0.0,0.0,0.0,0.0,0.0,0.0,0.0,0.0,0.0,0.0,0.0,0.0,0.0,0.0,0.0,0.0,0.0,0.0,0.0,0.0,0.0,0.0,0.0,0.0,0.0,0.0,0.0,0.0,0.0,0.0,0.0,0.0,0.0,0.0,0.0,0.0,0.0,0.0,0.0,0.0,0.0,0.0,0.0,0.0,0.0,0.0,0.0,0.0,0.0,0.0,0.0,0.0,0.0,0.0,0.0,0.0,0.0,0.0,0.0,0.0,0.0,0.0,0.0,0.0,0.0,0.0,0.0,0.0,0.0,0.0,0.0,0.0,0.0,0.0,0.0,0.0,0.0,0.0,0.0,0.0,0.0,0.0,0.0,0.0,0.0,0.0,0.0,0.0,0.0,0.0,0.0,0.0,0.0,0.0,0.0,0.0,0.0,0.0,0.0,0.0,0.0,0.0,-5.5607,-5.6402,-5.6616,-5.7084,-5.781,-5.6358,-5.5135,0.0,0.0,0.0,0.0,0.0,0.0,0.0,0.0,0.0,0.0,0.0,0.0,0.0,0.0,0.0,0.0,0.0,0.0,0.0,0.0,0.0,0.0,0.0,0.0,0.0,0.0,0.0,0.0,0.0,0.0,0.0,0.0,0.0,0.0,0.0,0.0,0.0,0.0,0.0,0.0,0.0,0.0,0.0,0.0,0.0,0.0,0.0,0.0,0.0,0.0,0.0,0.0,0.0,0.0,0.0,0.0,0.0,0.0,0.0,0.0,0.0,0.0,0.0,0.0,0.0,0.0,0.0,0.0,0.0,0.0,0.0,0.0,0.0,0.0,0.0,0.0,0.0,0.0,0.0,0.0,0.0,0.0,0.0,0.0,0.0,0.0,0.0,0.0,0.0,0.0,0.0,0.0,0.0,0.0,0.0,0.0,0.0,0.0,0.0,0.0,0.0,0.0,0.0,0.0,0.0,0.0,0.0,0.0,-5.6245,-5.6466,-5.7235,-5.7714,-5.7886,-5.6893,-5.6217,0.0,0.0,0.0,0.0,0.0,0.0,0.0,0.0,0.0,0.0,0.0,0.0,0.0,0.0,0.0,0.0,0.0,0.0,0.0,0.0,0.0,0.0,0.0,0.0,0.0,0.0,0.0,0.0,0.0,0.0,0.0,0.0,0.0,0.0,0.0,0.0,0.0,0.0,0.0,0.0,0.0,0.0,0.0,0.0,0.0,0.0,0.0,0.0,-5.6311,0.0,0.0,0.0,0.0,0.0,0.0,0.0,0.0,0.0,0.0,0.0,0.0,0.0,0.0,0.0,0.0,0.0,0.0,0.0,0.0,0.0,0.0,0.0,0.0,0.0,0.0,0.0,0.0,0.0,0.0,0.0,0.0,0.0,0.0,0.0,0.0,0.0,0.0,0.0,0.0,0.0,0.0,0.0,0.0,0.0,0.0,0.0,0.0,0.0,0.0,0.0,0.0,0.0,0.0,0.0,0.0,0.0,0.0,0.0,-5.6634,-5.7145,-5.8033,-5.8704,-5.9049,-5.7901,-5.7013,0.0,0.0,0.0,0.0,0.0,0.0,0.0,0.0,0.0,0.0,0.0,0.0,0.0,0.0,0.0,0.0,0.0,0.0,0.0,0.0,0.0,0.0,0.0,0.0,0.0,0.0,0.0,0.0,0.0,0.0,0.0,0.0,0.0,0.0,0.0,0.0,0.0,0.0,0.0,0.0,0.0,0.0,0.0,0.0,0.0,0.0,0.0,0.0,0.0,0.0,0.0,0.0,0.0,0.0,0.0,0.0,0.0,0.0,0.0,0.0,0.0,0.0,0.0,0.0,0.0,0.0,0.0,0.0,0.0,0.0,0.0,0.0,0.0,0.0,0.0,0.0,0.0,0.0,0.0,0.0,0.0,0.0,0.0,0.0,0.0,0.0,0.0,0.0,0.0,0.0,0.0,0.0,0.0,0.0,0.0,0.0,0.0,0.0,0.0,0.0,0.0,0.0,0.0,0.0,0.0,0.0,0.0,-5.6025,-5.7082,-5.8072,-5.8941,-5.9766,-6.046,-5.8872,-5.7556,-5.6611,0.0,0.0,0.0,0.0,0.0,0.0,0.0,0.0,0.0,0.0,0.0,0.0,0.0,0.0,0.0,0.0,0.0,0.0,0.0,0.0,0.0,0.0,0.0,0.0,0.0,0.0,0.0,0.0,0.0,0.0,0.0,0.0,0.0,0.0,0.0,0.0,0.0,0.0,-5.3776,-5.4621,0.0,0.0,0.0,0.0,0.0,0.0,0.0,0.0,-5.6406,0.0,0.0,0.0,0.0,0.0,0.0,0.0,0.0,0.0,0.0,0.0,0.0,0.0,0.0,0.0,0.0,0.0,0.0,0.0,0.0,0.0,0.0,0.0,0.0,0.0,0.0,0.0,0.0,0.0,0.0,0.0,0.0,0.0,0.0,0.0,0.0,0.0,0.0,0.0,0.0,0.0,0.0,0.0,0.0,0.0,0.0,0.0,0.0,0.0,0.0,0.0,0.0,0.0,0.0,0.0,0.0,-5.5887,-5.6905,-5.791,-5.8974,-5.9848,-6.0346,-6.0441,-5.8891,-5.7791,-5.7354,0.0,0.0,0.0,0.0,0.0,0.0,0.0,0.0,0.0,0.0,0.0,0.0,0.0,0.0,0.0,0.0,0.0,0.0,0.0,0.0,0.0,0.0,0.0,0.0,0.0,0.0,0.0,0.0,0.0,0.0,0.0,0.0,0.0,0.0,0.0,0.0,0.0,0.0,0.0,-5.5488,-5.6149,0.0,0.0,0.0,0.0,0.0,0.0,0.0,0.0,-5.6406,0.0,0.0,0.0,0.0,0.0,0.0,0.0,0.0,0.0,0.0,0.0,0.0,0.0,0.0,0.0,0.0,0.0,0.0,0.0,0.0,0.0,0.0,0.0,0.0,0.0,0.0,0.0,0.0,0.0,0.0,0.0,0.0,0.0,0.0,0.0,0.0,0.0,0.0,0.0,0.0,0.0,0.0,0.0,0.0,0.0,0.0,0.0,0.0,0.0,0.0,0.0,0.0,0.0,0.0,0.0,-5.6091,-5.712,-5.8189,-5.923,-6.0131,-6.0591,-6.0533,-5.9326,-5.8328,0.0,0.0,0.0,0.0,0.0,0.0,0.0,0.0,0.0,0.0,0.0,0.0,0.0,0.0,0.0,0.0,0.0,0.0,0.0,0.0,0.0,0.0,0.0,0.0,0.0,0.0,0.0,0.0,0.0,0.0,0.0,0.0,0.0,0.0,0.0,0.0,0.0,0.0,0.0,0.0,-5.6,-5.6303,-5.6302,0.0,0.0,0.0,0.0,0.0,0.0,-5.6455,-5.6446,0.0,0.0,0.0,0.0,0.0,0.0,0.0,0.0,0.0,0.0,0.0,0.0,0.0,0.0,0.0,0.0,0.0,0.0,0.0,0.0,0.0,0.0,0.0,0.0,0.0,0.0,0.0,0.0,0.0,0.0,0.0,0.0,0.0,0.0,0.0,0.0,0.0,0.0,0.0,0.0,0.0,0.0,0.0,0.0,0.0,0.0,0.0,0.0,0.0,0.0,0.0,0.0,0.0,0.0,0.0,-5.6338,-5.7239,-5.8301,-5.953,-6.0315,-6.068,-6.0585,-5.9588,-5.8597,0.0,0.0,0.0,0.0,0.0,0.0,0.0,0.0,0.0,0.0,0.0,0.0,0.0,0.0,0.0,0.0,0.0,0.0,0.0,0.0,0.0,0.0,0.0,0.0,0.0,0.0,0.0,0.0,0.0,0.0,0.0,0.0,0.0,0.0,0.0,0.0,0.0,0.0,0.0,0.0,0.0,-5.6308,-5.6314,-5.6517,0.0,0.0,0.0,0.0,-5.6771,-5.6764,0.0,0.0,0.0,0.0,0.0,0.0,0.0,0.0,0.0,0.0,0.0,0.0,0.0,0.0,0.0,0.0,0.0,0.0,0.0,0.0,0.0,0.0,0.0,0.0,0.0,0.0,0.0,0.0,0.0,0.0,0.0,0.0,0.0,0.0,0.0,0.0,0.0,0.0,0.0,0.0,0.0,0.0,0.0,0.0,0.0,0.0,0.0,0.0,0.0,0.0,0.0,0.0,0.0,0.0,0.0,0.0,-5.7187,-5.7525,-5.8607,-6.0342,-6.0622,-6.068,-6.0585,-5.9063,-5.8036,0.0,0.0,0.0,0.0,0.0,0.0,0.0,0.0,0.0,0.0,0.0,0.0,0.0,0.0,0.0,0.0,0.0,0.0,0.0,0.0,0.0,0.0,0.0,0.0,0.0,0.0,0.0,0.0,0.0,0.0,0.0,0.0,0.0,0.0,0.0,0.0,0.0,0.0,0.0,0.0,0.0,-5.6333,-5.6381,-5.7055,-5.7559,0.0,0.0,-5.8529,-5.7753,-5.7655,0.0,0.0,0.0,0.0,0.0,0.0,0.0,0.0,0.0,0.0,0.0,0.0,0.0,0.0,0.0,0.0,0.0,0.0,0.0,0.0,0.0,0.0,0.0,0.0,0.0,0.0,0.0,0.0,0.0,0.0,0.0,0.0,0.0,0.0,0.0,0.0,0.0,0.0,0.0,0.0,0.0,0.0,0.0,0.0,0.0,0.0,0.0,0.0,0.0,0.0,0.0,0.0,0.0,0.0,0.0,-5.5596,-5.7339,-5.7663,-5.8704,-6.0527,-6.0704,-6.0717,-6.0604,-5.9409,-5.8419,0.0,0.0,0.0,0.0,0.0,0.0,0.0,0.0,0.0,0.0,0.0,0.0,0.0,0.0,0.0,0.0,0.0,0.0,0.0,0.0,0.0,0.0,0.0,0.0,0.0,0.0,0.0,0.0,0.0,0.0,0.0,0.0,0.0,0.0,0.0,0.0,0.0,0.0,0.0,0.0,0.0,0.0,-5.7054,-5.7487,0.0,0.0,0.0,-5.8958,-5.8601,0.0,0.0,0.0,0.0,0.0,0.0,0.0,0.0,0.0,0.0,0.0,0.0,0.0,0.0,0.0,0.0,0.0,0.0,0.0,0.0,0.0,0.0,0.0,0.0,0.0,0.0,0.0,0.0,0.0,0.0,0.0,0.0,0.0,0.0,0.0,0.0,0.0,0.0,0.0,0.0,0.0,0.0,0.0,0.0,0.0,0.0,0.0,0.0,0.0,0.0,0.0,0.0,0.0,0.0,0.0,0.0,0.0,-5.7389,-5.7753,-5.8795,-6.0527,-6.0722,-6.0734,-6.061,-5.9581,0.0,0.0,0.0,0.0,0.0,0.0,0.0,0.0,0.0,0.0,0.0,0.0,0.0,0.0,0.0,0.0,0.0,0.0,0.0,0.0,0.0,0.0,0.0,0.0,0.0,0.0,0.0,-5.5573,0.0,0.0,0.0,0.0,0.0,0.0,0.0,0.0,0.0,0.0,0.0,0.0,0.0,0.0,-5.6947,-5.7605,-5.8137,-5.8669,0.0,0.0,-5.9663,-5.9462,-5.8868,-5.8367,0.0,0.0,0.0,0.0,0.0,0.0,0.0,0.0,0.0,0.0,0.0,0.0,0.0,0.0,0.0,0.0,0.0,0.0,0.0,0.0,0.0,0.0,0.0,0.0,0.0,0.0,0.0,0.0,0.0,0.0,0.0,0.0,0.0,0.0,0.0,0.0,0.0,0.0,0.0,0.0,0.0,0.0,0.0,0.0,0.0,0.0,0.0,0.0,0.0,0.0,0.0,0.0,0.0,0.0,0.0,-5.7445,-5.7821,-5.8834,-6.0527,-6.0729,-6.0757,-6.0666,-5.9062,-5.8055,0.0,0.0,0.0,0.0,0.0,0.0,0.0,0.0,0.0,0.0,0.0,0.0,0.0,0.0,0.0,0.0,0.0,0.0,0.0,0.0,0.0,0.0,0.0,0.0,0.0,0.0,0.0,0.0,0.0,0.0,0.0,0.0,0.0,0.0,0.0,0.0,0.0,0.0,0.0,0.0,0.0,-5.7575,-5.7687,-5.9155,-6.0243,0.0,0.0,-6.1252,-6.044,-6.0257,-5.9937,-5.9148,0.0,0.0,0.0,0.0,0.0,0.0,0.0,0.0,0.0,0.0,0.0,0.0,0.0,0.0,0.0,0.0,0.0,0.0,0.0,0.0,0.0,0.0,0.0,0.0,0.0,0.0,0.0,0.0,0.0,0.0,0.0,0.0,0.0,0.0,0.0,0.0,0.0,0.0,0.0,0.0,0.0,0.0,0.0,0.0,0.0,0.0,0.0,0.0,0.0,0.0,0.0,0.0,0.0,-5.5443,-5.6762,-5.7573,-5.8598,-5.976,-6.0472,-6.0757,-6.0697,-5.954,-5.8566,0.0,0.0,0.0,0.0,0.0,0.0,0.0,0.0,0.0,0.0,0.0,0.0,0.0,0.0,0.0,0.0,0.0,0.0,0.0,0.0,0.0,0.0,0.0,0.0,0.0,0.0,0.0,0.0,-5.5914,-5.5961,-5.5996,0.0,0.0,0.0,0.0,0.0,0.0,0.0,0.0,0.0,0.0,-5.7858,-5.8433,-5.9593,0.0,0.0,-6.1493,-6.1596,-6.1268,-6.0758,-6.0284,-5.9966,-5.946,0.0,0.0,0.0,0.0,0.0,0.0,0.0,0.0,0.0,0.0,0.0,0.0,0.0,0.0,0.0,0.0,0.0,0.0,0.0,0.0,0.0,0.0,0.0,0.0,0.0,0.0,0.0,0.0,0.0,0.0,0.0,0.0,0.0,0.0,0.0,0.0,0.0,0.0,0.0,0.0,0.0,0.0,0.0,0.0,0.0,0.0,0.0,0.0,0.0,0.0,0.0,0.0,-5.5322,-5.6335,-5.746,-5.8457,-5.93,-6.0299,-6.0788,-6.0702,-5.9871,-5.8942,0.0,0.0,0.0,0.0,0.0,0.0,0.0,0.0,0.0,0.0,0.0,0.0,0.0,0.0,0.0,0.0,0.0,0.0,0.0,0.0,0.0,0.0,0.0,0.0,0.0,0.0,0.0,0.0,-5.5971,-5.6008,-5.6005,0.0,0.0,0.0,0.0,0.0,0.0,0.0,0.0,0.0,0.0,-5.8427,-5.9311,-6.0216,-6.1007,-6.1609,-6.1714,-6.1717,-6.1699,-6.1191,-6.0778,-6.0795,0.0,0.0,0.0,0.0,0.0,0.0,0.0,0.0,0.0,0.0,0.0,0.0,0.0,0.0,0.0,0.0,0.0,0.0,0.0,0.0,0.0,0.0,0.0,0.0,0.0,0.0,0.0,0.0,0.0,0.0,-5.33,0.0,0.0,0.0,0.0,0.0,0.0,0.0,0.0,0.0,0.0,0.0,0.0,0.0,0.0,0.0,0.0,0.0,0.0,0.0,0.0,0.0,0.0,-5.5393,-5.6369,-5.7487,-5.8469,-5.9274,-6.028,-6.0781,-6.0781,-5.9895,-5.901,-5.8124,0.0,0.0,0.0,0.0,0.0,0.0,0.0,0.0,0.0,0.0,0.0,0.0,0.0,0.0,0.0,0.0,0.0,0.0,0.0,0.0,0.0,0.0,0.0,0.0,0.0,0.0,-5.5981,-5.5999,-5.6018,0.0,0.0,0.0,0.0,0.0,0.0,0.0,0.0,0.0,0.0,-5.8383,-5.933,-6.0226,-6.1097,-6.1651,-6.1707,-6.1714,-6.1717,-6.1699,-6.1679,-6.1678,0.0,0.0,0.0,0.0,0.0,0.0,0.0,0.0,0.0,0.0,0.0,0.0,0.0,0.0,0.0,0.0,0.0,0.0,0.0,0.0,0.0,0.0,0.0,0.0,0.0,0.0,0.0,-5.3737,-5.3775,0.0,0.0,0.0,0.0,0.0,0.0,0.0,0.0,0.0,0.0,0.0,-5.588,-5.5899,0.0,0.0,0.0,0.0,0.0,0.0,0.0,0.0,0.0,0.0,0.0,0.0,-5.5137,-5.5633,-5.6671,-5.7656,-5.8556,-5.9511,-6.028,-6.0839,-6.0611,-5.9707,-5.8138,0.0,0.0,0.0,0.0,0.0,0.0,0.0,0.0,0.0,0.0,0.0,0.0,0.0,0.0,0.0,0.0,0.0,0.0,0.0,0.0,0.0,0.0,0.0,0.0,0.0,-5.5952,0.0,0.0,0.0,0.0,0.0,0.0,0.0,0.0,0.0,0.0,0.0,-5.7211,-5.7546,-5.891,-5.9989,-6.0347,-6.1154,-6.1704,0.0,0.0,0.0,0.0,0.0,0.0,0.0,0.0,0.0,0.0,0.0,0.0,0.0,0.0,-6.0876,-6.1213,-6.1238,-6.1226,-6.1249,0.0,0.0,0.0,0.0,0.0,0.0,0.0,0.0,0.0,0.0,0.0,0.0,0.0,0.0,-5.4949,0.0,-5.4931,0.0,0.0,0.0,0.0,0.0,0.0,0.0,0.0,-5.6356,-5.648,-5.7075,-5.7075,-5.6773,0.0,-5.5909,-5.5425,0.0,0.0,0.0,0.0,0.0,0.0,0.0,0.0,-5.5028,-5.5235,-5.6262,-5.7277,-5.8224,-5.9141,-6.0016,-6.0875,-6.0687,-5.9807,-5.8212,-5.6775,-5.5787,0.0,0.0,0.0,0.0,0.0,0.0,0.0,0.0,0.0,0.0,0.0,0.0,0.0,0.0,0.0,0.0,0.0,0.0,0.0,0.0,0.0,0.0,0.0,-5.6441,0.0,0.0,0.0,0.0,0.0,0.0,0.0,0.0,0.0,-5.7071,-5.7312,-5.7767,-5.8418,-5.9561,-6.0457,-6.0792,0.0,0.0,0.0,0.0,0.0,0.0,0.0,-6.1713,-6.1716,-6.1712,-6.169,-6.1672,-6.1668,-6.1641,-6.1614,0.0,0.0,-6.164,-6.1639,-6.1614,-6.166,-6.1603,-6.1562,-6.1566,-6.1529,-6.1502,0.0,0.0,0.0,0.0,0.0,0.0,0.0,0.0,-5.7081,-5.7031,0.0,-5.6966,0.0,0.0,0.0,0.0,0.0,-5.6966,0.0,0.0,-5.7375,-5.7453,-5.7525,-5.7544,-5.7487,-5.7411,-5.6615,-5.6163,-5.6034,-5.5002,0.0,0.0,0.0,0.0,0.0,0.0,-5.5085,-5.5235,-5.6224,-5.7243,-5.8215,-5.9059,-5.998,-6.0882,-6.0082,-5.9193,-5.8331,-5.7454,-5.6571,-5.5566,-5.5516,0.0,0.0,0.0,0.0,0.0,0.0,0.0,0.0,0.0,0.0,0.0,0.0,0.0,0.0,0.0,0.0,0.0,0.0,0.0,0.0,-5.6817,0.0,0.0,0.0,0.0,0.0,0.0,0.0,0.0,0.0,0.0,-5.8801,-5.8176,-5.8295,-5.9971,0.0,0.0,0.0,0.0,-6.1713,-6.1699,-6.1698,-6.1715,-6.1709,-6.1702,-6.1696,-6.1717,0.0,0.0,-6.1598,-6.1582,-6.1611,-6.1572,-6.1537,-6.1513,-6.1643,-6.1612,-6.1601,-6.1592,-6.1578,-6.1534,-6.1548,-6.1626,-6.1583,-5.9303,0.0,0.0,0.0,0.0,-5.7679,-5.7671,-5.7676,-5.7577,-5.7519,-5.7494,-5.7408,0.0,0.0,0.0,0.0,0.0,0.0,-5.8006,-5.9162,-5.8711,-5.8838,-5.9474,-5.9474,-5.9169,-5.8597,-5.8349,-5.7596,-5.6435,-5.6064,-5.5504,-5.4708,0.0,0.0,0.0,0.0,-5.5107,-5.5365,-5.5705,-5.6391,-5.7412,-5.7725,-5.8626,-6.017,-5.877,-5.8142,-5.8498,-5.7052,-5.6068,-5.5748,-5.5726,0.0,0.0,0.0,0.0,0.0,0.0,0.0,0.0,0.0,0.0,0.0,0.0,0.0,0.0,0.0,0.0,0.0,0.0,0.0,-5.6919,-5.7788,-5.8291,0.0,0.0,0.0,0.0,0.0,0.0,0.0,0.0,0.0,-6.0592,-6.0016,-5.9703,0.0,0.0,-6.1405,-6.166,-6.1713,-6.1699,-6.1715,-6.1709,0.0,-6.1711,-6.1654,-6.1637,-6.1618,-6.158,-6.1558,-6.1529,-6.1484,-6.1456,-6.1458,-6.1396,-6.1544,-6.2082,-6.1795,-6.1487,-6.1427,-6.1816,-6.2187,-6.216,-6.2513,-6.2887,-6.0522,-5.9446,-5.9307,-5.921,-5.9154,-5.9119,-5.9072,-5.9036,-5.8974,-5.8879,-5.8865,-5.8762,-5.863,-5.849,-5.8418,0.0,0.0,0.0,-5.9206,-6.0246,-5.9798,-5.9887,-6.0395,-6.0428,-6.0166,-5.9701,-5.9356,-5.8641,-5.7588,-5.6912,-5.6238,-5.5512,0.0,0.0,-5.4927,-5.5042,-5.5189,-5.5395,-5.5468,-5.6049,-5.7108,-5.7535,-5.8285,-5.9304,-5.8385,-5.7948,-5.8098,-5.708,-5.6332,-5.594,-5.5894,-5.5817,0.0,0.0,0.0,0.0,0.0,0.0,0.0,0.0,0.0,0.0,0.0,-5.5432,-5.5456,0.0,0.0,0.0,-5.677,-5.7287,-5.7866,-5.87,0.0,0.0,0.0,0.0,0.0,0.0,0.0,-6.1329,-6.0973,-6.09,-6.1447,-6.1148,-6.0844,-6.0822,-6.1325,-6.1702,-6.1717,0.0,-6.1695,-6.1658,-6.1666,-6.1654,-6.1657,-6.1596,-6.1558,-6.152,-6.1468,-6.1564,-6.1855,-6.184,-6.1912,-6.2164,-6.223,-6.2361,-6.2819,-6.2497,-6.2192,-6.2181,-6.2555,-6.2839,-6.2741,-6.3031,-6.3319,-6.1408,-6.137,-6.1131,-6.0993,-6.0953,-6.0933,-6.0911,-6.0847,-6.0828,-6.0762,-6.0645,-6.0629,-6.0514,-6.0321,-6.0251,0.0,-6.0242,-6.0425,-6.0493,-6.0525,-6.0591,-6.0629,-6.0629,-6.0629,-6.0629,-6.0591,-5.9805,-5.9383,-5.9217,-5.771,-5.685,-5.6677,-5.5704,-5.5156,-5.5028,-5.5149,-5.5281,-5.5427,-5.5545,-5.611,-5.7178,-5.7965,-5.843,-5.8507,-5.8501,-5.8137,-5.7459,-5.7343,-5.694,-5.6164,-5.6046,-5.5967,-5.5837,0.0,0.0,0.0,0.0,0.0,0.0,0.0,0.0,0.0,0.0,0.0,0.0,0.0,0.0,0.0,-5.8261,0.0,-5.882,-5.9596,0.0,0.0,0.0,-6.1332,-6.1394,-6.1409,-6.144,-6.1495,0.0,0.0,-6.1585,-6.1658,-6.1669,-6.1616,-6.1647,-6.1717,-6.1709,-6.1686,-6.1678,-6.1598,-6.1579,-6.158,-6.1591,-6.1626,-6.1648,-6.1569,-6.1492,-6.1834,-6.2433,-6.2536,-6.279,-6.3352,-6.3562,-6.3568,-6.3552,-6.3488,-6.35,-6.3602,-6.3571,-6.3504,-6.3327,-6.3354,-6.3384,-6.148,-6.1461,-6.1417,-6.1356,-6.126,-6.1287,-6.122,-6.1104,-6.1095,-6.1041,-6.0911,-6.0847,-6.0754,-6.0604,-6.0591,-6.0572,-6.0506,-6.0565,-6.0623,-6.0729,-6.0753,-6.0819,-6.0911,-6.0911,-6.0911,-6.0872,-6.0635,-6.0158,-5.9458,-5.8983,-5.8399,-5.7653,-5.6773,-5.5931,-5.5181,-5.517,-5.5288,-5.548,-5.6144,-5.6725,-5.7168,-5.6874,-5.7024,-5.7664,-5.7113,-5.7033,-5.7508,-5.6859,-5.6372,-5.619,-5.6172,-5.6125,-5.6037,-5.5977,0.0,0.0,0.0,0.0,0.0,0.0,0.0,0.0,0.0,-5.5974,-5.6714,0.0,-5.7559,0.0,-5.9209,-5.9782,-5.9847,-6.0644,0.0,0.0,-6.1336,-6.147,-6.1462,-6.1465,-6.15,-6.1564,-6.1586,-6.1583,-6.1591,-6.166,-6.1674,-6.1624,-6.1671,-6.167,-6.1629,-6.1621,-6.1602,-6.1543,-6.1524,-6.1518,-6.1523,-6.1978,-6.23,-6.2172,-6.2691,-6.3177,-6.3313,-6.3281,-6.3297,-6.348,-6.343,-6.3611,-6.4234,-6.4232,-6.4383,-6.477,-6.449,-6.4103,-6.3989,-6.4297,-6.4584,-6.1541,-6.156,-6.1541,-6.1534,-6.1493,-6.1452,-6.1383,-6.1327,-6.1294,-6.1244,-6.1134,-6.1041,-6.092,-6.0854,-6.0835,-6.0812,-6.0777,-6.0777,-6.0831,-6.09,-6.088,-6.0933,-6.1006,-6.1006,-6.1006,-6.1006,-6.0965,-6.0671,-6.0134,-5.9696,-5.9192,-5.8617,-5.7773,-5.6881,-5.5932,-5.5511,-5.5371,-5.5523,-5.6087,-5.6671,-5.7187,-5.651,-5.6552,-5.7373,-5.6672,-5.6485,-5.7017,-5.6505,-5.6246,-5.6246,-5.6204,-5.6175,-5.6153,-5.6098,-5.602,0.0,0.0,0.0,0.0,0.0,0.0,0.0,0.0,0.0,0.0,0.0,-5.8901,-5.9852,-6.0436,-6.0736,-6.0764,-6.1212,-6.1528,-6.1539,-6.1549,-6.1547,-6.1556,-6.1557,-6.1602,-6.1635,-6.1637,-6.1635,-6.1659,-6.1645,-6.1632,-6.158,-6.1591,-6.1611,-6.1571,-6.1558,-6.1534,-6.1464,-6.1441,-6.153,-6.181,-6.2555,-6.3068,-6.3013,-6.3322,-6.3705,-6.4018,-6.405,-6.4132,-6.442,-6.4474,-6.4494,-6.4922,-6.4923,-6.4967,-6.5169,-6.4936,-6.46,-6.4534,-6.4679,-6.483,-6.1609,-6.1625,-6.1628,-6.1625,-6.1621,-6.1563,-6.1534,-6.1495,-6.1446,-6.1389,-6.1322,-6.1191,-6.107,-6.1018,-6.1008,-6.0997,-6.1006,-6.1006,-6.0997,-6.0997,-6.1008,-6.1008,-6.1018,-6.1008,-6.1008,-6.1008,-6.1008,-6.0976,-6.0894,-6.0132,-5.9699,-5.9538,-5.8757,-5.7935,-5.7127,-5.6216,-5.5794,-5.5853,-5.5978,-5.6521,-5.7433,-5.6838,-5.69,-5.7603,-5.688,-5.6473,-5.6473,-5.6382,-5.6304,-5.6304,-5.6239,-5.6219,-5.6239,-5.6265,-5.6285,0.0,-5.6322,0.0,0.0,0.0,0.0,0.0,0.0,0.0,0.0,-5.9687,-6.0546,-6.1437,-6.1528,-6.152,-6.1519,-6.1621,-6.1649,-6.1631,-6.1712,-6.1729,-6.1646,-6.1659,-6.1715,-6.1711,-6.1699,-6.1716,-6.1674,-6.1618,-6.156,-6.1495,-6.1476,-6.1466,-6.1447,-6.1453,-6.1441,-6.1393,-6.1322,-6.1491,-6.2266,-6.31,-6.367,-6.3696,-6.3894,-6.407,-6.4732,-6.4855,-6.5037,-6.5589,-6.5665,-6.563,-6.5528,-6.542,-6.5329,-6.5242,-6.5023,-6.483,-6.4832,-6.4632,-6.4463,-6.167,-6.167,-6.167,-6.167,-6.1688,-6.1676,-6.1619,-6.1582,-6.1559,-6.1503,-6.1378,-6.1234,-6.1126,-6.109,-6.1021,-6.1,-6.1006,-6.1006,-6.0999,-6.1001,-6.1011,-6.1031,-6.109,-6.107,-6.109,-6.108,-6.1031,-6.1001,-6.0972,-6.0824,-6.0652,-6.0519,-5.9673,-5.9107,-5.8807,0.0,0.0,0.0,-5.7216,-5.7408,-5.8322,-5.8291,-5.8335,-5.8527,-5.7774,0.0,-5.734,-5.6728,-5.637,-5.637,-5.6364,0.0,0.0,0.0,0.0,0.0,0.0,0.0,0.0,0.0,0.0,0.0,-6.0469,-6.065,-6.0003,-6.075,-6.1393,-6.1558,-6.1588,-6.1588,-6.1605,-6.2233,-6.2376,-6.1785,-6.2306,-6.2475,-6.18,-6.1709,-6.1717,-6.1716,-6.1709,-6.1672,-6.1618,-6.1567,-6.1504,-6.1409,-6.1381,-6.1295,-6.1197,-6.126,-6.1302,-6.1242,-6.1183,-6.137,-6.213,-6.3017,-6.3844,-6.4347,-6.5114,-6.5495,-6.5576,-6.5603,-6.5583,-6.578,-6.5679,-6.5542,-6.544,-6.5349,-6.5261,-6.5029,-6.4852,-6.4743,-6.4725,-6.4521,-6.4306,-6.1697,0.0,-6.1697,-6.1697,0.0,-6.1698,-6.1676,-6.165,-6.1619,-6.1528,-6.1401,-6.1322,-6.1234,-6.1155,-6.1127,-6.109,-6.1041,-6.106,-6.1031,-6.1041,-6.1041,-6.107,-6.1099,-6.1099,-6.1099,-6.1099,-6.107,-6.1032,-6.1002,-6.101,-6.0959,-6.0891,-6.0448,-6.0003,-5.9484,-5.8804,-5.8422,-5.8333,-5.8056,-5.8361,-5.9243,-5.8936,-5.8782,-5.8836,-5.846,0.0,0.0,0.0,0.0,0.0,0.0,0.0,0.0,0.0,0.0,-5.8281,-5.8679,-5.8902,-5.8921,-5.9699,-6.0222,-6.0263,-6.1066,-6.1373,-6.091,-6.1333,-6.1607,-6.1644,-6.1643,-6.1832,-6.2254,-6.2685,-6.2961,-6.2986,-6.2997,-6.2808,-6.238,-6.1953,-6.1713,-6.1699,-6.1679,-6.1621,-6.1558,-6.1487,-6.1409,-6.1318,-6.1247,-6.1171,-6.1099,-6.1125,-6.1171,-6.1128,-6.1427,-6.1897,-6.2714,-6.353,-6.4355,-6.5187,-6.5683,-6.5884,-6.5859,-6.5839,-6.5767,-6.5679,-6.5571,-6.5465,-6.5383,-6.5309,-6.518,-6.4941,-6.4762,-6.4577,-6.4444,-6.4247,-6.4061,-6.1697,-6.1697,-6.1697,-6.1697,-6.1717,-6.1705,-6.1688,-6.1687,0.0,0.0,0.0,-6.1394,-6.1334,-6.1219,-6.121,-6.1164,-6.1099,-6.1099,-6.1099,-6.1099,-6.1099,-6.1099,-6.1099,-6.1099,-6.1099,-6.1099,-6.1099,-6.106,-6.1022,-6.1022,-6.1011,-6.1018,-6.1008,-6.0652,-5.9958,-5.935,-5.9038,-5.8981,-5.8901,-5.9232,-5.9991,-5.9514,-5.9277,-5.9353,-5.9232,-5.8821,-5.8106,-5.8636,-5.8939,-5.9017,-5.9022,-5.9031,-5.9014,-5.9154,-5.9232,-5.9252,-5.9369,-5.947,-5.947,-6.0133,-6.0555,-6.0558,-6.1208,-6.1621,-6.1627,-6.1612,-6.1635,-6.1705,-6.1715,-6.1997,-6.2706,-6.2923,-6.3216,-6.3783,-6.3339,-6.2949,-6.2752,-6.2157,-6.1709,-6.1685,-6.1627,-6.1553,-6.1493,-6.1409,-6.1337,-6.1212,-6.1125,-6.1061,-6.1011,-6.1031,-6.1051,-6.1046,-6.14,-6.2161,-6.3075,-6.3812,-6.4752,-6.5433,-6.5762,-6.5853,-6.582,-6.578,-6.5707,-6.5556,-6.5494,-6.5425,-6.5305,-6.5245,-6.5114,-6.4907,-6.4708,-6.4482,-6.4164,-6.3979,-6.3848,-6.1697,-6.1697,-6.1697,-6.1697,-6.1717,-6.1705,-6.1676,-6.1612,-6.1606,-6.1558,-6.1491,-6.1428,-6.1368,-6.1289,-6.1227,-6.1164,-6.1099,-6.1099,-6.1099,-6.1099,-6.1099,-6.1099,-6.1099,-6.1099,-6.1099,-6.1099,-6.1099,-6.1099,-6.1089,-6.1089,-6.1061,-6.1002,-6.1011,-6.0954,-6.0906,-6.0855,-6.0868,-6.0876,-6.0166,-5.9886,-6.0085,-6.0708,-6.1071,-6.1109,-6.0434,-6.0049,-5.9934,-5.9385,-5.9065,-5.9088,-5.9088,-5.9088,-5.9111,-5.9797,-6.0207,-6.0226,-6.0844,-6.1241,-6.1241,-6.1409,-6.152,-6.1514,-6.1621,-6.1681,-6.169,-6.1692,-6.1678,-6.1705,-6.1708,-6.173,-6.193,-6.2597,-6.2793,-6.2323,-6.2652,-6.2704,-6.2065,-6.1803,-6.1682,-6.1623,-6.1602,-6.1553,-6.1428,-6.134,-6.1263,-6.1145,-6.1051,-6.0982,-6.0918,-6.0924,-6.0924,-6.0922,-6.0935,-6.1374,-6.2271,-6.2998,-6.3813,-6.464,-6.5371,-6.5699,-6.5697,-6.5592,-6.5522,-6.5509,-6.5469,-6.5364,-6.5245,-6.5196,-6.5044,-6.4763,-6.4634,-6.4462,-6.4063,-6.3915,-6.3786,-6.1697,-6.1697,-6.1697,-6.1713,-6.1707,-6.1657,-6.1623,-6.1602,-6.1559,-6.1518,-6.144,-6.1402,-6.1359,-6.1306,-6.1253,-6.1191,-6.1099,-6.1099,-6.1099,-6.1099,-6.1099,-6.1099,-6.1099,-6.1099,-6.1099,-6.1099,-6.1099,-6.1127,-6.1155,-6.1155,-6.1155,-6.1164,-6.1164,-6.1171,-6.1214,-6.1275,-6.1341,-6.1342,-6.0958,-6.0778,-6.0877,-6.1276,-6.13,-6.0871,-6.0913,-6.0793,-6.0375,-6.0412,-6.0464,-6.0509,-6.052,-6.0525,-6.0512,-6.0885,-6.1119,-6.1119,-6.1436,-6.1653,-6.1653,-6.1676,-6.1702,-6.171,-6.1715,-6.1717,-6.1717,-6.1713,-6.1712,-6.1716,-6.1698,-6.1914,-6.2343,-6.2771,-6.3023,-6.3119,-6.3072,-6.2844,-6.2423,-6.1901,-6.1635,-6.1612,-6.1532,-6.146,-6.1359,-6.1291,-6.1189,-6.106,-6.0991,-6.0916,-6.0839,-6.0846,-6.0846,-6.0854,-6.0823,-6.1197,-6.1928,-6.2389,-6.2974,-6.3762,-6.4199,-6.459,-6.4909,-6.4942,-6.5044,-6.5354,-6.5409,-6.5368,-6.5277,-6.5213,-6.5027,-6.4762,-6.4615,-6.4424,-6.4044,-6.3786,-6.3542,-6.1713,-6.1709,-6.1709,-6.1683,-6.1668,-6.1639,-6.1582,-6.1578,-6.1498,-6.1427,-6.1376,-6.1402,-6.1359,-6.127,-6.1281,-6.1199,-6.1108,-6.1099,-6.1099,-6.1099,-6.1099,-6.1099,-6.1099,-6.1099,-6.1099,-6.1108,-6.1108,-6.1155,-6.1219,-6.1219,-6.1225,-6.1294,-6.1302,-6.1306,-6.1306,-6.1394,-6.1434,-6.1446,-6.1447,-6.146,-6.152,-6.1564,-6.1272,-6.0726,-6.1254,-6.1325,-6.0762,-6.1278,-6.164,-6.1707,-6.1715,-6.1704,-6.1708,-6.1709,-6.1709,-6.1709,-6.171,-6.1712,-6.1714,-6.1714,-6.1716,-6.1699,-6.1699,-6.1718,-6.1716,-6.1699,-6.1699,-6.1699,-6.1717,-6.1968,-6.2491,-6.2664,-6.2973,-6.3578,-6.3113,-6.2625,-6.2596,-6.2021,-6.1578,-6.1553,-6.1467,-6.1378,-6.1299,-6.1225,-6.1127,-6.1001,-6.0916,-6.0858,-6.0812,-6.08,-6.08,-6.08,-6.08,-6.1012,-6.1704,-6.2024,-6.2358,-6.2974,-6.3194,-6.3553,-6.3973,-6.4077,-6.4164,-6.4603,-6.4764,-6.4776,-6.4924,-6.4921,-6.4831,-6.4703,-6.4671,-6.4443,-6.4002,-6.3676,-6.34,-6.1713,-6.1705,-6.1705,-6.1654,-6.1618,-6.161,-6.1559,-6.1504,-6.1441,-6.1373,-6.1318,-6.1366,-6.1314,-6.1227,-6.121,-6.1164,-6.1099,-6.1099,-6.1099,-6.1099,-6.1099,-6.1099,-6.1099,-6.1099,-6.1117,-6.1173,-6.1201,-6.1227,-6.1278,-6.1278,-6.1283,-6.1314,-6.1352,-6.1388,-6.1409,-6.1451,-6.1514,-6.1578,-6.1578,-6.1578,-6.1588,-6.1588,-6.1582,-6.1576,-6.1649,-6.1658,-6.1528,-6.1647,-6.1707,-6.1707,-6.1708,-6.1708,-6.1709,-6.1709,-6.1709,-6.1709,-6.1714,-6.1698,-6.1698,-6.1718,-6.1717,-6.1712,-6.1711,-6.171,-6.171,-6.171,-6.1711,-6.171,-6.1709,-6.1787,-6.1825,-6.1852,-6.1957,-6.2113,-6.1933,-6.1724,-6.1771,-6.167,-6.1548,-6.1428,-6.14,-6.1356,-6.1225,-6.1146,-6.106,-6.0927,-6.0869,-6.0823,-6.0793,-6.08,-6.08,-6.08,-6.08,-6.0819,-6.1069,-6.162,-6.1985,-6.2224,-6.2752,-6.3041,-6.3148,-6.3162,-6.3188,-6.3518,-6.335,-6.3588,-6.3932,-6.4086,-6.422,-6.4375,-6.4387,-6.4349,-6.4002,-6.3665,-6.34,-6.1651,-6.1644,-6.1625,-6.163,-6.1595,-6.1563,-6.1515,-6.146,-6.1394,-6.1349,-6.127,-6.1259,-6.1253,-6.1191,-6.1191,-6.1164,-6.1099,-6.1099,-6.1099,-6.1099,-6.1099,-6.1127,-6.1155,-6.1155,-6.1182,-6.1264,-6.1272,-6.1286,-6.1349,-6.14,-6.1428,-6.1421,-6.1434,-6.147,-6.1518,-6.1539,-6.1595,-6.1588,-6.1625,-6.1654,-6.166,-6.1649,-6.1681,-6.1697,-6.1704,-6.1705,-6.1709,-6.1712,-6.1714,-6.1714,-6.1716,-6.1717,-6.1717,-6.1717,-6.1717,-6.1717,-6.1699,-6.1698,-6.1713,-6.1712,-6.1711,-6.1709,-6.1705,-6.1701,-6.1713,-6.1707,-6.1703,-6.1657,-6.1666,-6.1711,-6.1705,-6.1688,-6.1654,-6.1631,-6.1604,-6.1591,-6.1592,-6.1507,-6.1454,-6.14,-6.1334,-6.1261,-6.1155,-6.1051,-6.0978,-6.0891,-6.0846,-6.08,-6.08,-6.08,-6.08,-6.08,-6.08,-6.08,-6.0819,-6.105,-6.132,-6.1396,-6.1522,-6.1767,-6.2266,-6.2262,-6.2347,-6.2772,-6.2777,-6.2858,-6.3287,-6.3287,-6.3331,-6.3552,-6.3199,-6.2991,-6.33,-6.3142,-6.3052,-6.1591,-6.158,-6.1588,-6.1582,-6.1563,-6.1503,-6.1447,-6.1393,-6.1364,-6.1294,-6.1191,-6.1173,-6.1164,-6.1183,-6.1164,-6.1146,-6.1099,-6.1099,-6.1108,-6.1117,-6.1117,-6.1164,-6.1219,-6.1227,-6.1261,-6.133,-6.1337,-6.1376,-6.1428,-6.1485,-6.1501,-6.1532,-6.1519,-6.1564,-6.161,-6.1615,-6.1621,-6.1646,-6.1681,-6.1715,-6.1702,-6.1697,-6.1701,-6.171,-6.1712,-6.1713,-6.1713,-6.1717,-6.1718,-6.1718,-6.1699,-6.1699,-6.1699,-6.1699,-6.1699,-6.1699,-6.1717,-6.1713,-6.1707,-6.1707,-6.1704,-6.1699,-6.1713,-6.1703,-6.1671,-6.1679,-6.1648,-6.163,-6.1644,-6.1673,-6.1673,-6.1634,-6.16,-6.1576,-6.1578,-6.1563,-6.1537,-6.1454,-6.1405,-6.1349,-6.127,-6.1174,-6.108,-6.0989,-6.0891,-6.0858,-6.0823,-6.08,-6.08,-6.08,-6.08,-6.08,-6.08,-6.08,-6.08,-6.0839,-6.08,-6.0769,-6.0849,-6.1018,-6.1409,-6.1421,-6.1412,-6.1786,-6.2127,-6.239,-6.2524,-6.2504,-6.2502,-6.2411,-6.2177,-6.2033,-6.2518,-6.2408,-6.242,-6.1592,-6.1588,-6.1537,-6.1509,-6.1503,-6.1434,-6.14,-6.1378,-6.125,-6.121,-6.1173,-6.1137,-6.1099,-6.1099,-6.1108,-6.1099,-6.1099,-6.1099,-6.1146,-6.1192,-6.1182,-6.1227,-6.1297,-6.1297,-6.1318,-6.1386,-6.1393,-6.1428,-6.1497,-6.1493,-6.1544,-6.1588,-6.161,-6.1592,-6.1615,-6.1663,-6.1696,-6.1703,-6.1701,-6.1711,-6.1716,-6.1716,-6.1716,-6.1716,-6.1699,-6.1699,-6.1699,-6.1699,-6.1699,-6.1699,-6.1699,-6.1699,-6.1699,-6.1699,-6.1699,-6.1717,-6.1712,-6.1707,-6.1699,-6.1717,-6.1709,-6.171,-6.1705,-6.1676,-6.1621,-6.1615,-6.1604,-6.1584,-6.1606,-6.1615,-6.16,-6.1595,-6.1592,-6.1568,-6.1542,-6.1466,-6.1421,-6.14,-6.1322,-6.1234,-6.1201,-6.1147,-6.1018,-6.0924,-6.0869,-6.0823,-6.08,-6.08,-6.08,-6.08,-6.08,-6.08,-6.08,-6.08,-6.08,-6.08,-6.08,-6.0781,-6.0765,-6.0736,-6.0711,-6.0712,-6.077,-6.0776,-6.0952,-6.1218,-6.1567,-6.1774,-6.1842,-6.1823,-6.1828,-6.1843,-6.1864,-6.1686,-6.1726,-6.1534,-6.1507,-6.1447,-6.1434,-6.1428,-6.1376,-6.131,-6.1278,-6.1227,-6.1164,-6.1146,-6.1108,-6.1099,-6.1099,-6.1099,-6.1099,-6.1099,-6.1146,-6.1173,-6.1191,-6.1236,-6.1278,-6.1299,-6.1341,-6.1378,-6.1389,-6.1434,-6.1503,-6.1558,-6.1563,-6.1569,-6.16,-6.1644,-6.166,-6.1668,-6.1672,-6.1702,-6.1709,-6.1713,-6.1716,-6.1699,-6.1699,-6.1699,-6.1699,-6.1699,-6.1699,-6.1699,-6.1699,-6.1699,-6.1699,-6.1699,-6.1699,-6.1699,-6.1699,-6.1716,-6.1708,-6.1704,-6.1699,-6.1707,-6.1701,-6.171,-6.1702,-6.1651,-6.163,-6.1603,-6.1595,-6.1578,-6.1558,-6.1542,-6.1523,-6.1479,-6.1518,-6.1507,-6.1464,-6.1447,-6.1394,-6.1344,-6.1291,-6.1253,-6.1201,-6.1128,-6.1039,-6.0965,-6.0888,-6.0835,-6.0812,-6.08,-6.08,-6.08,-6.08,-6.08,-6.08,-6.08,-6.08,-6.08,-6.08,-6.08,-6.08,-6.0777,-6.0753,-6.0697,-6.0704,-6.0763,-6.0706,-6.0558,-6.0575,-6.1103,-6.1029,-6.11,-6.0969,-6.1001,-6.1175,-6.1147,-6.098,-6.1085,-6.1467,-6.1441,-6.1393,-6.1356,-6.1376,-6.1286,-6.1236,-6.1182,-6.1173,-6.1146,-6.1099,-6.1099,-6.1099,-6.1099,-6.1099,-6.1108,-6.1137,-6.1155,-6.1182,-6.1236,-6.1278,-6.1314,-6.134,-6.1394,-6.1441,-6.1464,-6.1504,-6.1544,-6.1603,-6.1618,-6.1615,-6.1643,-6.1683,-6.1709,-6.1713,-6.1707,-6.1714,-6.1716,-6.1717,-6.1699,-6.1699,-6.1699,-6.1699,-6.1699,-6.1699,-6.1699,-6.1699,-6.1699,-6.1699,-6.1699,-6.1699,-6.1699,-6.1699,-6.1716,-6.1709,-6.1699,-6.1715,-6.1709,-6.1698,-6.1707,-6.1696,-6.167,-6.163,-6.158,-6.1583,-6.1558,-6.1526,-6.1485,-6.1441,-6.1421,-6.1401,-6.1408,-6.1415,-6.1375,-6.1366,-6.1361,-6.1283,-6.1197,-6.1174,-6.1118,-6.1049,-6.0955,-6.0911,-6.0846,-6.0812,-6.08,-6.08,-6.08,-6.08,-6.08,-6.08,-6.08,-6.08,-6.08,-6.08,-6.08,-6.08,-6.08,-6.08,-6.0757,-6.0746,-6.0741,-6.0704,-6.0629,-6.0565,-6.0512,-6.0444,-6.0366,-6.026,-6.0148,-6.0222,-6.0427,-6.0386,-6.0301,-6.0379,-6.1393,-6.1386,-6.133,-6.1306,-6.1297,-6.1227,-6.1182,-6.1192,-6.1137,-6.1099,-6.1099,-6.1099,-6.1099,-6.1099,-6.1118,-6.1146,-6.1164,-6.1155,-6.1201,-6.1278,-6.1306,-6.1327,-6.1396,-6.1466,-6.1537,-6.1568,-6.1596,-6.1602,-6.1618,-6.1654,-6.1686,-6.1697,-6.1704,-6.1708,-6.1709,-6.1714,-6.1717,-6.1717,-6.1699,-6.1699,-6.1699,-6.1699,-6.1699,-6.1699,-6.1699,-6.1699,-6.1699,-6.1699,-6.1699,-6.1699,-6.1699,-6.1699,-6.1716,-6.1708,-6.1697,-6.1715,-6.1707,-6.1701,-6.1715,-6.1705,-6.167,-6.1611,-6.1615,-6.1559,-6.1498,-6.1458,-6.1428,-6.14,-6.1352,-6.1314,-6.1302,-6.1294,-6.1283,-6.1306,-6.1302,-6.1261,-6.121,-6.1146,-6.108,-6.0999,-6.0955,-6.0891,-6.088,-6.0835,-6.0781,-6.08,-6.08,-6.08,-6.08,-6.08,-6.08,-6.08,-6.08,-6.08,-6.08,-6.08,-6.08,-6.08,-6.08,-6.0769,-6.0769,-6.0777,-6.0741,-6.0648,-6.0559,-6.0525,-6.0485,-6.0408,-6.0323,-6.0216,-6.0083,-5.9956,-5.9959,-5.9973,-5.9664,-6.1337,-6.133,-6.1253,-6.1227,-6.1227,-6.1155,-6.1137,-6.1117,-6.1099,-6.1099,-6.1099,-6.1099,-6.1099,-6.1108,-6.1146,-6.1173,-6.1182,-6.1227,-6.127,-6.1306,-6.1354,-6.1409,-6.1472,-6.1542,-6.1582,-6.1591,-6.1637,-6.1676,-6.1668,-6.1678,-6.1704,-6.1707,-6.1712,-6.1715,-6.1715,-6.1698,-6.1699,-6.1699,-6.1699,-6.1699,-6.1699,-6.1699,-6.1699,-6.1699,-6.1699,-6.1699,-6.1699,-6.1699,-6.1699,-6.1698,-6.1718,-6.1716,-6.1708,-6.1701,-6.1713,-6.1707,-6.1703,-6.1715,-6.1685,-6.1673,-6.1611,-6.1595,-6.1564,-6.1493,-6.1441,-6.1428,-6.1366,-6.1353,-6.1302,-6.1286,-6.1236,-6.1182,-6.1182,-6.1225,-6.1191,-6.1146,-6.1099,-6.106,-6.0999,-6.0935,-6.0922,-6.09,-6.0846,-6.0793,-6.0781,-6.08,-6.08,-6.08,-6.08,-6.08,-6.08,-6.08,-6.08,-6.08,-6.08,-6.08,-6.08,-6.08,-6.08,-6.08,-6.08,-6.08,-6.0746,-6.0685,-6.0585,-6.0539,-6.0485,-6.045,-6.0366,-6.0308,-6.0205,-6.0064,-5.9918,-5.9751,-5.9579,-6.1272,-6.1245,-6.1182,-6.1174,-6.1155,-6.1108,-6.1099,-6.1099,-6.1099,-6.1099,-6.1099,-6.1137,-6.1146,-6.1155,-6.121,-6.1253,-6.1278,-6.131,-6.1337,-6.1361,-6.1428,-6.1478,-6.1542,-6.161,-6.1634,-6.1646,-6.1686,-6.1697,-6.1707,-6.171,-6.1713,-6.1715,-6.1717,-6.1698,-6.1698,-6.1699,-6.1699,-6.1699,-6.1699,-6.1699,-6.1699,-6.1699,-6.1699,-6.1699,-6.1699,-6.1699,-6.1699,-6.1699,-6.1698,-6.1716,-6.1714,-6.1708,-6.1699,-6.1713,-6.1707,-6.1701,-6.1698,-6.1713,-6.1699,-6.1644,-6.158,-6.1578,-6.1534,-6.1458,-6.1414,-6.1378,-6.1345,-6.1289,-6.1219,-6.1173,-6.1137,-6.109,-6.108,-6.1138,-6.108,-6.1041,-6.099,-6.0967,-6.0944,-6.0888,-6.0858,-6.0816,-6.0793,-6.08,-6.08,-6.08,-6.08,-6.08,-6.08,-6.08,-6.08,-6.08,-6.08,-6.08,-6.08,-6.08,-6.08,-6.08,-6.08,-6.08,-6.08,-6.08,-6.0777,-6.0673,-6.0585,-6.052,-6.0485,-6.0431,-6.0361,-6.0352,-6.0308,-6.0186,-6.0029,-5.9918,-5.9734,-6.1182,-6.1192,-6.1117,-6.1099,-6.1099,-6.1099,-6.1099,-6.1099,-6.1099,-6.1099,-6.1127,-6.1183,-6.1201,-6.1219,-6.127,-6.1326,-6.1386,-6.14,-6.1441,-6.1491,-6.152,-6.1553,-6.161,-6.1673,-6.1701,-6.169,-6.1702,-6.1711,-6.1716,-6.1717,-6.1698,-6.1699,-6.1699,-6.1699,-6.1699,-6.1699,-6.1699,-6.1699,-6.1699,-6.1699,-6.1699,-6.1699,-6.1699,-6.1699,-6.1699,-6.1699,-6.1699,-6.1717,-6.1716,-6.1715,-6.1705,-6.1717,-6.1715,-6.1705,-6.1701,-6.1698,-6.1698,-6.1691,-6.1679,-6.1644,-6.1596,-6.1583,-6.1532,-6.1473,-6.1393,-6.1318,-6.1261,-6.1182,-6.1089,-6.1031,-6.1021,-6.099,-6.0997,-6.0987,-6.0997,-6.0976,-6.0903,-6.09,-6.0877,-6.0823,-6.08,-6.08,-6.08,-6.08,-6.08,-6.08,-6.08,-6.08,-6.08,-6.08,-6.08,-6.08,-6.08,-6.08,-6.08,-6.08,-6.08,-6.08,-6.08,-6.08,-6.0777,-6.0777,-6.0753,-6.0667,-6.0559,-6.0506,-6.0485,-6.0431,-6.0403,-6.0375,-6.0318,-6.0245,-6.0156,-6.0029,-5.9869,-6.1137,-6.1137,-6.1099,-6.1099,-6.1099,-6.1099,-6.1099,-6.1099,-6.1099,-6.1137,-6.1164,-6.1182,-6.1236,-6.1289,-6.1334,-6.1398,-6.1414,-6.1454,-6.1509,-6.1568,-6.1571,-6.1623,-6.1679,-6.1692,-6.1705,-6.171,-6.1713,-6.1717,-6.1699,-6.1699,-6.1699,-6.1699,-6.1699,-6.1699,-6.1699,-6.1699,-6.1699,-6.1699,-6.1699,-6.1699,-6.1699,-6.1699,-6.1699,-6.1699,-6.1699,-6.1699,-6.1717,-6.171,-6.1705,-6.1704,-6.1713,-6.1705,-6.1705,-6.1701,-6.1698,-6.1698,-6.1698,-6.1668,-6.1628,-6.1598,-6.1584,-6.1537,-6.1478,-6.1408,-6.1345,-6.1261,-6.1173,-6.1089,-6.1012,-6.1001,-6.098,-6.0946,-6.0922,-6.0858,-6.0911,-6.0891,-6.0846,-6.0823,-6.0823,-6.0781,-6.08,-6.08,-6.08,-6.08,-6.08,-6.08,-6.08,-6.08,-6.08,-6.08,-6.08,-6.08,-6.08,-6.08,-6.08,-6.08,-6.08,-6.08,-6.08,-6.08,-6.0753,-6.0717,-6.068,-6.0617,-6.0525,-6.0444,-6.0458,-6.0444,-6.0431,-6.0403,-6.0375,-6.0318,-6.0245,-6.0137,-5.9947,-6.1099,-6.1099,-6.1099,-6.1099,-6.1099,-6.1099,-6.1099,-6.1099,-6.1117,-6.1155,-6.1191,-6.1253,-6.1267,-6.1334,-6.1393,-6.1428,-6.1485,-6.1526,-6.1573,-6.1603,-6.1628,-6.1657,-6.1696,-6.1709,-6.1714,-6.1716,-6.1698,-6.1699,-6.1699,-6.1699,-6.1699,-6.1699,-6.1699,-6.1699,-6.1699,-6.1699,-6.1699,-6.1699,-6.1699,-6.1699,-6.1699,-6.1699,-6.1699,-6.1699,-6.1699,-6.1699,-6.1714,-6.1705,-6.1715,-6.1711,-6.1703,-6.1698,-6.1698,-6.1698,-6.1698,-6.1698,-6.1698,-6.1668,-6.1605,-6.1595,-6.1576,-6.1507,-6.1434,-6.1361,-6.1302,-6.1219,-6.1099,-6.1022,-6.0991,-6.0959,-6.0955,-6.0911,-6.0846,-6.0804,-6.0835,-6.0846,-6.0793,-6.08,-6.08,-6.08,-6.08,-6.08,-6.08,-6.08,-6.08,-6.08,-6.08,-6.08,-6.08,-6.08,-6.08,-6.08,-6.08,-6.08,-6.08,-6.08,-6.08,-6.08,-6.0777,-6.0777,-6.0729,-6.0635,-6.0604,-6.0539,-6.0458,-6.0403,-6.0417,-6.0431,-6.0417,-6.0403,-6.0403,-6.0361,-6.0289,-6.0182,-6.001,-6.1099,-6.1099,-6.1099,-6.1099,-6.1099,-6.1099,-6.1118,-6.1117,-6.1164,-6.1287,-6.1419,-6.1446,-6.1713,-6.1659,-6.2024,-6.1851,-6.1953,-6.2138,-6.2056,-6.2138,-6.2154,-6.2153,-6.1964,-6.1754,-6.1717,-6.1718,-6.1699,-6.1699,-6.1699,-6.1699,-6.1699,-6.1699,-6.1699,-6.1699,-6.1699,-6.1699,-6.1699,-6.1699,-6.1699,-6.1699,-6.1699,-6.1699,-6.1699,-6.1699,-6.1699,-6.1716,-6.1709,-6.1701,-6.1711,-6.1701,-6.1698,-6.1698,-6.1698,-6.1698,-6.1698,-6.1698,-6.1698,-6.1668,-6.1605,-6.1595,-6.156,-6.1507,-6.1428,-6.1368,-6.1294,-6.1173,-6.1051,-6.1011,-6.0957,-6.0903,-6.088,-6.0835,-6.0812,-6.0781,-6.0781,-6.0781,-6.08,-6.08,-6.08,-6.08,-6.08,-6.08,-6.08,-6.08,-6.08,-6.08,-6.08,-6.08,-6.08,-6.08,-6.08,-6.08,-6.08,-6.08,-6.08,-6.08,-6.08,-6.08,-6.0734,-6.071,-6.066,-6.0617,-6.0539,-6.0472,-6.0417,-6.0403,-6.0403,-6.0403,-6.0403,-6.0403,-6.0403,-6.0361,-6.0323,-6.0178,-6.0022,-6.1099,-6.1099,-6.1099,-6.1099,-6.1099,-6.1099,-6.1156,-6.1231,-6.124,-6.1718,-6.2191,-6.2381,-6.2774,-6.3379,-6.3342,-6.3546,-6.3433,-6.3483,-6.368,-6.372,-6.3739,-6.3318,-6.2734,-6.2148,-6.1758,-6.1719,-6.1699,-6.1699,-6.1699,-6.1699,-6.1699,-6.1699,-6.1699,-6.1699,-6.1699,-6.1699,-6.1699,-6.1699,-6.1699,-6.1699,-6.1699,-6.1699,-6.1699,-6.1699,-6.1716,-6.171,-6.1701,-6.1709,-6.1703,-6.1701,-6.1698,-6.1698,-6.1698,-6.1698,-6.1698,-6.1698,-6.1698,-6.1668,-6.1605,-6.1591,-6.158,-6.1501,-6.1454,-6.1359,-6.1306,-6.1117,-6.1021,-6.0999,-6.0955,-6.0888,-6.0835,-6.0793,-6.0781,-6.08,-6.08,-6.08,-6.08,-6.08,-6.08,-6.08,-6.08,-6.08,-6.08,-6.08,-6.08,-6.08,-6.08,-6.08,-6.08,-6.08,-6.08,-6.08,-6.08,-6.08,-6.08,-6.08,-6.08,-6.0788,-6.0734,-6.0685,-6.0635,-6.0578,-6.0512,-6.0458,-6.0403,-6.0403,-6.0403,-6.0403,-6.0403,-6.0403,-6.0403,-6.0375,-6.0332,-6.0193,-6.0084,-6.2336,-6.2317,-6.2317,-6.2336,-6.2345,-6.2355,-6.2382,-6.2407,-6.2444,-6.2726,-6.3138,-6.326,-6.3593,-6.4043,-6.4086,-6.4101,-6.4158,-6.4232,-6.4265,-6.4247,-6.4255,-6.4022,-6.3711,-6.3086,-6.2617,-6.1914,-6.1699,-6.1699,-6.1699,-6.1719,-6.1699,-6.1699,-6.1699,-6.1699,-6.1699,-6.1699,-6.1699,-6.1699,-6.1699,-6.1699,-6.1699,-6.1699,-6.1699,-6.1698,-6.1713,-6.1705,-6.1699,-6.1707,-6.1701,-6.1698,-6.1698,-6.1698,-6.1698,-6.1698,-6.1698,-6.1698,-6.1698,-6.1666,-6.1605,-6.1572,-6.156,-6.149,-6.1441,-6.1371,-6.127,-6.1109,-6.102,-6.0987,-6.0922,-6.0854,-6.0812,-6.08,-6.08,-6.08,-6.08,-6.08,-6.08,-6.08,-6.08,-6.08,-6.08,-6.08,-6.08,-6.08,-6.08,-6.08,-6.08,-6.08,-6.08,-6.08,-6.08,-6.08,-6.08,-6.08,-6.08,-6.08,-6.08,-6.0769,-6.0734,-6.0717,-6.0692,-6.0591,-6.0504,-6.0444,-6.0403,-6.0403,-6.0403,-6.0403,-6.0403,-6.0403,-6.0403,-6.0403,-6.0342,-6.0207,-6.0114,-6.3757,-6.3719,-6.37,-6.3738,-6.3795,-6.3765,-6.3695,-6.3765,-6.3875,-6.3844,-6.4122,-6.4182,-6.4393,-6.4544,-6.4627,-6.4568,-6.4671,-6.4776,-6.499,-6.4996,-6.4998,-6.4785,-6.4551,-6.4277,-6.3672,-6.2207,-6.2051,-6.2012,-6.1953,-6.1758,-6.1719,-6.1699,-6.1699,-6.1699,-6.1699,-6.1699,-6.1699,-6.1699,-6.1699,-6.1699,-6.1699,-6.1699,-6.1699,-6.1716,-6.1712,-6.1704,-6.1715,-6.1705,-6.1698,-6.1698,-6.1698,-6.1698,-6.1698,-6.1698,-6.1698,-6.1698,-6.1698,-6.1666,-6.1605,-6.1591,-6.156,-6.1515,-6.1441,-6.1371,-6.127,-6.1128,-6.1039,-6.0965,-6.0891,-6.0812,-6.08,-6.08,-6.08,-6.08,-6.08,-6.08,-6.08,-6.08,-6.08,-6.08,-6.08,-6.08,-6.08,-6.08,-6.08,-6.08,-6.08,-6.08,-6.08,-6.08,-6.08,-6.08,-6.08,-6.08,-6.08,-6.08,-6.08,-6.0769,-6.0734,-6.0741,-6.0704,-6.0617,-6.0525,-6.0444,-6.0417,-6.0403,-6.0403,-6.0403,-6.0403,-6.0403,-6.0403,-6.0403,-6.0328,-6.0222,-6.0163,-6.3789,-6.3781,-6.3781,-6.3789,-6.3809,-6.3828,-6.3937,-6.3883,-6.4034,-6.4388,-6.5032,-6.515,-6.5567,-6.6011,-6.6315,-6.6333,-6.6143,-6.6141,-6.6246,-6.6267,-6.623,-6.5996,-6.5449,-6.5351,-6.4805,-6.3945,-6.3262,-6.289,-6.2598,-6.2109,-6.1992,-6.1797,-6.1777,-6.1797,-6.1738,-6.1699,-6.1699,-6.1699,-6.1699,-6.1699,-6.1699,-6.1699,-6.1699,-6.1713,-6.1709,-6.1702,-6.1707,-6.1701,-6.1698,-6.1698,-6.1698,-6.1698,-6.1698,-6.1698,-6.1698,-6.1698,-6.1698,-6.1668,-6.1602,-6.1595,-6.1571,-6.1507,-6.1428,-6.1371,-6.1278,-6.1108,-6.101,-6.0965,-6.088,-6.08,-6.08,-6.08,-6.08,-6.08,-6.08,-6.08,-6.08,-6.08,-6.08,-6.08,-6.08,-6.08,-6.08,-6.08,-6.08,-6.08,-6.08,-6.08,-6.08,-6.08,-6.08,-6.08,-6.08,-6.08,-6.08,-6.08,-6.08,-6.08,-6.0757,-6.0765,-6.0717,-6.0642,-6.0565,-6.0499,-6.0444,-6.0403,-6.0403,-6.0403,-6.0403,-6.0403,-6.0403,-6.0403,-6.0328,-6.0285,-6.0197,-6.5208,-6.5192,-6.5211,-6.52,-6.5196,-6.5204,-6.5234,-6.5303,-6.531,-6.5583,-6.5923,-6.6078,-6.6288,-6.6674,-6.6788,-6.6822,-6.6863,-6.687,-6.6892,-6.6894,-6.6855,-6.6738,-6.6269,-6.625,-6.6055,-6.5488,-6.4805,-6.4043,-6.3672,-6.332,-6.2773,-6.2441,-6.2383,-6.2168,-6.1797,-6.1699,-6.1758,-6.1758,-6.1758,-6.1738,-6.1719,-6.1719,-6.1699,-6.1712,-6.1708,-6.1701,-6.1705,-6.1698,-6.1698,-6.1698,-6.1698,-6.1698,-6.1698,-6.1698,-6.1698,-6.1698,-6.1698,-6.1688,-6.1605,-6.1595,-6.1576,-6.1501,-6.1441,-6.1366,-6.1286,-6.1155,-6.1011,-6.0946,-6.0869,-6.08,-6.08,-6.08,-6.08,-6.08,-6.08,-6.08,-6.08,-6.08,-6.08,-6.08,-6.08,-6.08,-6.08,-6.08,-6.08,-6.08,-6.08,-6.08,-6.08,-6.08,-6.08,-6.08,-6.08,-6.08,-6.08,-6.08,-6.08,-6.08,-6.08,-6.0777,-6.0741,-6.0667,-6.0617,-6.0565,-6.0499,-6.0403,-6.0403,-6.0403,-6.0403,-6.0403,-6.0403,-6.0389,-6.0375,-6.0332,-6.026,-6.6521,-6.6512,-6.6512,-6.6533,-6.6535,-6.6503,-6.6523,-6.662,-6.6548,-6.6558,-6.6702,-6.6697,-6.6693,-6.6795,-6.682,-6.6839,-6.6892,-6.6892,-6.6894,-6.6894,-6.6894,-6.6875,-6.6894,-6.6894,-6.6758,-6.6504,-6.6113,-6.539,-6.4648,-6.4199,-6.3828,-6.3457,-6.3262,-6.2969,-6.248,-6.2519,-6.2226,-6.2226,-6.2207,-6.2187,-6.1992,-6.1797,-6.1718,-6.171,-6.1709,-6.1702,-6.1703,-6.1698,-6.1698,-6.1698,-6.1698,-6.1698,-6.1698,-6.1698,-6.1698,-6.1698,-6.1698,-6.1666,-6.1631,-6.1595,-6.1584,-6.1507,-6.144,-6.1381,-6.1286,-6.1165,-6.1021,-6.0924,-6.0846,-6.08,-6.08,-6.08,-6.08,-6.08,-6.08,-6.08,-6.08,-6.08,-6.08,-6.08,-6.08,-6.08,-6.08,-6.08,-6.08,-6.08,-6.08,-6.08,-6.08,-6.08,-6.08,-6.08,-6.08,-6.08,-6.08,-6.08,-6.08,-6.08,-6.08,-6.0788,-6.0753,-6.0692,-6.0642,-6.0578,-6.0485,-6.0403,-6.0403,-6.0403,-6.0403,-6.0403,-6.0403,-6.0389,-6.0389,-6.0347,-6.0289,-6.6595,-6.6588,-6.6595,-6.6595,-6.6601,-6.6581,-6.6612,-6.6696,-6.6682,-6.6732,-6.6775,-6.6775,-6.6795,-6.682,-6.6862,-6.689,-6.6892,-6.6894,-6.6894,-6.6894,-6.6894,-6.6894,-6.6894,-6.6894,-6.6894,-6.6875,-6.6758,-6.6269,-6.5527,-6.4805,-6.4375,-6.418,-6.414,-6.4004,-6.3672,-6.3574,-6.4004,-6.3945,-6.3887,-6.3496,-6.2793,-6.209,-6.1758,-6.1712,-6.1708,-6.1702,-6.1705,-6.1701,-6.1698,-6.1698,-6.1698,-6.1698,-6.1698,-6.1698,-6.1698,-6.1698,-6.1718,-6.1713,-6.1676,-6.1625,-6.1569,-6.1514,-6.1452,-6.1368,-6.1267,-6.1147,-6.1018,-6.0978,-6.0869,-6.0812,-6.08,-6.08,-6.08,-6.08,-6.08,-6.08,-6.08,-6.08,-6.08,-6.08,-6.08,-6.08,-6.08,-6.08,-6.08,-6.08,-6.08,-6.08,-6.08,-6.08,-6.08,-6.08,-6.08,-6.08,-6.08,-6.08,-6.08,-6.08,-6.08,-6.08,-6.0765,-6.0704,-6.0629,-6.0565,-6.0472,-6.0403,-6.0403,-6.0403,-6.0403,-6.0403,-6.0403,-6.0403,-6.0403,-6.0361,-6.0318,-6.6722,-6.6702,-6.6702,-6.6702,-6.6722,-6.6702,-6.6736,-6.675,-6.6755,-6.6771,-6.6801,-6.6798,-6.6822,-6.686,-6.689,-6.6892,-6.6894,-6.6894,-6.6894,-6.6894,-6.6894,-6.6894,-6.6894,-6.6894,-6.6894,-6.6894,-6.6875,-6.6758,-6.6211,-6.5937,-6.5586,-6.5058,-6.498,-6.4707,-6.4551,-6.4336,-6.4277,-6.4121,-6.3808,-6.3379,-6.2871,-6.2226,-6.1738,-6.1734,-6.175,-6.1743,-6.1733,-6.1703,-6.1701,-6.1698,-6.1698,-6.1698,-6.1698,-6.1698,-6.1698,-6.1698,-6.1698,-6.1713,-6.1699,-6.1625,-6.1564,-6.151,-6.1464,-6.1408,-6.1286,-6.1128,-6.1006,-6.0987,-6.0888,-6.0812,-6.08,-6.08,-6.08,-6.08,-6.08,-6.08,-6.08,-6.08,-6.08,-6.08,-6.08,-6.08,-6.08,-6.08,-6.08,-6.08,-6.08,-6.08,-6.08,-6.08,-6.08,-6.08,-6.08,-6.08,-6.08,-6.08,-6.08,-6.08,-6.08,-6.0788,-6.0777,-6.0717,-6.0642,-6.0565,-6.0485,-6.0431,-6.0403,-6.0403,-6.0403,-6.0403,-6.0403,-6.0403,-6.0403,-6.0389,-6.0318,-6.6811,-6.6827,-6.681,-6.6803,-6.6803,-6.6803,-6.6806,-6.6798,-6.6798,-6.6811,-6.6829,-6.6824,-6.686,-6.689,-6.6892,-6.6894,-6.6894,-6.6894,-6.6894,-6.6894,-6.6894,-6.6894,-6.6894,-6.6894,-6.6894,-6.6894,-6.6894,-6.6836,-6.6855,-6.6738,-6.6387,-6.5937,-6.5918,-6.5625,-6.5195,-6.5117,-6.5195,-6.5117,-6.4336,-6.3906,-6.3633,-6.291,-6.2539,-6.2341,-6.2162,-6.2018,-6.199,-6.1746,-6.1701,-6.1698,-6.1698,-6.1698,-6.1698,-6.1698,-6.1698,-6.1698,-6.1698,-6.1715,-6.1685,-6.1628,-6.1573,-6.152,-6.1452,-6.1381,-6.1314,-6.1128,-6.1006,-6.1006,-6.0869,-6.0812,-6.08,-6.08,-6.08,-6.08,-6.08,-6.08,-6.08,-6.08,-6.08,-6.08,-6.08,-6.08,-6.08,-6.08,-6.08,-6.08,-6.08,-6.08,-6.08,-6.08,-6.08,-6.08,-6.08,-6.08,-6.08,-6.08,-6.08,-6.08,-6.08,-6.08,-6.0777,-6.0729,-6.0655,-6.0559,-6.048,-6.0444,-6.0417,-6.0403,-6.0403,-6.0403,-6.0403,-6.0403,-6.0403,-6.0389,-6.0332,-6.69,-6.6898,-6.6831,-6.6806,-6.6806,-6.6803,-6.6805,-6.6812,-6.6812,-6.6826,-6.688,-6.6888,-6.689,-6.6892,-6.6894,-6.6894,-6.6894,-6.6894,-6.6894,-6.6894,-6.6894,-6.6894,-6.6894,-6.6894,-6.6894,-6.6894,-6.6894,-6.6894,-6.6894,-6.6894,-6.6836,-6.6797,-6.6582,-6.668,-6.6523,-6.6269,-6.6308,-6.6133,-6.5469,-6.5137,-6.4902,-6.4394,-6.3906,-6.3768,-6.3333,-6.2917,-6.2871,-6.2354,-6.1915,-6.1915,-6.1893,-6.1737,-6.1757,-6.1718,-6.1698,-6.1698,-6.1698,-6.1718,-6.1691,-6.1631,-6.1584,-6.1529,-6.1433,-6.1337,-6.1297,-6.1119,-6.1027,-6.0995,-6.0869,-6.0793,-6.08,-6.08,-6.08,-6.08,-6.08,-6.08,-6.08,-6.08,-6.08,-6.08,-6.08,-6.08,-6.08,-6.08,-6.08,-6.08,-6.08,-6.08,-6.08,-6.08,-6.08,-6.08,-6.08,-6.08,-6.08,-6.08,-6.08,-6.08,-6.08,-6.08,-6.08,-6.071,-6.0648,-6.0572,-6.0506,-6.0472,-6.0417,-6.0403,-6.0403,-6.0403,-6.0403,-6.0403,-6.0389,-6.0375,-6.0285,-6.6904,-6.6902,-6.6889,-6.6861,-6.6861,-6.6861,-6.6867,-6.6854,-6.6856,-6.6881,-6.689,-6.6891,-6.6893,-6.6894,-6.6894,-6.6894,-6.6894,-6.6894,-6.6894,-6.6894,-6.6894,-6.6894,-6.6894,-6.6894,-6.6894,-6.6894,-6.6894,-6.6894,-6.6894,-6.6894,-6.6894,-6.6894,-6.6894,-6.6875,-6.6875,-6.6894,-6.6894,-6.668,-6.6113,-6.5625,-6.541,-6.4805,-6.4297,-6.4238,-6.4099,-6.3802,-6.3757,-6.3513,-6.3037,-6.264,-6.252,-6.2247,-6.1874,-6.1796,-6.1757,-6.1718,-6.1698,-6.1698,-6.1696,-6.1651,-6.1592,-6.1509,-6.1395,-6.1306,-6.1297,-6.1119,-6.1038,-6.0955,-6.0869,-6.0812,-6.08,-6.08,-6.08,-6.08,-6.08,-6.08,-6.08,-6.08,-6.08,-6.08,-6.08,-6.08,-6.08,-6.08,-6.08,-6.08,-6.08,-6.08,-6.08,-6.08,-6.08,-6.08,-6.08,-6.08,-6.08,-6.08,-6.08,-6.08,-6.08,-6.08,-6.08,-6.0734,-6.066,-6.0597,-6.0533,-6.0485,-6.0431,-6.0403,-6.0403,-6.0403,-6.0403,-6.0403,-6.0375,-6.0361,-6.027,-6.6889,-6.6889,-6.6889,-6.6906,-6.6904,-6.6904,-6.6904,-6.6906,-6.6906,-6.689,-6.6893,-6.6893,-6.6894,-6.6894,-6.6894,-6.6894,-6.6894,-6.6894,-6.6894,-6.6894,-6.6894,-6.6894,-6.6894,-6.6894,-6.6894,-6.6894,-6.6894,-6.6894,-6.6894,-6.6894,-6.6894,-6.6894,-6.6894,-6.6894,-6.6894,-6.6894,-6.6894,-6.6719,-6.6387,-6.5976,-6.5898,-6.5508,-6.5176,-6.5117,-6.4901,-6.4702,-6.456,-6.4298,-6.3878,-6.354,-6.3282,-6.2911,-6.2442,-6.2071,-6.1954,-6.1815,-6.1698,-6.1698,-6.1693,-6.1651,-6.1576,-6.1507,-6.1395,-6.1329,-6.1253,-6.1128,-6.1017,-6.0987,-6.088,-6.08,-6.08,-6.08,-6.08,-6.08,-6.08,-6.08,-6.08,-6.08,-6.08,-6.08,-6.08,-6.08,-6.08,-6.08,-6.08,-6.08,-6.08,-6.08,-6.08,-6.08,-6.08,-6.08,-6.08,-6.08,-6.08,-6.08,-6.08,-6.08,-6.08,-6.08,-6.0769,-6.0734,-6.0692,-6.0617,-6.0552,-6.0466,-6.0444,-6.0403,-6.0403,-6.0403,-6.0403,-6.0403,-6.0389,-6.0375,-6.0318,-6.6894,-6.6894,-6.6894,-6.6892,-6.6905,-6.6904,-6.6888,-6.6891,-6.6892,-6.6893,-6.6894,-6.6894,-6.6894,-6.6894,-6.6894,-6.6894,-6.6894,-6.6894,-6.6894,-6.6894,-6.6894,-6.6894,-6.6894,-6.6894,-6.6894,-6.6894,-6.6894,-6.6894,-6.6894,-6.6894,-6.6894,-6.6894,-6.6894,-6.6894,-6.6894,-6.6894,-6.6894,-6.6875,-6.6797,-6.6738,-6.666,-6.6523,-6.6445,-6.6269,-6.5878,-6.5583,-6.548,-6.5084,-6.4683,-6.4362,-6.4279,-6.3828,-6.3106,-6.2852,-6.2501,-6.1913,-6.1757,-6.1698,-6.1696,-6.1631,-6.1576,-6.152,-6.1415,-6.1364,-6.1289,-6.1138,-6.1006,-6.0987,-6.0869,-6.0812,-6.08,-6.08,-6.08,-6.08,-6.08,-6.08,-6.08,-6.08,-6.08,-6.08,-6.08,-6.08,-6.08,-6.08,-6.08,-6.08,-6.08,-6.08,-6.08,-6.08,-6.08,-6.08,-6.08,-6.08,-6.08,-6.08,-6.08,-6.08,-6.08,-6.08,-6.08,-6.0769,-6.0717,-6.0629,-6.0578,-6.0525,-6.0458,-6.0403,-6.0403,-6.0403,-6.0403,-6.0403,-6.0403,-6.0389,-6.0332,-6.6894,-6.6894,-6.6894,-6.6894,-6.6893,-6.6893,-6.6894,-6.6894,-6.6894,-6.6894,-6.6894,-6.6894,-6.6894,-6.6894,-6.6894,-6.6894,-6.6894,-6.6894,-6.6894,-6.6894,-6.6894,-6.6894,-6.6894,-6.6894,-6.6894,-6.6894,-6.6894,-6.6894,-6.6894,-6.6894,-6.6894,-6.6894,-6.6894,-6.6894,-6.6894,-6.6894,-6.6894,-6.6894,-6.6875,-6.6875,-6.6894,-6.6894,-6.6894,-6.6894,-6.6543,-6.6386,-6.6362,-6.5887,-6.5625,-6.5225,-6.5163,-6.4726,-6.3906,-6.3555,-6.293,-6.2403,-6.2167,-6.1691,-6.166,-6.1615,-6.1556,-6.1512,-6.1441,-6.1371,-6.1297,-6.1119,-6.1048,-6.0985,-6.0888,-6.0812,-6.08,-6.08,-6.08,-6.08,-6.08,-6.08,-6.08,-6.08,-6.08,-6.08,-6.08,-6.08,-6.08,-6.08,-6.08,-6.08,-6.08,-6.08,-6.08,-6.08,-6.08,-6.08,-6.08,-6.08,-6.08,-6.08,-6.08,-6.08,-6.08,-6.08,-6.08,-6.08,-6.0753,-6.068,-6.0629,-6.0578,-6.0485,-6.0417,-6.0403,-6.0403,-6.0403,-6.0403,-6.0403,-6.0389,-6.0361,-6.6894,-6.6894,-6.6894,-6.6894,-6.6894,-6.6894,-6.6894,-6.6894,-6.6894,-6.6894,-6.6894,-6.6894,-6.6894,-6.6894,-6.6894,-6.6894,-6.6894,-6.6894,-6.6894,-6.6894,-6.6894,-6.6894,-6.6894,-6.6894,-6.6894,-6.6894,-6.6894,-6.6894,-6.6894,-6.6894,-6.6894,-6.6894,-6.6894,-6.6894,-6.6894,-6.6894,-6.6894,-6.6894,-6.6894,-6.6894,-6.6894,-6.6894,-6.6894,-6.6894,-6.6836,-6.6855,-6.6872,-6.681,-6.6646,-6.6149,-6.5868,-6.5604,-6.4804,-6.4258,-6.3574,-6.3028,-6.2245,-6.1763,-6.1628,-6.1598,-6.1552,-6.1495,-6.1428,-6.1371,-6.1289,-6.1119,-6.1048,-6.0965,-6.0888,-6.0823,-6.08,-6.08,-6.08,-6.08,-6.08,-6.08,-6.08,-6.08,-6.08,-6.08,-6.08,-6.08,-6.08,-6.08,-6.08,-6.08,-6.08,-6.08,-6.08,-6.08,-6.08,-6.08,-6.08,-6.08,-6.08,-6.08,-6.08,-6.08,-6.08,-6.08,-6.08,-6.08,-6.0765,-6.0729,-6.0655,-6.0578,-6.0485,-6.0431,-6.0403,-6.0403,-6.0403,-6.0403,-6.0403,-6.0389,-6.0361,-6.6894,-6.6894,-6.6894,-6.6894,-6.6894,-6.6894,-6.6894,-6.6894,-6.6894,-6.6894,-6.6894,-6.6894,-6.6894,-6.6894,-6.6894,-6.6894,-6.6894,-6.6894,-6.6894,-6.6894,-6.6894,-6.6894,-6.6894,-6.6894,-6.6894,-6.6894,-6.6894,-6.6894,-6.6894,-6.6894,-6.6894,-6.6894,-6.6894,-6.6894,-6.6894,-6.6894,-6.6894,-6.6894,-6.6894,-6.6894,-6.6894,-6.6894,-6.6894,-6.6894,-6.6894,-6.6894,-6.6892,-6.6849,-6.6842,-6.6715,-6.6685,-6.6271,-6.5878,-6.5604,-6.4492,-6.3399,-6.2345,-6.2114,-6.1816,-6.1829,-6.1591,-6.1559,-6.1434,-6.1378,-6.1281,-6.1128,-6.1038,-6.0974,-6.09,-6.0835,-6.08,-6.08,-6.08,-6.08,-6.08,-6.08,-6.08,-6.08,-6.08,-6.08,-6.08,-6.08,-6.08,-6.08,-6.08,-6.08,-6.08,-6.08,-6.08,-6.08,-6.08,-6.08,-6.08,-6.08,-6.08,-6.08,-6.08,-6.08,-6.08,-6.08,-6.08,-6.08,-6.0777,-6.0741,-6.0655,-6.0565,-6.0439,-6.0417,-6.0403,-6.0403,-6.0403,-6.0403,-6.0403,-6.0389,-6.0375,-6.6894,-6.6894,-6.6894,-6.6894,-6.6894,-6.6894,-6.6894,-6.6894,-6.6894,-6.6894,-6.6894,-6.6894,-6.6894,-6.6894,-6.6894,-6.6894,-6.6894,-6.6894,-6.6894,-6.6894,-6.6894,-6.6894,-6.6894,-6.6894,-6.6894,-6.6894,-6.6894,-6.6894,-6.6894,-6.6894,-6.6894,-6.6894,-6.6894,-6.6894,-6.6894,-6.6894,-6.6894,-6.6894,-6.6894,-6.6894,-6.6894,-6.6894,-6.6894,-6.6894,-6.6894,-6.6894,-6.6894,-6.6894,-6.6883,-6.688,-6.6826,-6.6583,-6.6541,-6.5917,-6.498,-6.414,-6.3611,-6.3349,-6.2698,-6.2512,-6.2243,-6.1687,-6.1467,-6.1373,-6.1278,-6.1147,-6.1027,-6.0965,-6.09,-6.0835,-6.0812,-6.08,-6.08,-6.08,-6.08,-6.08,-6.08,-6.08,-6.08,-6.08,-6.08,-6.08,-6.08,-6.08,-6.08,-6.08,-6.08,-6.08,-6.08,-6.08,-6.08,-6.08,-6.08,-6.08,-6.08,-6.08,-6.08,-6.08,-6.08,-6.08,-6.08,-6.08,-6.0788,-6.0741,-6.0655,-6.0552,-6.0412,-6.0403,-6.0403,-6.0403,-6.0403,-6.0403,-6.0403,-6.0403,-6.0375,-6.6894,-6.6894,-6.6894,-6.6894,-6.6894,-6.6894,-6.6894,-6.6894,-6.6894,-6.6894,-6.6894,-6.6894,-6.6894,-6.6894,-6.6894,-6.6894,-6.6894,-6.6894,-6.6894,-6.6894,-6.6894,-6.6894,-6.6894,-6.6894,-6.6894,-6.6894,-6.6894,-6.6894,-6.6894,-6.6894,-6.6894,-6.6894,-6.6894,-6.6894,-6.6894,-6.6894,-6.6894,-6.6894,-6.6894,-6.6894,-6.6894,-6.6894,-6.6894,-6.6894,-6.6894,-6.6894,-6.6894,-6.6894,-6.6905,-6.6881,-6.6828,-6.6798,-6.6661,-6.6034,-6.5546,-6.4765,-6.4316,-6.3954,-6.3446,-6.3003,-6.2585,-6.2088,-6.1615,-6.1381,-6.1275,-6.1175,-6.1069,-6.0997,-6.0922,-6.0854,-6.0812,-6.08,-6.08,-6.08,-6.08,-6.08,-6.08,-6.08,-6.08,-6.08,-6.08,-6.08,-6.08,-6.08,-6.08,-6.08,-6.08,-6.08,-6.08,-6.08,-6.08,-6.08,-6.08,-6.08,-6.08,-6.08,-6.08,-6.08,-6.08,-6.08,-6.08,-6.0788,-6.0777,-6.0717,-6.0642,-6.0539,-6.0431,-6.0403,-6.0403,-6.0403,-6.0403,-6.0403,-6.0403,-6.0403,-6.0375,-6.6894,-6.6894,-6.6894,-6.6894,-6.6894,-6.6894,-6.6894,-6.6894,-6.6894,-6.6894,-6.6894,-6.6894,-6.6894,-6.6894,-6.6894,-6.6894,-6.6894,-6.6894,-6.6894,-6.6894,-6.6894,-6.6894,-6.6894,-6.6894,-6.6894,-6.6894,-6.6894,-6.6894,-6.6894,-6.6894,-6.6894,-6.6894,-6.6894,-6.6894,-6.6894,-6.6894,-6.6894,-6.6894,-6.6894,-6.6894,-6.6894,-6.6894,-6.6894,-6.6894,-6.6894,-6.6894,-6.6894,-6.6891,-6.6904,-6.6878,-6.685,-6.6798,-6.6561,-6.6249,-6.5858,-6.5604,-6.5155,-6.4718,-6.4216,-6.3654,-6.3061,-6.2537,-6.1964,-6.1504,-6.1302,-6.1183,-6.106,-6.1008,-6.0922,-6.0846,-6.0823,-6.08,-6.08,-6.08,-6.08,-6.08,-6.08,-6.08,-6.08,-6.08,-6.08,-6.08,-6.08,-6.08,-6.08,-6.08,-6.08,-6.08,-6.08,-6.08,-6.08,-6.08,-6.08,-6.08,-6.08,-6.08,-6.08,-6.08,-6.08,-6.08,-6.08,-6.0777,-6.0753,-6.0692,-6.0617,-6.0539,-6.0444,-6.0417,-6.0403,-6.0403,-6.0403,-6.0403,-6.0403,-6.0403,-6.0361,-6.6894,-6.6894,-6.6894,-6.6894,-6.6894,-6.6894,-6.6894,-6.6894,-6.6894,-6.6894,-6.6894,-6.6894,-6.6894,-6.6894,-6.6894,-6.6894,-6.6894,-6.6894,-6.6894,-6.6894,-6.6894,-6.6894,-6.6894,-6.6894,-6.6894,-6.6894,-6.6894,-6.6894,-6.6894,-6.6894,-6.6894,-6.6894,-6.6894,-6.6894,-6.6894,-6.6894,-6.6894,-6.6894,-6.6894,-6.6894,-6.6894,-6.6894,-6.6894,-6.6894,-6.6894,-6.6894,-6.6894,-6.689,-6.6905,-6.6881,-6.6828,-6.68,-6.6778,-6.6583,-6.6522,-6.6444,-6.6151,-6.5716,-6.512,-6.4379,-6.3674,-6.2801,-6.2126,-6.1647,-6.131,-6.1162,-6.108,-6.1009,-6.0944,-6.0869,-6.0823,-6.0812,-6.08,-6.08,-6.08,-6.08,-6.08,-6.08,-6.08,-6.08,-6.08,-6.08,-6.08,-6.08,-6.08,-6.08,-6.08,-6.08,-6.08,-6.08,-6.08,-6.08,-6.08,-6.08,-6.08,-6.08,-6.08,-6.08,-6.08,-6.08,-6.08,-6.0788,-6.0765,-6.0667,-6.0578,-6.0512,-6.0458,-6.0417,-6.0403,-6.0403,-6.0403,-6.0403,-6.0403,-6.0403,-6.038,-6.6894,-6.6894,-6.6894,-6.6894,-6.6894,-6.6894,-6.6894,-6.6894,-6.6894,-6.6894,-6.6894,-6.6894,-6.6894,-6.6894,-6.6894,-6.6894,-6.6894,-6.6894,-6.6894,-6.6894,-6.6894,-6.6894,-6.6894,-6.6894,-6.6894,-6.6894,-6.6894,-6.6894,-6.6894,-6.6894,-6.6894,-6.6894,-6.6894,-6.6894,-6.6894,-6.6894,-6.6894,-6.6894,-6.6894,-6.6894,-6.6894,-6.6894,-6.6894,-6.6894,-6.6894,-6.6894,-6.6894,-6.689,-6.6905,-6.688,-6.6828,-6.68,-6.6798,-6.6759,-6.6778,-6.6759,-6.6658,-6.6578,-6.5962,-6.5198,-6.433,-6.3463,-6.2558,-6.2147,-6.1361,-6.1217,-6.1109,-6.1059,-6.1006,-6.0933,-6.0835,-6.08,-6.08,-6.08,-6.08,-6.08,-6.08,-6.08,-6.08,-6.08,-6.08,-6.08,-6.08,-6.08,-6.08,-6.08,-6.08,-6.08,-6.08,-6.08,-6.08,-6.08,-6.08,-6.08,-6.08,-6.08,-6.08,-6.08,-6.08,-6.08,-6.08,-6.08,-6.0765,-6.0667,-6.0597,-6.0545,-6.0472,-6.0417,-6.0403,-6.0403,-6.0403,-6.0403,-6.0403,-6.0403,-6.0375,-6.6894,-6.6894,-6.6894,-6.6894,-6.6894,-6.6894,-6.6894,-6.6894,-6.6894,-6.6894,-6.6894,-6.6894,-6.6894,-6.6894,-6.6894,-6.6894,-6.6894,-6.6894,-6.6894,-6.6894,-6.6894,-6.6894,-6.6894,-6.6894,-6.6894,-6.6894,-6.6894,-6.6894,-6.6894,-6.6894,-6.6894,-6.6894,-6.6894,-6.6894,-6.6894,-6.6894,-6.6894,-6.6894,-6.6894,-6.6894,-6.6894,-6.6894,-6.6894,-6.6894,-6.6894,-6.6894,-6.6894,-6.6891,-6.6905,-6.6878,-6.6828,-6.682,-6.6798,-6.6798,-6.6798,-6.6798,-6.6798,-6.6756,-6.6497,-6.581,-6.5083,-6.4324,-6.3403,-6.2523,-6.174,-6.1336,-6.1252,-6.1099,-6.1039,-6.0955,-6.0858,-6.08,-6.08,-6.08,-6.08,-6.08,-6.08,-6.08,-6.08,-6.08,-6.08,-6.08,-6.08,-6.08,-6.08,-6.08,-6.08,-6.08,-6.08,-6.08,-6.08,-6.08,-6.08,-6.08,-6.08,-6.08,-6.08,-6.08,-6.08,-6.08,-6.08,-6.08,-6.0753,-6.0642,-6.0584,-6.0525,-6.0472,-6.0403,-6.0403,-6.0403,-6.0403,-6.0403,-6.0403,-6.0403,-6.0403,-6.6894,-6.6894,-6.6894,-6.6894,-6.6894,-6.6894,-6.6894,-6.6894,-6.6894,-6.6894,-6.6894,-6.6894,-6.6894,-6.6894,-6.6894,-6.6894,-6.6894,-6.6894,-6.6894,-6.6894,-6.6894,-6.6894,-6.6894,-6.6894,-6.6894,-6.6894,-6.6894,-6.6894,-6.6894,-6.6894,-6.6894,-6.6894,-6.6894,-6.6894,-6.6894,-6.6894,-6.6894,-6.6894,-6.6894,-6.6894,-6.6894,-6.6894,-6.6894,-6.6894,-6.6894,-6.6894,-6.6894,-6.6894,-6.6905,-6.688,-6.683,-6.682,-6.6798,-6.6798,-6.6798,-6.6798,-6.6798,-6.6798,-6.6533,-6.6086,-6.5418,-6.5004,-6.4023,-6.2964,-6.2255,-6.1648,-6.1451,-6.1138,-6.104,-6.0935,-6.0858,-6.0812,-6.08,-6.08,-6.08,-6.08,-6.08,-6.08,-6.08,-6.08,-6.08,-6.08,-6.08,-6.08,-6.08,-6.08,-6.08,-6.08,-6.08,-6.08,-6.08,-6.08,-6.08,-6.08,-6.08,-6.08,-6.08,-6.08,-6.08,-6.08,-6.08,-6.08,-6.0741,-6.0629,-6.0578,-6.0552,-6.0485,-6.0403,-6.0403,-6.0403,-6.0403,-6.0403,-6.0403,-6.0403,-6.0403]},{"header":{"parameterUnit":"m.s-1","parameterCategory":1,"la1":31.0,"la2":29.5877,"lo1":-88.7671,"lo2":-86.6584,"dy":0.0162,"dx":0.0185,"nx":115,"ny":88,"refTime":"2023-03-31T06:00:00:Z","depth":0,"parameterNumber":3,"parameterNumberName":"V-component_of_WINDS"},"data":[0.0,0.0,0.0,0.0,0.0,0.0,0.0,0.0,0.0,0.0,0.0,0.0,0.0,0.0,0.0,0.0,0.0,0.0,0.0,0.0,0.0,0.0,0.0,0.0,0.0,0.0,0.0,0.0,0.0,0.0,0.0,0.0,0.0,0.0,0.0,0.0,0.0,0.0,0.0,0.0,0.0,0.0,0.0,0.0,0.0,0.0,0.0,0.0,0.0,0.0,0.0,0.0,0.0,0.0,0.0,0.0,0.0,0.0,0.0,0.0,0.0,0.0,0.0,0.0,0.0,0.0,0.0,0.0,0.0,0.0,0.0,0.0,0.0,0.0,0.0,0.0,0.0,0.0,0.0,0.0,0.0,0.0,0.0,0.0,0.0,0.0,0.0,0.0,0.0,0.0,0.0,0.0,0.0,0.0,0.0,0.0,0.0,0.0,0.0,0.0,0.0,0.0,0.0,0.0,0.0,0.0,0.0,0.0,0.0,0.0,0.0,0.0,0.0,0.0,0.0,0.0,0.0,0.0,0.0,0.0,0.0,0.0,0.0,0.0,0.0,0.0,0.0,0.0,0.0,0.0,0.0,0.0,0.0,0.0,0.0,0.0,0.0,0.0,0.0,0.0,0.0,0.0,0.0,0.0,0.0,0.0,0.0,0.0,0.0,0.0,0.0,0.0,0.0,0.0,0.0,0.0,0.0,0.0,0.0,0.0,0.0,0.0,0.0,0.0,0.0,0.0,0.0,0.0,0.0,0.0,0.0,0.0,0.0,0.0,0.0,0.0,0.0,0.0,0.0,0.0,0.0,0.0,0.0,0.0,0.0,0.0,0.0,0.0,0.0,0.0,0.0,0.0,0.0,0.0,0.0,0.0,0.0,0.0,0.0,0.0,0.0,0.0,0.0,0.0,0.0,0.0,0.0,0.0,0.0,0.0,0.0,0.0,0.0,0.0,0.0,0.0,0.0,0.0,0.0,0.0,0.0,0.0,0.0,0.0,0.0,0.0,0.0,0.0,0.0,0.0,0.0,0.0,0.0,0.0,0.0,0.0,0.0,0.0,0.0,0.0,0.0,0.0,0.0,0.0,0.0,0.0,0.0,0.0,0.0,0.0,0.0,0.0,0.0,0.0,0.0,0.0,0.0,0.0,0.0,0.0,0.0,0.0,0.0,0.0,0.0,0.0,0.0,0.0,0.0,0.0,0.0,0.0,0.0,0.0,0.0,0.0,0.0,0.0,0.0,0.0,0.0,0.0,0.0,0.0,0.0,0.0,0.0,0.0,0.0,0.0,0.0,0.0,0.0,0.0,0.0,0.0,0.0,0.0,0.0,0.0,0.0,0.0,0.0,0.0,0.0,0.0,0.0,0.0,0.0,0.0,0.0,0.0,0.0,0.0,0.0,0.0,0.0,0.0,0.0,0.0,0.0,0.0,0.0,0.0,0.0,0.0,0.0,0.0,0.0,0.0,0.0,0.0,0.0,0.0,0.0,0.0,0.0,0.0,0.0,0.0,0.0,0.0,0.0,0.0,0.0,0.0,0.0,0.0,0.0,0.0,0.0,0.0,0.0,0.0,0.0,0.0,0.0,0.0,0.0,0.0,0.0,0.0,0.0,0.0,0.0,0.0,0.0,0.0,0.0,0.0,0.0,0.0,0.0,0.0,0.0,0.0,0.0,0.0,0.0,0.0,0.0,0.0,0.0,0.0,0.0,0.0,0.0,0.0,0.0,0.0,0.0,0.0,0.0,0.0,0.0,0.0,0.0,0.0,0.0,0.0,0.0,0.0,0.0,0.0,0.0,0.0,0.0,0.0,0.0,0.0,0.0,0.0,0.0,0.0,0.0,0.0,0.0,0.0,0.0,0.0,0.0,0.0,0.0,0.0,0.0,0.0,0.0,0.0,0.0,0.0,0.0,0.0,0.0,0.0,0.0,0.0,0.0,0.0,0.0,0.0,0.0,0.0,0.0,0.0,0.0,0.0,0.0,0.0,0.0,0.0,0.0,0.0,0.0,0.0,0.0,0.0,0.0,0.0,0.0,0.0,0.0,0.0,0.0,0.0,0.0,0.0,0.0,0.0,0.0,0.0,0.0,0.0,0.0,0.0,0.0,0.0,0.0,0.0,0.0,0.0,0.0,0.0,0.0,0.0,0.0,0.0,0.0,0.0,0.0,0.0,0.0,0.0,0.0,0.0,0.0,0.0,0.0,0.0,0.0,0.0,0.0,0.0,0.0,0.0,0.0,0.0,0.0,0.0,0.0,0.0,0.0,0.0,0.0,0.0,0.0,0.0,0.0,0.0,0.0,0.0,0.0,0.0,0.0,0.0,0.0,0.0,0.0,0.0,0.0,0.0,0.0,0.0,0.0,0.0,0.0,0.0,0.0,0.0,0.0,0.0,0.0,0.0,0.0,0.0,0.0,0.0,0.0,0.0,0.0,0.0,0.0,0.0,0.0,0.0,0.0,0.0,0.0,0.0,0.0,0.0,0.0,0.0,0.0,0.0,0.0,0.0,0.0,0.0,0.0,0.0,0.0,0.0,0.0,0.0,0.0,0.0,0.0,0.0,0.0,0.0,0.0,0.0,0.0,0.0,0.0,0.0,0.0,0.0,0.0,0.0,0.0,0.0,0.0,0.0,0.0,0.0,0.0,0.0,0.0,0.0,0.0,0.0,0.0,0.0,0.0,0.0,0.0,0.0,0.0,0.0,0.0,0.0,0.0,0.0,0.0,0.0,0.0,0.0,0.0,0.0,0.0,0.0,0.0,0.0,0.0,0.0,0.0,0.0,0.0,0.0,0.0,0.0,0.0,0.0,0.0,0.0,0.0,0.0,0.0,0.0,0.0,0.0,0.0,0.0,0.0,0.0,0.0,0.0,0.0,0.0,0.0,0.0,0.0,0.0,0.0,0.0,0.0,0.0,0.0,0.0,0.0,0.0,0.0,0.0,0.0,0.0,0.0,0.0,0.0,0.0,0.0,0.0,0.0,0.0,0.0,0.0,0.0,0.0,0.0,0.0,0.0,0.0,0.0,0.0,0.0,0.0,0.0,0.0,0.0,0.0,0.0,0.0,0.0,0.0,0.0,0.0,0.0,0.0,0.0,0.0,0.0,0.0,0.0,0.0,0.0,0.0,0.0,0.0,0.0,0.0,0.0,0.0,0.0,0.0,0.0,0.0,0.0,0.0,0.0,0.0,0.0,0.0,0.0,0.0,0.0,0.0,0.0,0.0,0.0,0.0,0.0,0.0,0.0,0.0,0.0,0.0,0.0,0.0,0.0,0.0,0.0,0.0,0.0,0.0,0.0,0.0,0.0,0.0,0.0,0.0,0.0,0.0,0.0,0.0,0.0,0.0,0.0,0.0,0.0,0.0,0.0,0.0,0.0,0.0,0.0,0.0,0.0,0.0,0.0,0.0,0.0,0.0,0.0,0.0,0.0,0.0,0.0,0.0,0.0,0.0,0.0,0.0,0.0,0.0,0.0,0.0,0.0,0.0,0.0,0.0,0.0,0.0,0.0,0.0,0.0,0.0,0.0,0.0,0.0,0.0,0.0,0.0,0.0,0.0,0.0,0.0,0.0,0.0,0.0,0.0,0.0,0.0,0.0,0.0,0.0,0.0,0.0,0.0,0.0,0.0,0.0,0.0,0.0,0.0,0.0,0.0,0.0,0.0,0.0,0.0,0.0,0.0,0.0,0.0,0.0,0.0,0.0,0.0,0.0,0.0,0.0,0.0,0.0,0.0,0.0,0.0,0.0,0.0,0.0,0.0,0.0,0.0,0.0,0.0,0.0,0.0,0.0,0.0,0.0,0.0,0.0,0.0,0.0,0.0,0.0,0.0,0.0,0.0,0.0,0.0,0.0,0.0,0.0,0.0,0.0,0.0,0.0,0.0,0.0,0.0,0.0,0.0,0.0,0.0,0.0,0.0,0.0,0.0,0.0,0.0,0.0,0.0,0.0,0.0,0.0,0.0,0.0,0.0,0.0,0.0,0.0,0.0,0.0,0.0,0.0,0.0,0.0,0.0,0.0,0.0,0.0,0.0,0.0,0.0,0.0,0.0,0.0,0.0,0.0,0.0,0.0,0.0,0.0,0.0,0.0,0.0,0.0,0.0,0.0,0.0,0.0,0.0,0.0,0.0,0.0,0.0,0.0,0.0,0.0,0.0,0.0,0.0,0.0,0.0,0.0,0.0,0.0,0.0,0.0,0.0,0.0,0.0,0.0,0.0,0.0,0.0,0.0,0.0,0.0,0.0,0.0,0.0,0.0,0.0,0.0,0.0,-1.0546,0.0,0.0,0.0,0.0,0.0,0.0,0.0,0.0,0.0,0.0,0.0,0.0,0.0,0.0,0.0,0.0,0.0,0.0,0.0,0.0,0.0,0.0,0.0,0.0,0.0,0.0,0.0,0.0,0.0,0.0,0.0,0.0,0.0,0.0,0.0,0.0,0.0,0.0,0.0,0.0,0.0,0.0,0.0,0.0,0.0,0.0,0.0,0.0,0.0,0.0,0.0,0.0,0.0,0.0,0.0,0.0,0.0,0.0,0.0,0.0,0.0,0.0,0.0,0.0,0.0,0.0,0.0,0.0,0.0,0.0,0.0,0.0,0.0,0.0,0.0,0.0,0.0,0.0,0.0,0.0,0.0,0.0,0.0,0.0,0.0,0.0,0.0,0.0,0.0,0.0,0.0,0.0,0.0,0.0,0.0,0.0,0.0,0.0,0.0,0.0,0.0,0.0,0.0,0.0,0.0,0.0,0.0,0.0,0.0,0.0,-1.0692,-1.0692,-1.0692,-1.0692,-1.0692,0.0,0.0,0.0,0.0,0.0,0.0,0.0,0.0,0.0,0.0,0.0,0.0,0.0,0.0,0.0,0.0,0.0,0.0,0.0,0.0,0.0,0.0,0.0,0.0,0.0,0.0,0.0,0.0,0.0,0.0,0.0,0.0,0.0,0.0,0.0,0.0,0.0,0.0,0.0,0.0,0.0,0.0,0.0,0.0,0.0,0.0,0.0,0.0,0.0,0.0,0.0,0.0,0.0,0.0,0.0,0.0,0.0,0.0,0.0,0.0,0.0,0.0,0.0,0.0,0.0,0.0,0.0,0.0,0.0,0.0,0.0,0.0,0.0,0.0,0.0,0.0,0.0,0.0,0.0,0.0,0.0,0.0,0.0,0.0,0.0,0.0,0.0,0.0,0.0,0.0,0.0,0.0,0.0,0.0,0.0,0.0,0.0,0.0,0.0,0.0,0.0,0.0,0.0,0.0,0.0,0.0,0.0,0.0,0.0,0.0,0.0,0.0,-1.0692,-1.0692,-1.0692,0.0,0.0,0.0,0.0,0.0,0.0,0.0,0.0,0.0,0.0,0.0,0.0,0.0,0.0,0.0,0.0,0.0,0.0,0.0,0.0,0.0,0.0,0.0,0.0,0.0,0.0,0.0,0.0,0.0,0.0,0.0,0.0,0.0,0.0,0.0,0.0,0.0,0.0,0.0,0.0,0.0,0.0,0.0,0.0,0.0,0.0,0.0,0.0,0.0,0.0,0.0,0.0,0.0,0.0,0.0,0.0,0.0,0.0,0.0,0.0,0.0,0.0,0.0,0.0,0.0,0.0,0.0,0.0,0.0,0.0,0.0,0.0,0.0,0.0,0.0,0.0,0.0,0.0,0.0,0.0,0.0,0.0,0.0,0.0,0.0,0.0,0.0,0.0,0.0,0.0,0.0,0.0,0.0,0.0,0.0,0.0,0.0,0.0,0.0,0.0,0.0,0.0,0.0,0.0,0.0,0.0,0.0,0.0,0.0,0.0,-1.0692,-1.0692,-1.0692,0.0,-1.0692,0.0,0.0,0.0,0.0,0.0,0.0,0.0,0.0,0.0,0.0,0.0,0.0,0.0,0.0,0.0,0.0,0.0,0.0,0.0,0.0,0.0,0.0,0.0,0.0,0.0,0.0,0.0,0.0,0.0,0.0,0.0,0.0,0.0,0.0,0.0,0.0,0.0,0.0,0.0,0.0,0.0,0.0,0.0,0.0,0.0,0.0,0.0,0.0,0.0,0.0,0.0,0.0,0.0,0.0,0.0,0.0,0.0,0.0,0.0,0.0,0.0,0.0,0.0,0.0,0.0,0.0,0.0,0.0,0.0,0.0,0.0,0.0,0.0,0.0,0.0,0.0,0.0,0.0,0.0,0.0,0.0,0.0,0.0,0.0,0.0,0.0,0.0,0.0,0.0,0.0,0.0,0.0,0.0,0.0,0.0,0.0,0.0,0.0,0.0,0.0,0.0,0.0,0.0,0.0,0.0,0.0,0.0,0.0,0.0,0.0,-1.0857,-1.0692,-1.0692,-1.0692,0.0,0.0,0.0,0.0,0.0,0.0,0.0,0.0,0.0,0.0,0.0,0.0,0.0,0.0,0.0,0.0,0.0,0.0,0.0,0.0,0.0,0.0,0.0,0.0,0.0,0.0,0.0,0.0,0.0,0.0,0.0,0.0,0.0,0.0,0.0,0.0,0.0,0.0,0.0,0.0,0.0,0.0,0.0,0.0,0.0,0.0,0.0,0.0,0.0,0.0,0.0,0.0,0.0,0.0,0.0,0.0,0.0,0.0,0.0,0.0,0.0,0.0,0.0,0.0,0.0,0.0,0.0,0.0,0.0,0.0,0.0,0.0,0.0,0.0,0.0,0.0,0.0,0.0,0.0,0.0,0.0,0.0,0.0,0.0,0.0,0.0,0.0,0.0,0.0,0.0,0.0,0.0,0.0,0.0,0.0,0.0,0.0,0.0,0.0,0.0,0.0,0.0,0.0,0.0,0.0,0.0,0.0,0.0,0.0,0.0,-1.1291,-1.0966,-1.0747,-1.0692,-1.0692,-1.0692,0.0,0.0,0.0,0.0,0.0,0.0,0.0,0.0,0.0,0.0,0.0,0.0,0.0,0.0,0.0,0.0,0.0,0.0,0.0,0.0,0.0,0.0,0.0,0.0,0.0,0.0,0.0,0.0,0.0,0.0,0.0,0.0,0.0,0.0,0.0,0.0,0.0,0.0,0.0,0.0,0.0,0.0,0.0,0.0,0.0,0.0,0.0,0.0,0.0,0.0,0.0,0.0,0.0,0.0,0.0,0.0,0.0,0.0,0.0,0.0,0.0,0.0,0.0,0.0,0.0,0.0,0.0,0.0,0.0,0.0,0.0,0.0,0.0,0.0,0.0,0.0,0.0,0.0,0.0,0.0,0.0,0.0,0.0,0.0,0.0,0.0,0.0,0.0,0.0,0.0,0.0,0.0,0.0,0.0,0.0,0.0,0.0,0.0,0.0,0.0,0.0,0.0,0.0,0.0,0.0,0.0,0.0,0.0,-1.1623,-1.1295,-1.0966,-1.0747,-1.0692,-1.0692,0.0,0.0,0.0,0.0,0.0,0.0,0.0,0.0,0.0,0.0,0.0,0.0,0.0,0.0,0.0,0.0,0.0,0.0,0.0,0.0,0.0,0.0,0.0,0.0,0.0,0.0,0.0,0.0,0.0,0.0,0.0,0.0,0.0,0.0,0.0,0.0,0.0,0.0,0.0,0.0,0.0,0.0,0.0,0.0,0.0,0.0,0.0,0.0,0.0,0.0,0.0,0.0,0.0,0.0,0.0,0.0,0.0,0.0,0.0,0.0,0.0,0.0,0.0,0.0,0.0,0.0,0.0,0.0,0.0,0.0,0.0,0.0,0.0,0.0,0.0,0.0,0.0,0.0,0.0,0.0,0.0,0.0,0.0,0.0,0.0,0.0,0.0,0.0,0.0,0.0,0.0,0.0,0.0,0.0,0.0,0.0,0.0,0.0,0.0,0.0,0.0,0.0,0.0,0.0,0.0,0.0,0.0,0.0,0.0,-1.1623,-1.1076,-1.0802,-1.0692,-1.0692,-1.0692,0.0,0.0,0.0,0.0,0.0,0.0,0.0,0.0,0.0,0.0,0.0,0.0,0.0,0.0,0.0,0.0,0.0,0.0,0.0,0.0,0.0,0.0,0.0,0.0,0.0,0.0,0.0,0.0,0.0,0.0,0.0,0.0,0.0,0.0,0.0,0.0,0.0,0.0,0.0,0.0,0.0,0.0,0.0,0.0,0.0,0.0,0.0,0.0,0.0,0.0,0.0,0.0,0.0,0.0,0.0,0.0,0.0,0.0,0.0,0.0,0.0,0.0,0.0,0.0,0.0,0.0,0.0,0.0,0.0,0.0,0.0,0.0,0.0,0.0,0.0,0.0,0.0,0.0,0.0,0.0,0.0,0.0,0.0,0.0,0.0,0.0,0.0,0.0,0.0,0.0,0.0,0.0,0.0,0.0,0.0,0.0,0.0,0.0,0.0,0.0,0.0,0.0,0.0,0.0,0.0,0.0,0.0,0.0,0.0,-1.1623,0.0,-1.0798,-1.0692,-1.0692,-1.0692,0.0,0.0,0.0,0.0,0.0,0.0,0.0,0.0,0.0,0.0,0.0,0.0,0.0,0.0,0.0,0.0,0.0,0.0,0.0,0.0,0.0,0.0,0.0,0.0,0.0,0.0,0.0,0.0,0.0,0.0,0.0,0.0,0.0,0.0,0.0,0.0,0.0,0.0,0.0,0.0,0.0,0.0,0.0,0.0,0.0,0.0,0.0,0.0,0.0,0.0,0.0,0.0,0.0,0.0,0.0,0.0,0.0,0.0,0.0,0.0,0.0,0.0,0.0,0.0,0.0,0.0,0.0,0.0,0.0,0.0,0.0,0.0,0.0,0.0,0.0,0.0,0.0,0.0,0.0,0.0,0.0,0.0,0.0,0.0,0.0,0.0,0.0,0.0,0.0,0.0,0.0,0.0,0.0,0.0,0.0,0.0,0.0,0.0,0.0,0.0,0.0,0.0,0.0,0.0,0.0,0.0,0.0,0.0,-1.2723,-1.1623,-1.1295,-1.0962,-1.0747,-1.0692,-1.0692,0.0,0.0,0.0,0.0,0.0,0.0,0.0,0.0,0.0,0.0,0.0,0.0,0.0,0.0,0.0,0.0,0.0,0.0,0.0,0.0,0.0,0.0,0.0,0.0,0.0,0.0,0.0,0.0,0.0,0.0,0.0,0.0,0.0,0.0,0.0,0.0,0.0,0.0,0.0,0.0,0.0,0.0,0.0,0.0,0.0,0.0,0.0,0.0,0.0,0.0,0.0,0.0,0.0,0.0,0.0,0.0,0.0,0.0,0.0,0.0,0.0,0.0,0.0,0.0,0.0,0.0,0.0,0.0,0.0,0.0,0.0,0.0,0.0,0.0,0.0,0.0,0.0,0.0,0.0,0.0,0.0,0.0,0.0,0.0,0.0,0.0,0.0,0.0,0.0,0.0,0.0,0.0,0.0,0.0,0.0,0.0,0.0,0.0,0.0,0.0,0.0,0.0,0.0,0.0,0.0,0.0,0.0,0.0,0.0,-1.1627,-1.1291,-1.0966,-1.0747,-1.0692,-1.0692,0.0,0.0,0.0,0.0,0.0,0.0,0.0,0.0,0.0,0.0,0.0,0.0,0.0,0.0,0.0,0.0,0.0,0.0,0.0,0.0,0.0,0.0,0.0,0.0,0.0,0.0,0.0,0.0,0.0,0.0,0.0,0.0,0.0,0.0,0.0,0.0,0.0,0.0,0.0,0.0,0.0,0.0,0.0,0.0,0.0,0.0,0.0,0.0,0.0,0.0,0.0,0.0,0.0,0.0,0.0,0.0,0.0,0.0,0.0,0.0,0.0,0.0,0.0,0.0,0.0,0.0,0.0,0.0,0.0,0.0,0.0,0.0,0.0,0.0,0.0,0.0,0.0,0.0,0.0,0.0,0.0,0.0,0.0,0.0,0.0,0.0,0.0,0.0,0.0,0.0,0.0,0.0,0.0,0.0,0.0,0.0,0.0,0.0,0.0,0.0,0.0,0.0,0.0,0.0,0.0,0.0,0.0,0.0,0.0,-1.1788,-1.1556,-1.1278,-1.0891,-1.0891,-1.0863,-1.0798,0.0,0.0,0.0,0.0,0.0,0.0,0.0,0.0,0.0,0.0,0.0,0.0,0.0,0.0,0.0,0.0,0.0,0.0,0.0,0.0,0.0,0.0,0.0,0.0,0.0,0.0,0.0,0.0,0.0,0.0,0.0,0.0,0.0,0.0,0.0,0.0,0.0,0.0,0.0,0.0,0.0,0.0,0.0,0.0,0.0,0.0,0.0,0.0,0.0,0.0,0.0,0.0,0.0,0.0,0.0,0.0,0.0,0.0,0.0,0.0,0.0,0.0,0.0,0.0,0.0,0.0,0.0,0.0,0.0,0.0,0.0,0.0,0.0,0.0,0.0,0.0,0.0,0.0,0.0,0.0,0.0,0.0,0.0,0.0,0.0,0.0,0.0,0.0,0.0,0.0,0.0,0.0,0.0,0.0,0.0,0.0,0.0,0.0,0.0,0.0,0.0,0.0,0.0,0.0,0.0,0.0,0.0,0.0,-1.2104,-1.2108,-1.1816,-1.1216,-1.1216,-1.1147,0.0,0.0,0.0,0.0,0.0,0.0,0.0,0.0,0.0,0.0,0.0,0.0,0.0,0.0,0.0,0.0,0.0,0.0,0.0,0.0,0.0,0.0,0.0,0.0,0.0,0.0,0.0,0.0,0.0,0.0,0.0,0.0,0.0,0.0,0.0,0.0,0.0,0.0,0.0,0.0,0.0,0.0,0.0,0.0,0.0,0.0,0.0,0.0,0.0,0.0,0.0,0.0,0.0,0.0,0.0,0.0,0.0,0.0,0.0,0.0,0.0,0.0,0.0,0.0,0.0,0.0,0.0,0.0,0.0,0.0,0.0,0.0,0.0,0.0,0.0,0.0,0.0,0.0,0.0,0.0,0.0,0.0,0.0,0.0,0.0,0.0,0.0,0.0,0.0,0.0,0.0,0.0,0.0,0.0,0.0,0.0,0.0,0.0,0.0,0.0,0.0,0.0,0.0,0.0,0.0,0.0,0.0,0.0,0.0,-1.2314,-1.22,-1.1841,-1.1232,-1.122,-1.12,0.0,0.0,0.0,0.0,0.0,0.0,0.0,0.0,0.0,0.0,0.0,0.0,0.0,0.0,0.0,0.0,0.0,0.0,0.0,0.0,0.0,0.0,0.0,0.0,0.0,0.0,0.0,0.0,0.0,0.0,0.0,0.0,0.0,0.0,0.0,0.0,0.0,0.0,0.0,0.0,0.0,0.0,0.0,0.0,0.0,0.0,0.0,0.0,0.0,0.0,0.0,0.0,0.0,0.0,0.0,0.0,0.0,0.0,0.0,0.0,0.0,0.0,0.0,0.0,0.0,0.0,0.0,0.0,0.0,0.0,0.0,0.0,0.0,0.0,0.0,0.0,0.0,0.0,0.0,0.0,0.0,0.0,0.0,0.0,0.0,0.0,0.0,0.0,0.0,0.0,0.0,0.0,0.0,0.0,0.0,0.0,0.0,0.0,0.0,0.0,0.0,0.0,0.0,0.0,0.0,0.0,0.0,0.0,-1.2784,-1.2624,-1.2306,-1.199,-1.1679,-1.1533,-1.1477,0.0,0.0,0.0,0.0,0.0,0.0,0.0,0.0,0.0,0.0,0.0,0.0,0.0,0.0,0.0,0.0,0.0,0.0,0.0,0.0,0.0,0.0,0.0,0.0,0.0,0.0,0.0,0.0,0.0,0.0,0.0,0.0,0.0,0.0,0.0,0.0,0.0,0.0,0.0,0.0,0.0,0.0,0.0,0.0,0.0,0.0,0.0,0.0,0.0,0.0,0.0,0.0,0.0,0.0,0.0,0.0,0.0,0.0,0.0,0.0,0.0,0.0,0.0,0.0,0.0,0.0,0.0,0.0,0.0,0.0,0.0,0.0,0.0,0.0,0.0,0.0,0.0,0.0,0.0,0.0,0.0,0.0,0.0,0.0,0.0,0.0,0.0,0.0,0.0,0.0,0.0,0.0,0.0,0.0,0.0,0.0,0.0,0.0,0.0,0.0,0.0,0.0,0.0,0.0,0.0,0.0,0.0,0.0,-1.2838,-1.2957,-1.2357,-1.2134,-1.2288,-1.1979,-1.1908,0.0,0.0,0.0,0.0,0.0,0.0,0.0,0.0,0.0,0.0,0.0,0.0,0.0,0.0,0.0,0.0,0.0,0.0,0.0,0.0,0.0,0.0,0.0,0.0,0.0,0.0,0.0,0.0,0.0,0.0,0.0,0.0,0.0,0.0,0.0,0.0,0.0,0.0,0.0,0.0,0.0,0.0,0.0,0.0,0.0,0.0,0.0,0.0,0.0,0.0,0.0,0.0,0.0,0.0,0.0,0.0,0.0,0.0,0.0,0.0,0.0,0.0,0.0,0.0,0.0,0.0,0.0,0.0,0.0,0.0,0.0,0.0,0.0,0.0,0.0,0.0,0.0,0.0,0.0,0.0,0.0,0.0,0.0,0.0,0.0,0.0,0.0,0.0,0.0,0.0,0.0,0.0,0.0,0.0,0.0,0.0,0.0,0.0,0.0,0.0,0.0,0.0,0.0,0.0,0.0,0.0,0.0,0.0,-1.2856,-1.2583,-1.2362,-1.2268,-1.2304,-1.2093,-1.2078,0.0,0.0,0.0,0.0,0.0,0.0,0.0,0.0,0.0,0.0,0.0,0.0,0.0,0.0,0.0,0.0,0.0,0.0,0.0,0.0,0.0,0.0,0.0,0.0,0.0,0.0,0.0,0.0,0.0,0.0,0.0,0.0,0.0,0.0,0.0,0.0,0.0,0.0,0.0,0.0,0.0,0.0,0.0,0.0,0.0,0.0,0.0,0.0,-0.5919,0.0,0.0,0.0,0.0,0.0,0.0,0.0,0.0,0.0,0.0,0.0,0.0,0.0,0.0,0.0,0.0,0.0,0.0,0.0,0.0,0.0,0.0,0.0,0.0,0.0,0.0,0.0,0.0,0.0,0.0,0.0,0.0,0.0,0.0,0.0,0.0,0.0,0.0,0.0,0.0,0.0,0.0,0.0,0.0,0.0,0.0,0.0,0.0,0.0,0.0,0.0,0.0,0.0,0.0,0.0,0.0,0.0,0.0,0.0,-1.2815,-1.2407,-1.2269,-1.2211,-1.2282,-1.2043,-1.2184,0.0,0.0,0.0,0.0,0.0,0.0,0.0,0.0,0.0,0.0,0.0,0.0,0.0,0.0,0.0,0.0,0.0,0.0,0.0,0.0,0.0,0.0,0.0,0.0,0.0,0.0,0.0,0.0,0.0,0.0,0.0,0.0,0.0,0.0,0.0,0.0,0.0,0.0,0.0,0.0,0.0,0.0,0.0,0.0,0.0,0.0,0.0,0.0,0.0,0.0,0.0,0.0,0.0,0.0,0.0,0.0,0.0,0.0,0.0,0.0,0.0,0.0,0.0,0.0,0.0,0.0,0.0,0.0,0.0,0.0,0.0,0.0,0.0,0.0,0.0,0.0,0.0,0.0,0.0,0.0,0.0,0.0,0.0,0.0,0.0,0.0,0.0,0.0,0.0,0.0,0.0,0.0,0.0,0.0,0.0,0.0,0.0,0.0,0.0,0.0,0.0,0.0,0.0,0.0,0.0,0.0,0.0,-1.345,-1.2785,-1.2277,-1.2126,-1.2092,-1.2301,-1.1978,-1.2168,-1.3005,0.0,0.0,0.0,0.0,0.0,0.0,0.0,0.0,0.0,0.0,0.0,0.0,0.0,0.0,0.0,0.0,0.0,0.0,0.0,0.0,0.0,0.0,0.0,0.0,0.0,0.0,0.0,0.0,0.0,0.0,0.0,0.0,0.0,0.0,0.0,0.0,0.0,0.0,-0.6603,-0.6103,0.0,0.0,0.0,0.0,0.0,0.0,0.0,0.0,-0.4935,0.0,0.0,0.0,0.0,0.0,0.0,0.0,0.0,0.0,0.0,0.0,0.0,0.0,0.0,0.0,0.0,0.0,0.0,0.0,0.0,0.0,0.0,0.0,0.0,0.0,0.0,0.0,0.0,0.0,0.0,0.0,0.0,0.0,0.0,0.0,0.0,0.0,0.0,0.0,0.0,0.0,0.0,0.0,0.0,0.0,0.0,0.0,0.0,0.0,0.0,0.0,0.0,0.0,0.0,0.0,0.0,-1.3934,-1.3465,-1.2838,-1.2065,-1.2176,-1.2277,-1.2297,-1.1982,-1.2284,-1.3175,0.0,0.0,0.0,0.0,0.0,0.0,0.0,0.0,0.0,0.0,0.0,0.0,0.0,0.0,0.0,0.0,0.0,0.0,0.0,0.0,0.0,0.0,0.0,0.0,0.0,0.0,0.0,0.0,0.0,0.0,0.0,0.0,0.0,0.0,0.0,0.0,0.0,0.0,0.0,-0.6077,-0.5778,0.0,0.0,0.0,0.0,0.0,0.0,0.0,0.0,-0.4935,0.0,0.0,0.0,0.0,0.0,0.0,0.0,0.0,0.0,0.0,0.0,0.0,0.0,0.0,0.0,0.0,0.0,0.0,0.0,0.0,0.0,0.0,0.0,0.0,0.0,0.0,0.0,0.0,0.0,0.0,0.0,0.0,0.0,0.0,0.0,0.0,0.0,0.0,0.0,0.0,0.0,0.0,0.0,0.0,0.0,0.0,0.0,0.0,0.0,0.0,0.0,0.0,0.0,0.0,0.0,-1.392,-1.3319,-1.2568,-1.1782,-1.1756,-1.1846,-1.2041,-1.1801,-1.2199,0.0,0.0,0.0,0.0,0.0,0.0,0.0,0.0,0.0,0.0,0.0,0.0,0.0,0.0,0.0,0.0,0.0,0.0,0.0,0.0,0.0,0.0,0.0,0.0,0.0,0.0,0.0,0.0,0.0,0.0,0.0,0.0,0.0,0.0,0.0,0.0,0.0,0.0,0.0,0.0,-0.6071,-0.5607,-0.5421,0.0,0.0,0.0,0.0,0.0,0.0,-0.4071,-0.4195,0.0,0.0,0.0,0.0,0.0,0.0,0.0,0.0,0.0,0.0,0.0,0.0,0.0,0.0,0.0,0.0,0.0,0.0,0.0,0.0,0.0,0.0,0.0,0.0,0.0,0.0,0.0,0.0,0.0,0.0,0.0,0.0,0.0,0.0,0.0,0.0,0.0,0.0,0.0,0.0,0.0,0.0,0.0,0.0,0.0,0.0,0.0,0.0,0.0,0.0,0.0,0.0,0.0,0.0,0.0,-1.3981,-1.3149,-1.2326,-1.1571,-1.1315,-1.1383,-1.1776,-1.1583,-1.2055,0.0,0.0,0.0,0.0,0.0,0.0,0.0,0.0,0.0,0.0,0.0,0.0,0.0,0.0,0.0,0.0,0.0,0.0,0.0,0.0,0.0,0.0,0.0,0.0,0.0,0.0,0.0,0.0,0.0,0.0,0.0,0.0,0.0,0.0,0.0,0.0,0.0,0.0,0.0,0.0,0.0,-0.536,-0.5298,-0.5007,0.0,0.0,0.0,0.0,-0.3099,-0.3223,0.0,0.0,0.0,0.0,0.0,0.0,0.0,0.0,0.0,0.0,0.0,0.0,0.0,0.0,0.0,0.0,0.0,0.0,0.0,0.0,0.0,0.0,0.0,0.0,0.0,0.0,0.0,0.0,0.0,0.0,0.0,0.0,0.0,0.0,0.0,0.0,0.0,0.0,0.0,0.0,0.0,0.0,0.0,0.0,0.0,0.0,0.0,0.0,0.0,0.0,0.0,0.0,0.0,0.0,0.0,0.0,-1.4126,-1.3215,-1.239,-1.1798,-1.1372,-1.1383,-1.1776,-1.1414,-1.1873,0.0,0.0,0.0,0.0,0.0,0.0,0.0,0.0,0.0,0.0,0.0,0.0,0.0,0.0,0.0,0.0,0.0,0.0,0.0,0.0,0.0,0.0,0.0,0.0,0.0,0.0,0.0,0.0,0.0,0.0,0.0,0.0,0.0,0.0,0.0,0.0,0.0,0.0,0.0,0.0,0.0,-0.53,-0.4995,-0.4428,-0.3962,0.0,0.0,-0.3131,-0.3027,-0.3022,0.0,0.0,0.0,0.0,0.0,0.0,0.0,0.0,0.0,0.0,0.0,0.0,0.0,0.0,0.0,0.0,0.0,0.0,0.0,0.0,0.0,0.0,0.0,0.0,0.0,0.0,0.0,0.0,0.0,0.0,0.0,0.0,0.0,0.0,0.0,0.0,0.0,0.0,0.0,0.0,0.0,0.0,0.0,0.0,0.0,0.0,0.0,0.0,0.0,0.0,0.0,0.0,0.0,0.0,0.0,-1.4443,-1.4163,-1.3048,-1.2211,-1.1765,-1.1251,-1.1185,-1.178,-1.1481,-1.1952,0.0,0.0,0.0,0.0,0.0,0.0,0.0,0.0,0.0,0.0,0.0,0.0,0.0,0.0,0.0,0.0,0.0,0.0,0.0,0.0,0.0,0.0,0.0,0.0,0.0,0.0,0.0,0.0,0.0,0.0,0.0,0.0,0.0,0.0,0.0,0.0,0.0,0.0,0.0,0.0,0.0,0.0,-0.4678,-0.4146,0.0,0.0,0.0,-0.2316,-0.1918,0.0,0.0,0.0,0.0,0.0,0.0,0.0,0.0,0.0,0.0,0.0,0.0,0.0,0.0,0.0,0.0,0.0,0.0,0.0,0.0,0.0,0.0,0.0,0.0,0.0,0.0,0.0,0.0,0.0,0.0,0.0,0.0,0.0,0.0,0.0,0.0,0.0,0.0,0.0,0.0,0.0,0.0,0.0,0.0,0.0,0.0,0.0,0.0,0.0,0.0,0.0,0.0,0.0,0.0,0.0,0.0,0.0,-1.4043,-1.2737,-1.1962,-1.1765,-1.1049,-1.0982,-1.1644,-1.1514,0.0,0.0,0.0,0.0,0.0,0.0,0.0,0.0,0.0,0.0,0.0,0.0,0.0,0.0,0.0,0.0,0.0,0.0,0.0,0.0,0.0,0.0,0.0,0.0,0.0,0.0,0.0,-1.0425,0.0,0.0,0.0,0.0,0.0,0.0,0.0,0.0,0.0,0.0,0.0,0.0,0.0,0.0,-0.4794,-0.4407,-0.381,-0.3075,0.0,0.0,-0.1693,-0.1103,-0.1477,-0.1911,0.0,0.0,0.0,0.0,0.0,0.0,0.0,0.0,0.0,0.0,0.0,0.0,0.0,0.0,0.0,0.0,0.0,0.0,0.0,0.0,0.0,0.0,0.0,0.0,0.0,0.0,0.0,0.0,0.0,0.0,0.0,0.0,0.0,0.0,0.0,0.0,0.0,0.0,0.0,0.0,0.0,0.0,0.0,0.0,0.0,0.0,0.0,0.0,0.0,0.0,0.0,0.0,0.0,0.0,0.0,-1.3725,-1.2422,-1.177,-1.1765,-1.1118,-1.085,-1.1244,-1.1213,-1.168,0.0,0.0,0.0,0.0,0.0,0.0,0.0,0.0,0.0,0.0,0.0,0.0,0.0,0.0,0.0,0.0,0.0,0.0,0.0,0.0,0.0,0.0,0.0,0.0,0.0,0.0,0.0,0.0,0.0,0.0,0.0,0.0,0.0,0.0,0.0,0.0,0.0,0.0,0.0,0.0,0.0,-0.4784,-0.4097,-0.3489,-0.2894,0.0,0.0,-0.147,-0.1055,-0.1381,-0.17,-0.1936,0.0,0.0,0.0,0.0,0.0,0.0,0.0,0.0,0.0,0.0,0.0,0.0,0.0,0.0,0.0,0.0,0.0,0.0,0.0,0.0,0.0,0.0,0.0,0.0,0.0,0.0,0.0,0.0,0.0,0.0,0.0,0.0,0.0,0.0,0.0,0.0,0.0,0.0,0.0,0.0,0.0,0.0,0.0,0.0,0.0,0.0,0.0,0.0,0.0,0.0,0.0,0.0,0.0,-1.4016,-1.3562,-1.2369,-1.1656,-1.1616,-1.1003,-1.085,-1.1181,-1.1102,-1.1517,0.0,0.0,0.0,0.0,0.0,0.0,0.0,0.0,0.0,0.0,0.0,0.0,0.0,0.0,0.0,0.0,0.0,0.0,0.0,0.0,0.0,0.0,0.0,0.0,0.0,0.0,0.0,0.0,-0.8793,-0.8488,-0.8119,0.0,0.0,0.0,0.0,0.0,0.0,0.0,0.0,0.0,0.0,-0.4427,-0.3766,-0.2993,0.0,0.0,-0.114,-0.0806,-0.0468,-0.0663,-0.1052,-0.1308,-0.1947,0.0,0.0,0.0,0.0,0.0,0.0,0.0,0.0,0.0,0.0,0.0,0.0,0.0,0.0,0.0,0.0,0.0,0.0,0.0,0.0,0.0,0.0,0.0,0.0,0.0,0.0,0.0,0.0,0.0,0.0,0.0,0.0,0.0,0.0,0.0,0.0,0.0,0.0,0.0,0.0,0.0,0.0,0.0,0.0,0.0,0.0,0.0,0.0,0.0,0.0,0.0,0.0,-1.3857,-1.333,-1.2148,-1.1562,-1.1527,-1.0972,-1.0787,-1.1045,-1.1029,-1.1324,0.0,0.0,0.0,0.0,0.0,0.0,0.0,0.0,0.0,0.0,0.0,0.0,0.0,0.0,0.0,0.0,0.0,0.0,0.0,0.0,0.0,0.0,0.0,0.0,0.0,0.0,0.0,0.0,-0.8552,-0.8308,-0.8058,0.0,0.0,0.0,0.0,0.0,0.0,0.0,0.0,0.0,0.0,-0.415,-0.3498,-0.2629,-0.1864,-0.121,-0.0741,-0.0404,-0.0067,-0.0267,-0.0597,-0.0796,0.0,0.0,0.0,0.0,0.0,0.0,0.0,0.0,0.0,0.0,0.0,0.0,0.0,0.0,0.0,0.0,0.0,0.0,0.0,0.0,0.0,0.0,0.0,0.0,0.0,0.0,0.0,0.0,0.0,0.0,-1.8874,0.0,0.0,0.0,0.0,0.0,0.0,0.0,0.0,0.0,0.0,0.0,0.0,0.0,0.0,0.0,0.0,0.0,0.0,0.0,0.0,0.0,0.0,-1.349,-1.3014,-1.1827,-1.1299,-1.1455,-1.0968,-1.0717,-1.0717,-1.0898,-1.107,-1.1232,0.0,0.0,0.0,0.0,0.0,0.0,0.0,0.0,0.0,0.0,0.0,0.0,0.0,0.0,0.0,0.0,0.0,0.0,0.0,0.0,0.0,0.0,0.0,0.0,0.0,0.0,-0.8491,-0.8369,-0.8372,0.0,0.0,0.0,0.0,0.0,0.0,0.0,0.0,0.0,0.0,-0.4723,-0.3824,-0.3222,-0.2601,-0.1884,-0.1212,-0.0741,-0.0404,-0.0067,-0.0269,-0.0471,0.0,0.0,0.0,0.0,0.0,0.0,0.0,0.0,0.0,0.0,0.0,0.0,0.0,0.0,0.0,0.0,0.0,0.0,0.0,0.0,0.0,0.0,0.0,0.0,0.0,0.0,0.0,-1.7655,-1.7473,0.0,0.0,0.0,0.0,0.0,0.0,0.0,0.0,0.0,0.0,0.0,-1.6486,-1.6492,0.0,0.0,0.0,0.0,0.0,0.0,0.0,0.0,0.0,0.0,0.0,0.0,-1.3301,-1.2461,-1.153,-1.1077,-1.1051,-1.0493,-1.029,-1.0386,-1.0211,-1.0394,-1.0841,0.0,0.0,0.0,0.0,0.0,0.0,0.0,0.0,0.0,0.0,0.0,0.0,0.0,0.0,0.0,0.0,0.0,0.0,0.0,0.0,0.0,0.0,0.0,0.0,0.0,-0.8549,0.0,0.0,0.0,0.0,0.0,0.0,0.0,0.0,0.0,0.0,0.0,-0.595,-0.5541,-0.4507,-0.3603,-0.3163,-0.2136,-0.1346,0.0,0.0,0.0,0.0,0.0,0.0,0.0,0.0,0.0,0.0,0.0,0.0,0.0,0.0,-0.0598,-0.1469,-0.1203,-0.0735,-0.0267,0.0,0.0,0.0,0.0,0.0,0.0,0.0,0.0,0.0,0.0,0.0,0.0,0.0,0.0,-1.6669,0.0,-1.6794,0.0,0.0,0.0,0.0,0.0,0.0,0.0,0.0,-1.5894,-1.5597,-1.5494,-1.5494,-1.5412,0.0,-1.5242,-1.5306,0.0,0.0,0.0,0.0,0.0,0.0,0.0,0.0,-1.3084,-1.2182,-1.1383,-1.0874,-1.0594,-1.0229,-0.9976,-1.005,-0.9748,-0.9807,-1.033,-1.0587,-1.097,0.0,0.0,0.0,0.0,0.0,0.0,0.0,0.0,0.0,0.0,0.0,0.0,0.0,0.0,0.0,0.0,0.0,0.0,0.0,0.0,0.0,0.0,0.0,-0.8184,0.0,0.0,0.0,0.0,0.0,0.0,0.0,0.0,0.0,-0.7324,-0.6467,-0.569,-0.5239,-0.4165,-0.3301,-0.2854,0.0,0.0,0.0,0.0,0.0,0.0,0.0,0.0808,0.0606,0.0875,0.1077,0.0942,0.1211,0.1547,0.1815,0.0,0.0,0.0336,0.0471,0.0941,0.1547,0.2151,0.2688,0.3025,0.3359,0.3829,0.0,0.0,0.0,0.0,0.0,0.0,0.0,0.0,-1.5095,-1.5281,0.0,-1.5597,0.0,0.0,0.0,0.0,0.0,-1.5597,0.0,0.0,-1.4505,-1.4192,-1.4143,-1.4147,-1.4134,-1.4115,-1.3919,-1.3873,-1.3906,-1.4931,0.0,0.0,0.0,0.0,0.0,0.0,-1.2844,-1.2182,-1.1375,-1.0739,-1.0199,-1.0016,-0.9836,-0.9643,-0.9449,-0.9441,-0.9631,-0.955,-0.9848,-1.0675,-1.0728,0.0,0.0,0.0,0.0,0.0,0.0,0.0,0.0,0.0,0.0,0.0,0.0,0.0,0.0,0.0,0.0,0.0,0.0,0.0,0.0,-0.8175,0.0,0.0,0.0,0.0,0.0,0.0,0.0,0.0,0.0,0.0,-0.7025,-0.6114,-0.5292,-0.472,0.0,0.0,0.0,0.0,-0.0808,-0.0067,0.0337,0.0673,0.1077,0.1414,0.1683,0.1616,0.0,0.0,0.2757,0.3093,0.3296,0.3294,0.3899,0.3964,0.2624,0.2421,0.269,0.3632,0.4171,0.4505,0.4844,0.5324,0.5794,-1.0323,0.0,0.0,0.0,0.0,-1.2523,-1.2653,-1.2721,-1.3161,-1.3412,-1.3604,-1.4048,0.0,0.0,0.0,0.0,0.0,0.0,-1.4395,-1.4272,-1.3892,-1.3516,-1.3185,-1.3185,-1.3117,-1.2991,-1.2936,-1.2901,-1.2899,-1.3201,-1.3774,-1.4595,0.0,0.0,0.0,0.0,-1.2659,-1.1579,-1.108,-1.0515,-0.9801,-0.9466,-0.9023,-0.8456,-0.8456,-0.843,-0.8286,-0.859,-0.8943,-0.9329,-0.9576,0.0,0.0,0.0,0.0,0.0,0.0,0.0,0.0,0.0,0.0,0.0,0.0,0.0,0.0,0.0,0.0,0.0,0.0,0.0,-0.743,-0.7416,-0.748,0.0,0.0,0.0,0.0,0.0,0.0,0.0,0.0,0.0,-0.5901,-0.5119,-0.4371,0.0,0.0,-0.2211,-0.1547,-0.0808,-0.0067,0.0673,0.1077,0.0,0.1818,0.2355,0.2759,0.2758,0.3497,0.417,0.4572,0.4906,0.5242,0.5444,0.5912,0.6197,0.6115,0.5406,0.5109,0.5577,0.6225,0.6811,0.722,0.7883,0.8489,-0.7901,-0.8553,-0.9592,-1.0174,-1.0497,-1.069,-1.0948,-1.1142,-1.1463,-1.1845,-1.211,-1.2691,-1.3199,-1.3638,-1.4025,0.0,0.0,0.0,-1.3397,-1.3218,-1.2983,-1.2661,-1.2425,-1.2363,-1.2378,-1.2214,-1.2144,-1.2131,-1.2109,-1.2097,-1.2532,-1.3327,0.0,0.0,-1.3504,-1.3024,-1.2298,-1.1333,-1.097,-1.0325,-0.9365,-0.8791,-0.8256,-0.7873,-0.7816,-0.7693,-0.7455,-0.7705,-0.798,-0.8236,-0.8541,-0.9153,0.0,0.0,0.0,0.0,0.0,0.0,0.0,0.0,0.0,0.0,0.0,-1.1152,-1.1031,0.0,0.0,0.0,-0.8231,-0.7478,-0.7105,-0.7207,0.0,0.0,0.0,0.0,0.0,0.0,0.0,-0.6378,-0.5603,-0.486,-0.4364,-0.3539,-0.2989,-0.3054,-0.2275,-0.1414,-0.0404,0.0,0.074,0.1615,0.2019,0.2355,0.2759,0.3565,0.417,0.4437,0.5108,0.5792,0.6228,0.6568,0.6986,0.7358,0.7779,0.8141,0.8549,0.8159,0.7774,0.7704,0.8166,0.8831,0.9377,1.0054,1.0596,-0.5778,-0.5977,-0.7912,-0.8911,-0.9313,-0.931,-0.9579,-0.9978,-0.9975,-1.0373,-1.1035,-1.1442,-1.2037,-1.2684,-1.3013,0.0,-1.3149,-1.2568,-1.2239,-1.2177,-1.1846,-1.1648,-1.1648,-1.1648,-1.1648,-1.1641,-1.1489,-1.1408,-1.1444,-1.1414,-1.1631,-1.1982,-1.2413,-1.2797,-1.3084,-1.2479,-1.1877,-1.1277,-1.0986,-1.021,-0.9056,-0.8147,-0.7628,-0.7638,-0.7377,-0.7138,-0.7055,-0.7041,-0.7117,-0.7332,-0.7627,-0.8052,-0.8656,0.0,0.0,0.0,0.0,0.0,0.0,0.0,0.0,0.0,0.0,0.0,0.0,0.0,0.0,0.0,-0.7412,0.0,-0.7027,-0.712,0.0,0.0,0.0,-0.6717,-0.6317,-0.5981,-0.5646,-0.5245,0.0,0.0,-0.2622,-0.1615,-0.1144,-0.1748,-0.1278,-0.0404,0.1077,0.1279,0.1615,0.2757,0.316,0.3497,0.3969,0.485,0.5732,0.6335,0.687,0.7319,0.7735,0.8164,0.8615,0.8974,0.9429,0.9784,1.0137,1.0411,1.0697,1.0074,1.014,1.0556,1.1237,1.1742,1.2321,-0.4704,-0.4702,-0.5238,-0.6111,-0.7183,-0.7118,-0.7517,-0.8112,-0.8179,-0.8715,-0.9579,-0.9978,-1.0644,-1.1574,-1.1641,-1.1843,-1.2173,-1.1978,-1.1578,-1.1118,-1.0986,-1.0724,-1.0193,-1.0193,-1.0193,-1.0187,-1.0419,-1.054,-1.0685,-1.0998,-1.1352,-1.1795,-1.1809,-1.2016,-1.2423,-1.2294,-1.1752,-1.091,-1.0977,-1.0321,-0.9118,-0.8056,-0.7381,-0.7144,-0.6823,-0.6498,-0.6298,-0.6478,-0.661,-0.665,-0.6959,-0.7327,-0.7689,-0.8116,0.0,0.0,0.0,0.0,0.0,0.0,0.0,0.0,0.0,-0.9744,-0.9236,0.0,-0.8089,0.0,-0.655,-0.5954,-0.5697,-0.5773,0.0,0.0,-0.5501,-0.531,-0.5175,-0.4905,-0.4435,-0.3765,-0.3026,-0.2151,-0.1142,-0.0067,0.0807,0.1412,0.1009,0.1076,0.2489,0.269,0.3094,0.4101,0.464,0.4977,0.5383,0.6173,0.7029,0.7772,0.8184,0.8668,0.9109,0.9457,0.9742,0.9841,1.0401,1.0859,1.1037,1.1615,1.2296,1.2663,1.2463,1.2098,1.2583,1.352,1.4318,-0.3831,-0.3833,-0.3831,-0.4235,-0.5042,-0.5512,-0.6046,-0.6581,-0.6713,-0.7316,-0.8184,-0.8851,-0.9649,-1.0525,-1.0522,-1.0654,-1.0853,-1.0853,-1.0658,-1.0259,-1.0256,-1.006,-0.9731,-0.9731,-0.9731,-0.9731,-0.9861,-1.0085,-1.0333,-1.0459,-1.0837,-1.146,-1.1295,-1.1379,-1.1634,-1.1736,-1.1454,-1.0793,-1.0332,-0.9611,-0.861,-0.7691,-0.7069,-0.6791,-0.6394,-0.6124,-0.593,-0.6126,-0.616,-0.616,-0.6528,-0.6773,-0.6957,-0.7385,-0.7811,0.0,0.0,0.0,0.0,0.0,0.0,0.0,0.0,0.0,0.0,0.0,-0.7167,-0.6423,-0.5686,-0.518,-0.4849,-0.4885,-0.4842,-0.4708,-0.4304,-0.4034,-0.39,-0.3563,-0.3094,-0.2354,-0.1681,-0.0807,0.0269,0.1345,0.2422,0.3497,0.3295,0.3296,0.3968,0.417,0.4505,0.5377,0.5848,0.6331,0.6838,0.7542,0.8163,0.8716,0.9181,0.9663,1.0068,1.036,1.0588,1.0997,1.1369,1.1808,1.2179,1.2693,1.3365,1.3926,1.4173,1.4247,1.4455,1.5304,1.6089,-0.2959,-0.3027,-0.296,-0.3027,-0.3095,-0.4102,-0.4775,-0.5245,-0.5579,-0.6182,-0.6987,-0.8056,-0.8923,-0.9528,-0.9594,-0.9661,-0.9731,-0.9731,-0.9661,-0.9661,-0.9594,-0.9594,-0.9528,-0.9594,-0.9594,-0.9594,-0.9594,-0.9794,-1.0054,-0.9995,-1.0325,-1.09,-1.0824,-1.0868,-1.104,-1.1118,-1.1035,-1.073,-0.9493,-0.8573,-0.8008,-0.7294,-0.6798,-0.6499,-0.6104,-0.5873,-0.5873,-0.5802,-0.5794,-0.5794,-0.6035,-0.6219,-0.6221,-0.6846,-0.716,0.0,-0.7477,0.0,0.0,0.0,0.0,0.0,0.0,0.0,0.0,-0.6669,-0.6163,-0.524,-0.4842,-0.4437,-0.4167,-0.4106,-0.3973,-0.3635,-0.3234,-0.2898,-0.2557,-0.2221,-0.1683,-0.0943,-0.0202,0.0606,0.175,0.2758,0.3833,0.4772,0.5243,0.558,0.5781,0.5714,0.5848,0.652,0.6987,0.755,0.8267,0.8798,0.9232,0.959,0.9977,1.0363,1.0905,1.0999,1.1322,1.2008,1.2244,1.2534,1.3257,1.3682,1.411,1.4688,1.5461,1.6089,1.6164,1.679,1.7575,-0.1884,-0.1884,-0.1884,-0.1884,-0.1952,-0.276,-0.3499,-0.4104,-0.444,-0.5381,-0.6654,-0.7722,-0.8387,-0.879,-0.912,-0.9389,-0.9731,-0.9731,-0.9525,-0.9253,-0.9186,-0.9053,-0.879,-0.8787,-0.879,-0.8856,-0.9053,-0.9253,-0.9316,-0.9634,-1.0082,-1.0739,-1.0589,-1.0755,-1.1298,0.0,0.0,0.0,-0.919,-0.8452,-0.8132,-0.748,-0.6969,-0.6668,-0.6009,0.0,-0.5647,-0.5275,-0.5118,-0.5118,-0.5179,0.0,0.0,0.0,0.0,0.0,0.0,0.0,0.0,0.0,0.0,0.0,-0.5756,-0.5907,-0.591,-0.5248,-0.4562,-0.417,-0.3699,-0.3362,-0.3026,-0.2989,-0.286,-0.2495,-0.2176,-0.1772,-0.1416,-0.1077,-0.0471,0.0539,0.1077,0.1817,0.3162,0.4035,0.4908,0.5981,0.6451,0.7051,0.7853,0.7183,0.6985,0.7655,0.8259,0.8898,0.9493,0.977,1.0041,1.048,1.075,1.096,1.1415,1.1715,1.1933,1.2266,1.2692,1.3186,1.3686,1.4114,1.4692,1.5687,1.6245,1.6593,1.6664,1.7439,1.8288,-0.1616,0.0,-0.1616,-0.1616,0.0,-0.2222,-0.276,-0.3298,-0.3836,-0.4842,-0.625,-0.6987,-0.7722,-0.8323,-0.8523,-0.879,-0.9123,-0.9125,-0.9053,-0.8851,-0.8851,-0.8787,-0.8587,-0.8587,-0.8587,-0.8587,-0.8787,-0.8917,-0.9117,-0.9322,-0.9655,-1.019,-1.0116,-1.0176,-1.0422,-0.9643,-0.9318,-0.95,-0.8741,-0.8137,-0.7734,-0.7041,-0.6503,-0.6184,-0.5629,0.0,0.0,0.0,0.0,0.0,0.0,0.0,0.0,0.0,0.0,-0.4779,-0.494,-0.5088,-0.509,-0.5157,-0.5004,-0.4478,-0.4203,-0.4292,-0.4727,-0.402,-0.3363,-0.3028,-0.2624,-0.2294,-0.197,-0.1915,-0.1855,-0.1649,-0.1168,-0.0754,-0.0544,0.0068,0.0808,0.1548,0.2221,0.3095,0.417,0.5109,0.5981,0.6851,0.7452,0.8053,0.8587,0.8251,0.8053,0.8795,0.918,0.9596,0.9933,1.0275,1.0553,1.0909,1.1139,1.1469,1.1835,1.2054,1.2338,1.2692,1.3043,1.3468,1.4047,1.4479,1.5048,1.5966,1.6598,1.7228,1.7721,1.8422,1.9128,-0.1616,-0.1616,-0.1616,-0.1616,-0.1616,-0.202,-0.2491,-0.2963,0.0,0.0,0.0,-0.6317,-0.7056,-0.7992,-0.8058,-0.8256,-0.8587,-0.8587,-0.8587,-0.8587,-0.8587,-0.8587,-0.8587,-0.8587,-0.8587,-0.8587,-0.8587,-0.8717,-0.8984,-0.8984,-0.9186,-0.9528,-0.9594,-0.9471,-0.9228,-0.8539,-0.8232,-0.8355,-0.8082,-0.7667,-0.71,-0.6452,-0.5904,-0.5519,-0.5117,-0.4888,-0.4764,-0.4744,-0.4639,-0.4386,-0.4321,-0.4193,-0.3868,-0.3812,-0.3817,-0.3819,-0.3826,-0.3768,-0.3768,-0.381,-0.3637,-0.324,-0.2739,-0.269,-0.3365,-0.2892,-0.2354,-0.202,-0.1683,-0.1353,-0.1026,-0.0892,-0.0897,-0.0835,-0.0207,0.0206,0.0411,0.1153,0.1885,0.2558,0.3365,0.4237,0.5042,0.5981,0.6853,0.7584,0.8251,0.8853,0.9186,0.9053,0.9056,0.9601,0.9862,1.0054,1.0272,1.0607,1.0908,1.1096,1.1374,1.176,1.2051,1.2266,1.2549,1.3114,1.3325,1.3757,1.4403,1.4763,1.5332,1.6183,1.6885,1.7655,1.8778,1.9332,1.9825,-0.1616,-0.1616,-0.1616,-0.1616,-0.1616,-0.202,-0.276,-0.3633,-0.4038,-0.471,-0.5515,-0.6185,-0.6924,-0.7593,-0.7925,-0.8256,-0.8587,-0.8587,-0.8587,-0.8587,-0.8587,-0.8587,-0.8587,-0.8587,-0.8587,-0.8587,-0.8587,-0.8587,-0.8653,-0.8653,-0.8853,-0.9117,-0.9186,-0.9042,-0.8695,-0.835,-0.7811,-0.7272,-0.7121,-0.6823,-0.6448,-0.6113,-0.5612,-0.4944,-0.4557,-0.4199,-0.3863,-0.3567,-0.3354,-0.3291,-0.3291,-0.3291,-0.3227,-0.3199,-0.3221,-0.3222,-0.2989,-0.2875,-0.2875,-0.2614,-0.2283,-0.1879,-0.1546,-0.1481,-0.1885,-0.1818,-0.1615,-0.1279,-0.1144,-0.101,-0.0608,-0.0341,-0.0068,0.0272,0.0683,0.1163,0.1761,0.2023,0.2626,0.3769,0.4105,0.4777,0.5982,0.665,0.7319,0.8253,0.8784,0.925,0.9785,0.999,0.999,1.0127,1.0402,1.0615,1.07,1.0967,1.118,1.1325,1.1453,1.1732,1.2176,1.2527,1.2885,1.3253,1.3543,1.4043,1.4763,1.4977,1.5541,1.6673,1.7168,1.7801,1.9052,1.9541,1.9959,-0.1616,-0.1616,-0.1616,-0.1751,-0.1953,-0.2759,-0.3432,-0.4105,-0.444,-0.4977,-0.5646,-0.6048,-0.6652,-0.7459,-0.7724,-0.8056,-0.8587,-0.8587,-0.8587,-0.8587,-0.8587,-0.8587,-0.8587,-0.8587,-0.8587,-0.8587,-0.8587,-0.8523,-0.8323,-0.8323,-0.8323,-0.8256,-0.8256,-0.8053,-0.772,-0.7388,-0.6989,-0.6447,-0.6541,-0.6388,-0.5795,-0.5294,-0.4757,-0.419,-0.3859,-0.3585,-0.3362,-0.3034,-0.2772,-0.2642,-0.2378,-0.2246,-0.2047,-0.1993,-0.2001,-0.2001,-0.1877,-0.1816,-0.1816,-0.1682,-0.1414,-0.101,-0.0673,-0.0471,-0.0471,-0.0808,-0.0875,-0.0539,-0.0337,-0.0068,0.034,0.0479,0.0688,0.0826,0.1307,0.1851,0.218,0.2973,0.3567,0.4241,0.5045,0.585,0.6652,0.7254,0.792,0.8717,0.9319,0.9921,1.0386,1.0455,1.0455,1.0525,1.0588,1.0722,1.085,1.0931,1.1104,1.1243,1.1465,1.1825,1.225,1.2697,1.3086,1.3519,1.3829,1.4118,1.4621,1.4906,1.5612,1.6598,1.7163,1.7866,1.9047,1.9959,2.0723,-0.1751,-0.1885,-0.1885,-0.2087,-0.249,-0.35,-0.4104,-0.4441,-0.4975,-0.5577,-0.6113,-0.6048,-0.6652,-0.7591,-0.766,-0.7989,-0.852,-0.8587,-0.8587,-0.8587,-0.8587,-0.8587,-0.8587,-0.8587,-0.8587,-0.852,-0.852,-0.8323,-0.7992,-0.7992,-0.7789,-0.739,-0.7323,-0.7121,-0.6782,-0.6317,-0.5915,-0.5579,-0.5781,-0.5647,-0.518,-0.4372,-0.3748,-0.3382,-0.3009,-0.2745,-0.2653,-0.2475,-0.222,-0.1953,-0.1683,-0.1346,-0.1144,-0.1077,-0.1077,-0.1077,-0.101,-0.0875,-0.0741,-0.0741,-0.0606,-0.0135,0.0067,0.0337,0.0539,0.0135,-0.0067,0.0202,0.0471,0.0744,0.1023,0.1231,0.1374,0.1387,0.1997,0.2529,0.2733,0.3658,0.4441,0.4777,0.5783,0.6654,0.7187,0.7789,0.8523,0.9253,0.9921,1.0389,1.0654,1.0721,1.0721,1.0721,1.0721,1.0758,1.088,1.0867,1.0995,1.1104,1.1427,1.1851,1.2363,1.2746,1.32,1.3584,1.3766,1.399,1.4319,1.469,1.534,1.6357,1.6951,1.7796,1.9186,2.0306,2.1214,-0.2357,-0.2559,-0.2559,-0.2827,-0.3162,-0.3971,-0.444,-0.4908,-0.5848,-0.6518,-0.6851,-0.6585,-0.7054,-0.7925,-0.8058,-0.8256,-0.8587,-0.8587,-0.8587,-0.8587,-0.8587,-0.8587,-0.8587,-0.8587,-0.8454,-0.8189,-0.8125,-0.7925,-0.7524,-0.7524,-0.7321,-0.7054,-0.6719,-0.6384,-0.5981,-0.5309,-0.4774,-0.4441,-0.4171,-0.4171,-0.4307,-0.3362,-0.2689,-0.2352,-0.1951,-0.1615,-0.1343,-0.1278,-0.1212,-0.1212,-0.1144,-0.1144,-0.1077,-0.1077,-0.1077,-0.1077,-0.0741,-0.0337,0.0269,0.0337,0.0471,0.0875,0.0943,0.101,0.101,0.101,0.0943,0.101,0.1077,0.1079,0.1147,0.1687,0.2096,0.2101,0.2704,0.337,0.3913,0.4245,0.4844,0.6185,0.6453,0.6855,0.7789,0.839,0.8989,0.9854,1.0323,1.0588,1.0651,1.0721,1.0721,1.0721,1.0721,1.0724,1.0768,1.0796,1.086,1.0972,1.1347,1.1826,1.2203,1.2635,1.2999,1.3429,1.3465,1.3661,1.41,1.4575,1.5122,1.5976,1.6801,1.777,1.9186,2.015,2.0906,-0.2894,-0.3028,-0.3027,-0.3297,-0.3902,-0.4642,-0.5247,-0.585,-0.6317,-0.6922,-0.7591,-0.7522,-0.7724,-0.8056,-0.8056,-0.8256,-0.8587,-0.8587,-0.8587,-0.8587,-0.8587,-0.8523,-0.8323,-0.8323,-0.8123,-0.7794,-0.7727,-0.7457,-0.6922,-0.6453,-0.6185,-0.6049,-0.5713,-0.531,-0.4977,-0.4438,-0.3902,-0.3362,-0.3027,-0.2827,-0.2692,-0.249,-0.2154,-0.1616,-0.1346,-0.1279,-0.1077,-0.0875,-0.0741,-0.0741,-0.0539,-0.0471,-0.0471,-0.0471,-0.0404,-0.0404,-0.0135,0.0337,0.0808,0.0875,0.0943,0.1077,0.1279,0.1481,0.1751,0.1953,0.2087,0.2288,0.2019,0.1818,0.202,0.2491,0.2827,0.2893,0.3431,0.3969,0.4239,0.5111,0.5917,0.6453,0.7056,0.7658,0.8323,0.9056,0.9658,1.019,1.0455,1.0721,1.0721,1.0721,1.0721,1.0721,1.0721,1.0721,1.0724,1.0765,1.0812,1.0826,1.1125,1.1518,1.2033,1.2455,1.2826,1.3271,1.3344,1.3433,1.3669,1.403,1.4548,1.5478,1.6786,1.784,1.86,1.9531,2.0335,-0.3295,-0.3497,-0.3699,-0.4104,-0.4642,-0.5381,-0.5984,-0.652,-0.6788,-0.739,-0.8056,-0.8189,-0.8256,-0.8259,-0.8256,-0.839,-0.8587,-0.8587,-0.852,-0.8454,-0.8454,-0.8256,-0.7992,-0.7925,-0.7658,-0.7259,-0.7192,-0.6857,-0.6185,-0.5582,-0.5178,-0.5045,-0.4707,-0.4372,-0.3971,-0.3566,-0.3095,-0.2557,-0.2154,-0.1683,-0.1414,-0.1616,-0.1481,-0.101,-0.0875,-0.0808,-0.0808,-0.0471,-0.0337,-0.0337,-0.0135,0.0,0.0,0.0,0.0,0.0135,0.0471,0.0808,0.1212,0.1212,0.1346,0.1548,0.1751,0.2087,0.2423,0.2693,0.2961,0.3297,0.3028,0.2828,0.2828,0.323,0.3498,0.3564,0.4171,0.4642,0.4978,0.5917,0.6589,0.6922,0.7591,0.8325,0.8856,0.9591,1.019,1.0389,1.0588,1.0721,1.0721,1.0721,1.0721,1.0721,1.0721,1.0721,1.0721,1.0727,1.0721,1.0784,1.1003,1.1378,1.1728,1.2078,1.2425,1.2641,1.2922,1.319,1.3219,1.35,1.4143,1.5128,1.6297,1.7495,1.8074,1.8857,1.9681,-0.3632,-0.4307,-0.4978,-0.5314,-0.5381,-0.6118,-0.6453,-0.6654,-0.7588,-0.8058,-0.8189,-0.8456,-0.8587,-0.8587,-0.852,-0.8587,-0.8587,-0.8587,-0.839,-0.8192,-0.8123,-0.7925,-0.7526,-0.7526,-0.719,-0.6587,-0.652,-0.6185,-0.5448,-0.5042,-0.4641,-0.4307,-0.3971,-0.3632,-0.3229,-0.2625,-0.2289,-0.2087,-0.1481,-0.0943,-0.0606,-0.0606,-0.0606,-0.0539,-0.0202,0.0,0.0,0.0,0.0,0.0,0.0,0.0,0.0,0.0,0.0135,0.0471,0.0875,0.1212,0.1548,0.1616,0.1885,0.2425,0.2559,0.276,0.3095,0.3229,0.3431,0.3767,0.4038,0.3903,0.3498,0.3902,0.4239,0.4305,0.4911,0.558,0.6252,0.6453,0.6987,0.7722,0.8125,0.8662,0.9528,0.999,1.0323,1.0588,1.0721,1.0721,1.0721,1.0721,1.0721,1.0721,1.0721,1.0721,1.0721,1.0721,1.0721,1.0717,1.092,1.1188,1.1321,1.1527,1.1744,1.202,1.2332,1.2594,1.2736,1.3271,1.4135,1.4985,1.5774,1.6716,1.7375,1.8272,1.9019,-0.4775,-0.5111,-0.5781,-0.6118,-0.6185,-0.6857,-0.7257,-0.7524,-0.7925,-0.8256,-0.839,-0.852,-0.8587,-0.8587,-0.8587,-0.8587,-0.8587,-0.839,-0.8189,-0.8056,-0.7858,-0.7524,-0.7187,-0.6989,-0.6654,-0.6182,-0.5915,-0.5381,-0.471,-0.4102,-0.3698,-0.3498,-0.3028,-0.2692,-0.249,-0.1817,-0.1414,-0.1077,-0.0808,-0.0539,0.0,-0.0202,-0.0202,-0.0135,-0.0067,0.0,0.0,0.0,0.0,0.0,0.0,0.0,0.0,0.0202,0.0606,0.1144,0.1346,0.1548,0.1953,0.2155,0.2425,0.2627,0.2894,0.3297,0.3768,0.3902,0.4171,0.471,0.4911,0.491,0.4973,0.4977,0.5111,0.5377,0.5781,0.6317,0.6786,0.7254,0.7724,0.8125,0.8659,0.9395,0.9861,1.0326,1.0522,1.0654,1.0721,1.0721,1.0721,1.0721,1.0721,1.0721,1.0721,1.0721,1.0721,1.0721,1.0721,1.0721,1.0853,1.0986,1.1181,1.1251,1.1468,1.1869,1.2114,1.2324,1.257,1.3111,1.3966,1.4356,1.5139,1.6035,1.6671,1.7486,1.8239,-0.5783,-0.5848,-0.652,-0.6855,-0.6857,-0.7457,-0.7858,-0.8123,-0.8189,-0.839,-0.8587,-0.8587,-0.8587,-0.8587,-0.8587,-0.852,-0.8456,-0.8323,-0.8123,-0.7858,-0.7524,-0.7054,-0.665,-0.6317,-0.5848,-0.5377,-0.4908,-0.4371,-0.3768,-0.3162,-0.2825,-0.2624,-0.2087,-0.1885,-0.1751,-0.1212,-0.0741,-0.0539,-0.0404,-0.0202,0.0,0.0,0.0,0.0,0.0,0.0,0.0,0.0,0.0,0.0,0.0,0.0067,0.0,0.0606,0.1077,0.1548,0.1683,0.1885,0.2222,0.2492,0.2761,0.2895,0.3297,0.3834,0.4374,0.471,0.5112,0.5582,0.5848,0.6049,0.625,0.6183,0.6116,0.6315,0.6585,0.6991,0.7321,0.7853,0.8325,0.8726,0.9328,0.9927,1.0193,1.0455,1.0654,1.0721,1.0721,1.0721,1.0721,1.0721,1.0721,1.0721,1.0721,1.0721,1.0721,1.0721,1.0721,1.0721,1.0721,1.085,1.0916,1.1052,1.1251,1.1648,1.1978,1.2243,1.2572,1.3038,1.3428,1.3748,1.4458,1.5417,1.6039,1.6652,1.7456,-0.652,-0.6587,-0.7259,-0.7459,-0.7526,-0.7925,-0.8123,-0.8192,-0.8456,-0.8587,-0.8587,-0.8587,-0.8587,-0.8587,-0.859,-0.839,-0.8256,-0.8323,-0.8125,-0.7524,-0.7121,-0.6581,-0.5912,-0.558,-0.4978,-0.4305,-0.3565,-0.3094,-0.2758,-0.2355,-0.2019,-0.1616,-0.1346,-0.1144,-0.1077,-0.0741,-0.0471,-0.0404,-0.0202,0.0,0.0,0.0,0.0,0.0,0.0,0.0,0.0,0.0,0.0,0.0,0.0,0.0,0.0606,0.1144,0.1616,0.1683,0.1953,0.2155,0.229,0.2559,0.2895,0.3296,0.3903,0.444,0.4975,0.5444,0.5982,0.6453,0.6719,0.7054,0.7323,0.739,0.7321,0.7121,0.7323,0.7658,0.8058,0.839,0.8856,0.9525,0.9927,1.019,1.0256,1.0522,1.0717,1.0721,1.0721,1.0721,1.0721,1.0721,1.0721,1.0721,1.0721,1.0721,1.0721,1.0721,1.0721,1.0721,1.0721,1.0784,1.0784,1.0853,1.1052,1.1446,1.1909,1.2177,1.2375,1.284,1.3235,1.3625,1.4286,1.481,1.5437,1.6,1.6686,-0.7192,-0.7259,-0.7724,-0.7925,-0.7925,-0.8323,-0.8456,-0.8454,-0.8587,-0.8587,-0.8587,-0.8587,-0.8587,-0.852,-0.839,-0.8189,-0.8123,-0.7925,-0.7591,-0.7121,-0.6516,-0.5981,-0.5513,-0.4911,-0.4104,-0.3295,-0.2759,-0.2289,-0.1951,-0.1615,-0.1346,-0.1212,-0.0875,-0.0673,-0.0673,-0.0337,-0.0135,-0.0135,-0.0067,0.0,0.0,0.0,0.0,0.0,0.0,0.0,0.0,0.0,0.0,0.0337,0.0337,0.0606,0.1144,0.1481,0.1751,0.1953,0.2087,0.229,0.2558,0.2828,0.3296,0.3902,0.4372,0.5042,0.5848,0.6185,0.6585,0.7058,0.7323,0.7457,0.7858,0.8123,0.8123,0.7789,0.8056,0.839,0.8723,0.9125,0.9525,0.9924,1.0127,1.0259,1.0455,1.0651,1.0717,1.0721,1.0721,1.0721,1.0721,1.0721,1.0721,1.0721,1.0721,1.0721,1.0721,1.0721,1.0721,1.0721,1.0721,1.0721,1.0721,1.0721,1.0916,1.1247,1.1776,1.2111,1.2375,1.2642,1.3038,1.3301,1.3761,1.4281,1.48,1.5383,1.6034,-0.7727,-0.7791,-0.8123,-0.8325,-0.8323,-0.852,-0.8587,-0.8587,-0.8587,-0.8587,-0.8587,-0.8456,-0.839,-0.8323,-0.8058,-0.7724,-0.7524,-0.7257,-0.6853,-0.6449,-0.5982,-0.5446,-0.4911,-0.3971,-0.323,-0.2557,-0.2019,-0.1616,-0.1212,-0.101,-0.0808,-0.0673,-0.0404,-0.0337,-0.0269,0.0,0.0,0.0,0.0,0.0,0.0,0.0,0.0,0.0,0.0,0.0,0.0,0.0135,0.0269,0.0539,0.0741,0.1144,0.1548,0.1751,0.1953,0.2155,0.2222,0.2357,0.2694,0.3028,0.3497,0.4171,0.4775,0.5444,0.6319,0.6654,0.7125,0.7593,0.7992,0.8189,0.8456,0.879,0.8856,0.8728,0.8856,0.9123,0.9455,0.9724,0.9994,1.0326,1.0389,1.0518,1.0651,1.0721,1.0721,1.0721,1.0721,1.0721,1.0721,1.0721,1.0721,1.0721,1.0721,1.0721,1.0721,1.0721,1.0721,1.0721,1.0721,1.0721,1.0721,1.0721,1.0853,1.1314,1.1776,1.2107,1.2375,1.2638,1.2968,1.3104,1.3301,1.3757,1.4342,1.48,1.5448,-0.8123,-0.8192,-0.8454,-0.8587,-0.8587,-0.8587,-0.8587,-0.8587,-0.8587,-0.8587,-0.8523,-0.8259,-0.8125,-0.7992,-0.7591,-0.7123,-0.6587,-0.6453,-0.6051,-0.5515,-0.518,-0.4777,-0.3971,-0.2828,-0.2155,-0.1885,-0.1414,-0.0943,-0.0539,-0.0471,-0.0337,-0.0135,0.0,0.0,0.0,0.0,0.0,0.0,0.0,0.0,0.0,0.0,0.0,0.0,0.0,0.0,0.0,0.0404,0.0606,0.0673,0.1279,0.1616,0.1683,0.202,0.2155,0.2222,0.2222,0.2424,0.2693,0.3028,0.3565,0.4374,0.5045,0.5716,0.652,0.719,0.7658,0.8123,0.8653,0.9053,0.912,0.9455,0.9661,0.9728,0.9661,0.9794,1.0123,1.0259,1.0392,1.0588,1.0721,1.0721,1.0721,1.0721,1.0721,1.0721,1.0721,1.0721,1.0721,1.0721,1.0721,1.0721,1.0721,1.0721,1.0721,1.0721,1.0721,1.0721,1.0721,1.0721,1.0853,1.0853,1.0986,1.1449,1.1909,1.2173,1.2375,1.2638,1.277,1.2902,1.3165,1.3494,1.3888,1.4342,1.4996,-0.8456,-0.8456,-0.8587,-0.8587,-0.8587,-0.8587,-0.8587,-0.8587,-0.8587,-0.8456,-0.8256,-0.8123,-0.7858,-0.7593,-0.7056,-0.6656,-0.6319,-0.5917,-0.5314,-0.4575,-0.3968,-0.3432,-0.2693,-0.1818,-0.1279,-0.101,-0.0808,-0.0471,-0.0135,0.0,0.0,0.0,0.0,0.0,0.0,0.0,0.0,0.0,0.0,0.0,0.0,0.0,0.0,0.0,0.0,0.0,0.0404,0.101,0.1279,0.1346,0.1751,0.202,0.202,0.2155,0.2222,0.2222,0.2222,0.249,0.296,0.3161,0.3767,0.4978,0.5446,0.6183,0.7125,0.7658,0.8189,0.8653,0.905,0.9253,0.9522,0.9857,1.0127,1.0389,1.0193,1.019,1.0455,1.0588,1.0588,1.0717,1.0721,1.0721,1.0721,1.0721,1.0721,1.0721,1.0721,1.0721,1.0721,1.0721,1.0721,1.0721,1.0721,1.0721,1.0721,1.0721,1.0721,1.0721,1.0721,1.0721,1.0986,1.1185,1.1383,1.1714,1.2177,1.2572,1.2507,1.2572,1.2638,1.277,1.2902,1.3165,1.3494,1.3884,1.46,-0.8587,-0.8587,-0.8587,-0.8587,-0.8587,-0.8587,-0.8587,-0.8587,-0.8454,-0.8323,-0.8056,-0.7724,-0.7455,-0.7056,-0.652,-0.5982,-0.5582,-0.5112,-0.4508,-0.3768,-0.296,-0.2288,-0.1683,-0.1077,-0.0741,-0.0539,-0.0337,-0.0202,0.0,0.0,0.0,0.0,0.0,0.0,0.0,0.0,0.0,0.0,0.0,0.0,0.0,0.0,0.0,0.0,0.0,0.0202,0.0741,0.1279,0.1683,0.1818,0.2087,0.2222,0.2222,0.2222,0.2222,0.2222,0.2222,0.249,0.3026,0.3228,0.3901,0.5111,0.5713,0.6449,0.7323,0.7992,0.8587,0.8984,0.9319,0.9655,0.9927,1.0193,1.0455,1.0585,1.0522,1.0455,1.0651,1.0721,1.0721,1.0721,1.0721,1.0721,1.0721,1.0721,1.0721,1.0721,1.0721,1.0721,1.0721,1.0721,1.0721,1.0721,1.0721,1.0721,1.0721,1.0721,1.0721,1.0721,1.0853,1.0853,1.1118,1.1512,1.178,1.2111,1.2507,1.277,1.2704,1.2638,1.2704,1.277,1.277,1.2968,1.3297,1.3687,1.4338,-0.8587,-0.8587,-0.8587,-0.8587,-0.8587,-0.8587,-0.859,-0.8454,-0.8256,-0.8069,-0.7813,-0.7273,-0.6827,-0.6413,-0.5904,-0.5207,-0.44,-0.4277,-0.3728,-0.2917,-0.2035,-0.1356,-0.1014,-0.0674,-0.0471,-0.0337,-0.0135,0.0,0.0,0.0,0.0,0.0,0.0,0.0,0.0,0.0,0.0,0.0,0.0,0.0,0.0,0.0,0.0,0.0,0.0,0.0539,0.1077,0.1481,0.1818,0.2155,0.2222,0.2222,0.2222,0.2222,0.2222,0.2222,0.2222,0.249,0.3026,0.3228,0.3833,0.5111,0.578,0.6382,0.739,0.8189,0.8784,0.9186,0.9791,1.0123,1.0256,1.0522,1.0654,1.0717,1.0717,1.0717,1.0721,1.0721,1.0721,1.0721,1.0721,1.0721,1.0721,1.0721,1.0721,1.0721,1.0721,1.0721,1.0721,1.0721,1.0721,1.0721,1.0721,1.0721,1.0721,1.0721,1.0721,1.0721,1.0982,1.1115,1.138,1.1714,1.2111,1.2441,1.2704,1.277,1.277,1.277,1.277,1.277,1.277,1.2968,1.3235,1.3617,1.4202,-0.8587,-0.8587,-0.8587,-0.8587,-0.8587,-0.8587,-0.8459,-0.8197,-0.813,-0.7783,-0.7292,-0.6832,-0.6459,-0.6103,-0.5194,-0.4583,-0.4227,-0.3744,-0.2989,-0.1947,-0.1182,-0.0553,0.0,0.0,0.0,0.0,0.0,0.0,0.0,0.0,0.0,0.0,0.0,0.0,0.0,0.0,0.0,0.0,0.0,0.0,0.0,0.0,0.0,0.0067,0.0539,0.101,0.1481,0.1885,0.2087,0.2155,0.2222,0.2222,0.2222,0.2222,0.2222,0.2222,0.2222,0.249,0.3026,0.3295,0.3834,0.5178,0.5917,0.6652,0.7459,0.8454,0.912,0.9525,0.9927,1.0326,1.0522,1.0651,1.0717,1.0721,1.0721,1.0721,1.0721,1.0721,1.0721,1.0721,1.0721,1.0721,1.0721,1.0721,1.0721,1.0721,1.0721,1.0721,1.0721,1.0721,1.0721,1.0721,1.0721,1.0721,1.0721,1.0721,1.0721,1.0787,1.0982,1.1247,1.1512,1.1912,1.2243,1.2507,1.277,1.277,1.277,1.277,1.277,1.277,1.277,1.2902,1.3099,1.3551,1.394,-0.8622,-0.8758,-0.8758,-0.8622,-0.8554,-0.8486,-0.8282,-0.7939,-0.7805,-0.7424,-0.6915,-0.6509,-0.5913,-0.5251,-0.4692,-0.4201,-0.3573,-0.2875,-0.2034,-0.1192,-0.0631,-0.0349,0.0,0.0,0.0,0.0,0.0,0.0,0.0,0.0,0.0,0.0,0.0,0.0,0.0,0.0,0.0,0.0,0.0,0.0,0.0,0.0,0.0135,0.0269,0.0808,0.1279,0.1548,0.1953,0.2155,0.2222,0.2222,0.2222,0.2222,0.2222,0.2222,0.2222,0.2222,0.2558,0.3026,0.3294,0.3833,0.5312,0.6051,0.6721,0.7591,0.8656,0.9392,0.9728,1.0127,1.0525,1.0654,1.0721,1.0721,1.0721,1.0721,1.0721,1.0721,1.0721,1.0721,1.0721,1.0721,1.0721,1.0721,1.0721,1.0721,1.0721,1.0721,1.0721,1.0721,1.0721,1.0721,1.0721,1.0721,1.0721,1.0721,1.0721,1.0721,1.0784,1.0982,1.1185,1.1317,1.1846,1.2379,1.2572,1.277,1.277,1.277,1.277,1.277,1.277,1.277,1.277,1.2964,1.3486,1.3809,-0.8465,-0.8743,-0.874,-0.8604,-0.8328,-0.8253,-0.8032,-0.7618,-0.7348,-0.6922,-0.6527,-0.6109,-0.528,-0.4584,-0.4236,-0.3596,-0.2682,-0.1908,-0.1134,-0.0709,-0.0496,-0.0212,0.0,0.0,0.0,0.0,0.0,0.0,0.0,0.0,0.0,0.0,0.0,0.0,0.0,0.0,0.0,0.0,0.0,0.0,0.0,0.0,0.0,0.0606,0.0875,0.1346,0.1683,0.202,0.2222,0.2222,0.2222,0.2222,0.2222,0.2222,0.2222,0.2222,0.2222,0.2558,0.3026,0.3295,0.3833,0.5247,0.6051,0.6721,0.7591,0.8659,0.9395,0.9861,1.019,1.0654,1.0721,1.0721,1.0721,1.0721,1.0721,1.0721,1.0721,1.0721,1.0721,1.0721,1.0721,1.0721,1.0721,1.0721,1.0721,1.0721,1.0721,1.0721,1.0721,1.0721,1.0721,1.0721,1.0721,1.0721,1.0721,1.0721,1.0721,1.0784,1.0982,1.1052,1.1251,1.1714,1.2177,1.2572,1.2704,1.277,1.277,1.277,1.277,1.277,1.277,1.277,1.303,1.342,1.3682,-0.7903,-0.7973,-0.7973,-0.7903,-0.7905,-0.7908,-0.7497,-0.6926,-0.6801,-0.6413,-0.5833,-0.5127,-0.4801,-0.4327,-0.3475,-0.2679,-0.1949,-0.1227,-0.0723,-0.0506,0.0,0.0,0.0,0.0,0.0,0.0,0.0,0.0,0.0,0.0,0.0,0.0,0.0,0.0,0.0,0.0,0.0,0.0,0.0,0.0,0.0,0.0,0.0,0.0808,0.1077,0.1414,0.1953,0.2155,0.2222,0.2222,0.2222,0.2222,0.2222,0.2222,0.2222,0.2222,0.2222,0.249,0.3094,0.3228,0.3968,0.5111,0.5982,0.6721,0.7524,0.852,0.9322,0.9861,1.0256,1.0721,1.0721,1.0721,1.0721,1.0721,1.0721,1.0721,1.0721,1.0721,1.0721,1.0721,1.0721,1.0721,1.0721,1.0721,1.0721,1.0721,1.0721,1.0721,1.0721,1.0721,1.0721,1.0721,1.0721,1.0721,1.0721,1.0721,1.0721,1.0721,1.085,1.092,1.1185,1.1582,1.1978,1.2309,1.2572,1.277,1.277,1.277,1.277,1.277,1.277,1.277,1.303,1.3227,1.3621,-0.7213,-0.7356,-0.7358,-0.7285,-0.714,-0.7069,-0.6784,-0.6288,-0.6217,-0.581,-0.5261,-0.4766,-0.4272,-0.3713,-0.2989,-0.2115,-0.124,-0.0802,-0.0511,-0.0292,0.0,0.0,0.0,0.0,0.0,0.0,0.0,0.0,0.0,0.0,0.0,0.0,0.0,0.0,0.0,0.0,0.0,0.0,0.0,0.0,0.0,0.0,0.0,0.0875,0.1144,0.1481,0.202,0.2222,0.2222,0.2222,0.2222,0.2222,0.2222,0.2222,0.2222,0.2222,0.2222,0.2491,0.3026,0.3228,0.3901,0.5178,0.5848,0.6585,0.7457,0.8323,0.9186,0.9857,1.0323,1.0721,1.0721,1.0721,1.0721,1.0721,1.0721,1.0721,1.0721,1.0721,1.0721,1.0721,1.0721,1.0721,1.0721,1.0721,1.0721,1.0721,1.0721,1.0721,1.0721,1.0721,1.0721,1.0721,1.0721,1.0721,1.0721,1.0721,1.0721,1.0721,1.0721,1.0853,1.1052,1.1449,1.1714,1.1978,1.2309,1.277,1.277,1.277,1.277,1.277,1.277,1.2836,1.2902,1.3099,1.3428,-0.6478,-0.6771,-0.6771,-0.6553,-0.6333,-0.6257,-0.6039,-0.5609,-0.553,-0.5165,-0.4518,-0.4299,-0.3714,-0.2843,-0.2187,-0.1458,-0.0584,-0.0511,-0.0292,0.0,0.0,0.0,0.0,0.0,0.0,0.0,0.0,0.0,0.0,0.0,0.0,0.0,0.0,0.0,0.0,0.0,0.0,0.0,0.0,0.0,0.0,0.0,0.0337,0.101,0.1077,0.1414,0.2087,0.2222,0.2222,0.2222,0.2222,0.2222,0.2222,0.2222,0.2222,0.2222,0.2222,0.2558,0.2893,0.3228,0.3767,0.5111,0.5646,0.6451,0.7457,0.8392,0.9256,0.999,1.0455,1.0721,1.0721,1.0721,1.0721,1.0721,1.0721,1.0721,1.0721,1.0721,1.0721,1.0721,1.0721,1.0721,1.0721,1.0721,1.0721,1.0721,1.0721,1.0721,1.0721,1.0721,1.0721,1.0721,1.0721,1.0721,1.0721,1.0721,1.0721,1.0721,1.0721,1.0787,1.0986,1.1317,1.1582,1.1912,1.2375,1.277,1.277,1.277,1.277,1.277,1.277,1.2836,1.2836,1.3034,1.3297,-0.5899,-0.5972,-0.5899,-0.5899,-0.5827,-0.5825,-0.5462,-0.4883,-0.4809,-0.4374,-0.3646,-0.328,-0.2843,-0.2187,-0.1313,-0.0803,-0.0511,-0.0292,0.0,0.0,0.0,0.0,0.0,0.0,0.0,0.0,0.0,0.0,0.0,0.0,0.0,0.0,0.0,0.0,0.0,0.0,0.0,0.0,0.0,0.0,0.0,0.0,0.0,0.0875,0.1144,0.1414,0.202,0.2155,0.2222,0.2222,0.2222,0.2222,0.2222,0.2222,0.2222,0.2222,0.2223,0.2357,0.276,0.3027,0.3698,0.4774,0.5512,0.6382,0.7455,0.8662,0.9528,0.9658,1.0323,1.0654,1.0721,1.0721,1.0721,1.0721,1.0721,1.0721,1.0721,1.0721,1.0721,1.0721,1.0721,1.0721,1.0721,1.0721,1.0721,1.0721,1.0721,1.0721,1.0721,1.0721,1.0721,1.0721,1.0721,1.0721,1.0721,1.0721,1.0721,1.0721,1.0721,1.0721,1.092,1.1251,1.1648,1.1978,1.2441,1.277,1.277,1.277,1.277,1.277,1.277,1.277,1.277,1.2968,1.3165,-0.4519,-0.4518,-0.4518,-0.4518,-0.4519,-0.4518,-0.4301,-0.4083,-0.401,-0.3718,-0.3136,-0.277,-0.2115,-0.1386,-0.073,-0.0511,0.0,0.0,0.0,0.0,0.0,0.0,0.0,0.0,0.0,0.0,0.0,0.0,0.0,0.0,0.0,0.0,0.0,0.0,0.0,0.0,0.0,0.0,0.0,0.0,0.0,0.0,0.0202,0.0741,0.0943,0.1347,0.1751,0.2087,0.2155,0.2222,0.2222,0.2222,0.2222,0.2222,0.2222,0.2222,0.2222,0.2357,0.2694,0.3027,0.3765,0.4571,0.5377,0.6183,0.7457,0.8795,0.9731,0.9728,1.0326,1.0654,1.0721,1.0721,1.0721,1.0721,1.0721,1.0721,1.0721,1.0721,1.0721,1.0721,1.0721,1.0721,1.0721,1.0721,1.0721,1.0721,1.0721,1.0721,1.0721,1.0721,1.0721,1.0721,1.0721,1.0721,1.0721,1.0721,1.0721,1.0721,1.0721,1.0787,1.0853,1.1185,1.1582,1.1978,1.2375,1.2638,1.277,1.277,1.277,1.277,1.277,1.277,1.277,1.2836,1.3165,-0.2917,-0.2991,-0.3355,-0.3501,-0.3501,-0.3501,-0.3428,-0.3209,-0.3209,-0.2917,-0.248,-0.2042,-0.1386,-0.073,-0.0511,0.0,0.0,0.0,0.0,0.0,0.0,0.0,0.0,0.0,0.0,0.0,0.0,0.0,0.0,0.0,0.0,0.0,0.0,0.0,0.0,0.0,0.0,0.0,0.0,0.0,0.0,0.0,0.0,0.0544,0.0882,0.1286,0.1623,0.1954,0.2155,0.2222,0.2222,0.2222,0.2222,0.2222,0.2222,0.2222,0.2222,0.229,0.2558,0.296,0.3631,0.4437,0.5512,0.6451,0.7393,0.8795,0.9731,0.9731,1.0323,1.0654,1.0721,1.0721,1.0721,1.0721,1.0721,1.0721,1.0721,1.0721,1.0721,1.0721,1.0721,1.0721,1.0721,1.0721,1.0721,1.0721,1.0721,1.0721,1.0721,1.0721,1.0721,1.0721,1.0721,1.0721,1.0721,1.0721,1.0721,1.0721,1.0721,1.0721,1.0853,1.1118,1.1516,1.1909,1.2305,1.2572,1.2704,1.277,1.277,1.277,1.277,1.277,1.277,1.2836,1.3099,-0.1387,-0.146,-0.2918,-0.3428,-0.3428,-0.3501,-0.3063,-0.2406,-0.2406,-0.1969,-0.1386,-0.0949,-0.0803,-0.0511,0.0,0.0,0.0,0.0,0.0,0.0,0.0,0.0,0.0,0.0,0.0,0.0,0.0,0.0,0.0,0.0,0.0,0.0,0.0,0.0,0.0,0.0,0.0,0.0,0.0,0.0,0.0,0.0,0.0,0.0487,0.0898,0.1236,0.1578,0.1905,0.2162,0.2162,0.2229,0.2223,0.2224,0.2223,0.2222,0.2222,0.2222,0.2223,0.2424,0.2893,0.343,0.4303,0.551,0.6853,0.7526,0.8862,0.9598,0.9797,1.0323,1.0651,1.0721,1.0721,1.0721,1.0721,1.0721,1.0721,1.0721,1.0721,1.0721,1.0721,1.0721,1.0721,1.0721,1.0721,1.0721,1.0721,1.0721,1.0721,1.0721,1.0721,1.0721,1.0721,1.0721,1.0721,1.0721,1.0721,1.0721,1.0721,1.0721,1.0721,1.0721,1.1115,1.1446,1.1843,1.2173,1.2441,1.2704,1.277,1.277,1.277,1.277,1.277,1.2836,1.2902,1.3227,-0.1168,-0.1241,-0.1825,-0.2116,-0.2116,-0.2116,-0.1897,-0.1678,-0.1605,-0.1313,-0.0803,-0.0657,-0.0438,0.0,0.0,0.0,0.0,0.0,0.0,0.0,0.0,0.0,0.0,0.0,0.0,0.0,0.0,0.0,0.0,0.0,0.0,0.0,0.0,0.0,0.0,0.0,0.0,0.0,0.0,0.0,0.0,0.0,0.007,0.021,0.0559,0.0905,0.1252,0.1663,0.1926,0.2119,0.2183,0.2174,0.2228,0.2225,0.2224,0.2223,0.2222,0.2222,0.2289,0.2894,0.3632,0.4841,0.6115,0.7121,0.7526,0.8862,0.9531,0.9927,1.0323,1.0654,1.0721,1.0721,1.0721,1.0721,1.0721,1.0721,1.0721,1.0721,1.0721,1.0721,1.0721,1.0721,1.0721,1.0721,1.0721,1.0721,1.0721,1.0721,1.0721,1.0721,1.0721,1.0721,1.0721,1.0721,1.0721,1.0721,1.0721,1.0721,1.0721,1.0721,1.0721,1.0982,1.138,1.171,1.2041,1.2375,1.2638,1.277,1.277,1.277,1.277,1.277,1.2902,1.2968,1.3293,-0.0876,-0.0876,-0.0876,-0.1022,-0.1168,-0.1168,-0.1168,-0.1022,-0.1022,-0.0803,-0.0438,-0.0438,-0.0292,0.0,0.0,0.0,0.0,0.0,0.0,0.0,0.0,0.0,0.0,0.0,0.0,0.0,0.0,0.0,0.0,0.0,0.0,0.0,0.0,0.0,0.0,0.0,0.0,0.0,0.0,0.0,0.0,0.0,0.0,0.0,0.0354,0.0776,0.1127,0.1543,0.1882,0.208,0.221,0.2197,0.2181,0.2168,0.2163,0.2226,0.2222,0.2222,0.2357,0.2894,0.3901,0.5111,0.6115,0.692,0.7724,0.8795,0.9664,0.9728,1.0256,1.0721,1.0721,1.0721,1.0721,1.0721,1.0721,1.0721,1.0721,1.0721,1.0721,1.0721,1.0721,1.0721,1.0721,1.0721,1.0721,1.0721,1.0721,1.0721,1.0721,1.0721,1.0721,1.0721,1.0721,1.0721,1.0721,1.0721,1.0721,1.0721,1.0721,1.0721,1.0784,1.0982,1.1317,1.1714,1.2045,1.2371,1.2572,1.277,1.277,1.277,1.277,1.277,1.2836,1.2902,1.3165,0.0,0.0,0.0,-0.0511,-0.1095,-0.1168,-0.0949,-0.0657,-0.0584,-0.0365,0.0,0.0,0.0,0.0,0.0,0.0,0.0,0.0,0.0,0.0,0.0,0.0,0.0,0.0,0.0,0.0,0.0,0.0,0.0,0.0,0.0,0.0,0.0,0.0,0.0,0.0,0.0,0.0,0.0,0.0,0.0,0.0,0.0,0.0,0.0216,0.0572,0.1,0.1349,0.1764,0.2037,0.2174,0.2229,0.2204,0.2195,0.2183,0.223,0.2224,0.2222,0.2289,0.2893,0.3901,0.518,0.6116,0.6788,0.7593,0.8728,0.9731,0.9728,1.0323,1.0654,1.0721,1.0721,1.0721,1.0721,1.0721,1.0721,1.0721,1.0721,1.0721,1.0721,1.0721,1.0721,1.0721,1.0721,1.0721,1.0721,1.0721,1.0721,1.0721,1.0721,1.0721,1.0721,1.0721,1.0721,1.0721,1.0721,1.0721,1.0721,1.0721,1.0721,1.0721,1.0784,1.1185,1.1648,1.1912,1.2177,1.2507,1.277,1.277,1.277,1.277,1.277,1.277,1.2836,1.3099,0.0,0.0,0.0,-0.0146,-0.0365,-0.0365,0.0,-0.0219,-0.0219,0.0,0.0,0.0,0.0,0.0,0.0,0.0,0.0,0.0,0.0,0.0,0.0,0.0,0.0,0.0,0.0,0.0,0.0,0.0,0.0,0.0,0.0,0.0,0.0,0.0,0.0,0.0,0.0,0.0,0.0,0.0,0.0,0.0,0.0,0.0,0.0,0.0362,0.0796,0.1222,0.1575,0.1922,0.2062,0.226,0.2232,0.2219,0.2198,0.2179,0.2239,0.2424,0.2692,0.3229,0.39,0.5044,0.6051,0.6721,0.7526,0.8862,0.9464,0.9864,1.0326,1.0654,1.0721,1.0721,1.0721,1.0721,1.0721,1.0721,1.0721,1.0721,1.0721,1.0721,1.0721,1.0721,1.0721,1.0721,1.0721,1.0721,1.0721,1.0721,1.0721,1.0721,1.0721,1.0721,1.0721,1.0721,1.0721,1.0721,1.0721,1.0721,1.0721,1.0721,1.0721,1.0721,1.0986,1.1383,1.1648,1.1912,1.2375,1.2704,1.277,1.277,1.277,1.277,1.277,1.2836,1.2968,0.0,0.0,0.0,0.0,0.0,0.0,0.0,0.0,0.0,0.0,0.0,0.0,0.0,0.0,0.0,0.0,0.0,0.0,0.0,0.0,0.0,0.0,0.0,0.0,0.0,0.0,0.0,0.0,0.0,0.0,0.0,0.0,0.0,0.0,0.0,0.0,0.0,0.0,0.0,0.0,0.0,0.0,0.0,0.0,0.0,0.0219,0.0584,0.0947,0.1381,0.1732,0.2012,0.2291,0.2263,0.2244,0.222,0.2201,0.2242,0.2562,0.296,0.3161,0.3967,0.5245,0.5982,0.6721,0.7593,0.8862,0.9464,0.9861,1.0326,1.0588,1.0721,1.0721,1.0721,1.0721,1.0721,1.0721,1.0721,1.0721,1.0721,1.0721,1.0721,1.0721,1.0721,1.0721,1.0721,1.0721,1.0721,1.0721,1.0721,1.0721,1.0721,1.0721,1.0721,1.0721,1.0721,1.0721,1.0721,1.0721,1.0721,1.0721,1.0721,1.0721,1.092,1.1118,1.1516,1.1912,1.2375,1.2638,1.277,1.277,1.277,1.277,1.277,1.2836,1.2968,0.0,0.0,0.0,0.0,0.0,0.0,0.0,0.0,0.0,0.0,0.0,0.0,0.0,0.0,0.0,0.0,0.0,0.0,0.0,0.0,0.0,0.0,0.0,0.0,0.0,0.0,0.0,0.0,0.0,0.0,0.0,0.0,0.0,0.0,0.0,0.0,0.0,0.0,0.0,0.0,0.0,0.0,0.0,0.0,0.0,0.0,0.0511,0.0948,0.1313,0.1747,0.211,0.2242,0.23,0.2291,0.2252,0.2214,0.2177,0.2576,0.3104,0.324,0.3969,0.5183,0.5915,0.6654,0.766,0.8795,0.9531,0.993,1.0259,1.0522,1.0721,1.0721,1.0721,1.0721,1.0721,1.0721,1.0721,1.0721,1.0721,1.0721,1.0721,1.0721,1.0721,1.0721,1.0721,1.0721,1.0721,1.0721,1.0721,1.0721,1.0721,1.0721,1.0721,1.0721,1.0721,1.0721,1.0721,1.0721,1.0721,1.0721,1.0721,1.0721,1.0853,1.1052,1.1516,1.1978,1.2503,1.2704,1.277,1.277,1.277,1.277,1.277,1.2836,1.2902,0.0,0.0,0.0,0.0,0.0,0.0,0.0,0.0,0.0,0.0,0.0,0.0,0.0,0.0,0.0,0.0,0.0,0.0,0.0,0.0,0.0,0.0,0.0,0.0,0.0,0.0,0.0,0.0,0.0,0.0,0.0,0.0,0.0,0.0,0.0,0.0,0.0,0.0,0.0,0.0,0.0,0.0,0.0,0.0,0.0,0.0,0.0,0.0,0.124,0.1386,0.1969,0.2252,0.2324,0.2302,0.2269,0.224,0.2291,0.2489,0.308,0.3276,0.3875,0.5058,0.5783,0.6518,0.7524,0.8662,0.9598,0.9861,1.0259,1.0522,1.0654,1.0721,1.0721,1.0721,1.0721,1.0721,1.0721,1.0721,1.0721,1.0721,1.0721,1.0721,1.0721,1.0721,1.0721,1.0721,1.0721,1.0721,1.0721,1.0721,1.0721,1.0721,1.0721,1.0721,1.0721,1.0721,1.0721,1.0721,1.0721,1.0721,1.0721,1.0721,1.0787,1.1052,1.1516,1.2045,1.2634,1.277,1.277,1.277,1.277,1.277,1.277,1.277,1.2902,0.0,0.0,0.0,0.0,0.0,0.0,0.0,0.0,0.0,0.0,0.0,0.0,0.0,0.0,0.0,0.0,0.0,0.0,0.0,0.0,0.0,0.0,0.0,0.0,0.0,0.0,0.0,0.0,0.0,0.0,0.0,0.0,0.0,0.0,0.0,0.0,0.0,0.0,0.0,0.0,0.0,0.0,0.0,0.0,0.0,0.0,0.0,0.0,0.1095,0.1313,0.1896,0.226,0.2255,0.2306,0.2289,0.2262,0.2246,0.2513,0.2978,0.3233,0.4033,0.4955,0.5662,0.6451,0.7388,0.8462,0.9195,0.9661,1.0127,1.0525,1.0654,1.0721,1.0721,1.0721,1.0721,1.0721,1.0721,1.0721,1.0721,1.0721,1.0721,1.0721,1.0721,1.0721,1.0721,1.0721,1.0721,1.0721,1.0721,1.0721,1.0721,1.0721,1.0721,1.0721,1.0721,1.0721,1.0721,1.0721,1.0721,1.0721,1.0721,1.0787,1.0853,1.1185,1.1582,1.2111,1.2638,1.277,1.277,1.277,1.277,1.277,1.277,1.277,1.2902,0.0,0.0,0.0,0.0,0.0,0.0,0.0,0.0,0.0,0.0,0.0,0.0,0.0,0.0,0.0,0.0,0.0,0.0,0.0,0.0,0.0,0.0,0.0,0.0,0.0,0.0,0.0,0.0,0.0,0.0,0.0,0.0,0.0,0.0,0.0,0.0,0.0,0.0,0.0,0.0,0.0,0.0,0.0,0.0,0.0,0.0,0.0,0.0657,0.1168,0.1459,0.1824,0.226,0.2324,0.2313,0.23,0.2291,0.2275,0.2472,0.2804,0.3127,0.3926,0.4716,0.5489,0.6397,0.7323,0.8259,0.8989,0.9594,1.0127,1.0455,1.0588,1.0721,1.0721,1.0721,1.0721,1.0721,1.0721,1.0721,1.0721,1.0721,1.0721,1.0721,1.0721,1.0721,1.0721,1.0721,1.0721,1.0721,1.0721,1.0721,1.0721,1.0721,1.0721,1.0721,1.0721,1.0721,1.0721,1.0721,1.0721,1.0721,1.0721,1.0853,1.0986,1.1317,1.1714,1.2111,1.2572,1.2704,1.277,1.277,1.277,1.277,1.277,1.277,1.2968,0.0,0.0,0.0,0.0,0.0,0.0,0.0,0.0,0.0,0.0,0.0,0.0,0.0,0.0,0.0,0.0,0.0,0.0,0.0,0.0,0.0,0.0,0.0,0.0,0.0,0.0,0.0,0.0,0.0,0.0,0.0,0.0,0.0,0.0,0.0,0.0,0.0,0.0,0.0,0.0,0.0,0.0,0.0,0.0,0.0,0.0,0.0,0.073,0.1095,0.1313,0.1896,0.2187,0.2259,0.2252,0.2323,0.232,0.231,0.2438,0.2701,0.3092,0.3825,0.4598,0.5435,0.6343,0.7257,0.812,0.8856,0.9458,0.9994,1.0323,1.0588,1.0654,1.0721,1.0721,1.0721,1.0721,1.0721,1.0721,1.0721,1.0721,1.0721,1.0721,1.0721,1.0721,1.0721,1.0721,1.0721,1.0721,1.0721,1.0721,1.0721,1.0721,1.0721,1.0721,1.0721,1.0721,1.0721,1.0721,1.0721,1.0721,1.0721,1.0787,1.092,1.1449,1.1912,1.2243,1.2507,1.2704,1.277,1.277,1.277,1.277,1.277,1.277,1.2972,0.0,0.0,0.0,0.0,0.0,0.0,0.0,0.0,0.0,0.0,0.0,0.0,0.0,0.0,0.0,0.0,0.0,0.0,0.0,0.0,0.0,0.0,0.0,0.0,0.0,0.0,0.0,0.0,0.0,0.0,0.0,0.0,0.0,0.0,0.0,0.0,0.0,0.0,0.0,0.0,0.0,0.0,0.0,0.0,0.0,0.0,0.0,0.073,0.1095,0.1386,0.1896,0.2187,0.226,0.2258,0.2259,0.2258,0.2328,0.2398,0.2664,0.3132,0.3653,0.4368,0.5198,0.6053,0.6991,0.7856,0.8656,0.9262,0.9731,1.006,1.0522,1.0721,1.0721,1.0721,1.0721,1.0721,1.0721,1.0721,1.0721,1.0721,1.0721,1.0721,1.0721,1.0721,1.0721,1.0721,1.0721,1.0721,1.0721,1.0721,1.0721,1.0721,1.0721,1.0721,1.0721,1.0721,1.0721,1.0721,1.0721,1.0721,1.0721,1.0721,1.092,1.1449,1.1916,1.218,1.2441,1.2704,1.277,1.277,1.277,1.277,1.277,1.277,1.2902,0.0,0.0,0.0,0.0,0.0,0.0,0.0,0.0,0.0,0.0,0.0,0.0,0.0,0.0,0.0,0.0,0.0,0.0,0.0,0.0,0.0,0.0,0.0,0.0,0.0,0.0,0.0,0.0,0.0,0.0,0.0,0.0,0.0,0.0,0.0,0.0,0.0,0.0,0.0,0.0,0.0,0.0,0.0,0.0,0.0,0.0,0.0,0.0657,0.1095,0.1459,0.1896,0.2187,0.226,0.226,0.226,0.226,0.226,0.2331,0.2467,0.3017,0.3482,0.4075,0.492,0.5814,0.6762,0.7531,0.8336,0.8995,0.9395,0.9927,1.0389,1.0721,1.0721,1.0721,1.0721,1.0721,1.0721,1.0721,1.0721,1.0721,1.0721,1.0721,1.0721,1.0721,1.0721,1.0721,1.0721,1.0721,1.0721,1.0721,1.0721,1.0721,1.0721,1.0721,1.0721,1.0721,1.0721,1.0721,1.0721,1.0721,1.0721,1.0721,1.0986,1.1582,1.1982,1.2177,1.2441,1.277,1.277,1.277,1.277,1.277,1.277,1.277,1.277,0.0,0.0,0.0,0.0,0.0,0.0,0.0,0.0,0.0,0.0,0.0,0.0,0.0,0.0,0.0,0.0,0.0,0.0,0.0,0.0,0.0,0.0,0.0,0.0,0.0,0.0,0.0,0.0,0.0,0.0,0.0,0.0,0.0,0.0,0.0,0.0,0.0,0.0,0.0,0.0,0.0,0.0,0.0,0.0,0.0,0.0,0.0,0.0,0.1095,0.1386,0.1823,0.2187,0.226,0.226,0.226,0.226,0.226,0.226,0.2541,0.2958,0.3428,0.3833,0.4758,0.5716,0.6543,0.7228,0.8022,0.8728,0.9259,0.9924,1.0389,1.0654,1.0721,1.0721,1.0721,1.0721,1.0721,1.0721,1.0721,1.0721,1.0721,1.0721,1.0721,1.0721,1.0721,1.0721,1.0721,1.0721,1.0721,1.0721,1.0721,1.0721,1.0721,1.0721,1.0721,1.0721,1.0721,1.0721,1.0721,1.0721,1.0721,1.0721,1.1052,1.1648,1.1912,1.2045,1.2375,1.277,1.277,1.277,1.277,1.277,1.277,1.277,1.277]}]]